GFSMA_850_spd_000.txt.gz
Wind_Speed
9 9 8 6 10 11 18 19 20 18 17 23 22 21 21 21 21 22 35 36 29 28 30 30 29 30 31 30 27 27 26 23 24 24 23 23 23 22 22 21 19 18 16
7 7 9 9 9 9 10 15 21 13 23 20 21 19 23 22 26 27 27 37 40 33 32 34 33 32 33 32 31 30 28 26 25 25 24 24 25 24 23 22 20 19 18
9 7 7 9 10 12 11 16 20 18 21 23 25 23 21 22 20 25 28 30 37 42 32 37 37 35 36 34 31 30 29 28 27 27 27 27 26 26 25 24 22 21 21
10 9 8 9 11 12 13 12 15 18 21 18 22 27 24 20 22 20 20 29 31 38 34 32 40 40 37 37 32 30 29 30 29 30 29 28 28 27 26 25 24 23 22
9 10 11 12 13 13 14 12 13 16 18 21 22 24 30 27 24 26 24 27 28 34 36 30 34 41 42 40 36 33 31 30 32 30 29 29 29 28 27 26 25 24 23
10 11 10 13 11 10 12 14 13 13 15 17 20 24 23 25 27 25 22 26 25 25 35 38 30 38 46 44 41 37 34 30 34 35 32 32 30 30 29 29 27 25 23
5 7 8 8 10 9 10 11 12 13 12 15 17 18 22 26 29 29 31 23 29 32 32 36 36 34 38 48 44 41 39 34 33 37 36 36 34 32 32 31 30 29 28
6 7 9 10 11 12 12 12 13 13 13 13 13 16 13 16 18 25 28 30 28 31 33 38 40 35 33 36 50 45 44 39 34 37 39 36 35 33 33 34 34 33 31
9 10 11 12 12 13 13 15 14 15 17 14 13 10 10 10 19 14 15 24 29 34 37 39 38 35 31 35 38 49 47 44 37 37 39 38 35 34 35 35 35 35 33
14 14 14 15 15 16 17 18 18 19 19 20 18 16 16 17 15 18 18 17 12 28 31 36 40 46 35 36 40 41 50 48 43 42 39 36 36 36 36 36 37 36 34
19 20 16 15 18 19 21 21 22 22 23 25 24 23 23 22 21 23 28 23 23 24 20 33 34 41 45 36 40 44 46 51 47 45 45 41 37 33 34 38 38 37 36
13 14 14 16 18 19 22 24 25 27 28 29 29 29 28 25 25 24 26 26 26 25 33 25 31 40 47 44 40 42 47 50 50 48 49 46 43 39 37 34 37 38 38
12 15 17 20 22 23 24 26 27 29 31 33 33 33 30 29 27 27 26 28 29 26 24 30 31 29 37 53 46 40 45 49 51 50 51 49 45 44 44 40 39 37 37
20 23 27 30 30 30 30 30 31 32 33 35 37 37 36 34 30 28 28 27 28 30 27 29 32 33 28 40 55 48 43 50 50 50 50 51 49 44 43 45 43 40 38
21 23 31 33 33 31 31 29 29 31 31 34 36 37 38 39 34 31 29 28 28 30 33 28 27 30 35 32 30 48 51 49 51 52 50 48 52 49 45 42 42 43 41
27 30 31 28 26 27 28 28 30 31 32 34 35 36 36 38 37 35 32 30 29 30 35 32 27 23 28 36 33 30 45 44 44 48 52 50 49 52 51 47 45 46 45
28 26 25 25 27 28 27 28 30 31 31 33 35 39 39 39 40 40 36 35 34 32 35 36 31 30 29 27 34 42 17 36 48 46 49 53 51 50 52 52 50 49 49
25 25 25 26 28 28 28 29 30 31 32 33 35 36 40 42 44 43 42 40 38 36 35 38 33 30 29 35 34 40 46 28 31 50 51 45 54 54 52 53 54 52 53
24 25 26 28 29 29 29 30 31 32 34 36 36 37 39 40 42 44 45 43 41 40 39 39 37 32 28 24 30 27 32 39 32 32 41 50 48 53 51 52 54 55 55
28 28 29 30 30 31 31 31 32 33 35 38 39 41 43 39 41 40 41 41 40 38 37 38 36 33 29 24 28 27 28 33 39 29 30 46 51 49 47 54 54 53 53
29 29 31 32 31 31 31 30 31 32 35 34 35 38 40 44 43 44 42 38 39 37 37 37 35 33 31 26 30 27 29 31 35 32 29 39 46 49 49 54 53 56 54
29 29 31 31 33 32 33 37 36 33 31 32 35 36 38 38 39 41 46 49 42 31 36 34 35 34 34 31 25 28 28 29 30 34 33 42 46 50 52 58 62 56 51
31 31 31 31 33 33 35 34 31 32 33 32 33 34 33 35 36 35 37 40 49 51 47 35 32 34 34 31 28 28 32 33 34 33 35 41 45 49 58 64 60 46 47
31 31 31 32 34 34 35 32 32 33 33 35 36 36 38 39 37 34 35 37 38 37 42 48 44 31 31 28 29 28 30 30 31 29 33 36 44 42 49 54 49 44 50
30 31 31 32 33 34 33 31 30 31 31 33 34 35 36 38 40 41 40 41 38 38 36 37 37 42 32 27 25 27 29 31 33 33 37 36 45 40 39 38 42 48 47
30 31 33 31 31 33 29 27 25 28 30 29 30 30 32 34 35 37 40 41 38 37 30 34 38 40 38 37 28 30 30 33 33 29 38 42 38 41 27 29 30 32 37

GFSMA_850_spd_003.txt.gz
Wind_Speed
4 4 6 8 7 5 5 9 10 15 19 16 14 23 22 27 25 25 27 25 28 31 32 29 26 29 31 33 32 33 30 28 26 26 28 28 27 26 25 25 23 21 20
2 2 3 5 7 8 9 11 15 17 16 17 22 22 23 26 23 25 30 29 28 31 31 32 30 35 32 34 35 32 31 30 28 27 29 29 28 28 27 26 25 23 21
3 2 3 4 7 10 9 12 17 21 21 21 23 21 21 23 25 25 27 27 30 31 36 39 37 37 39 33 35 34 34 33 32 29 31 31 30 30 28 28 26 25 23
5 6 5 5 9 9 12 11 11 13 17 22 25 25 25 24 24 25 28 25 23 25 30 33 38 41 43 40 35 37 34 32 35 32 32 33 32 31 31 30 28 27 26
4 4 5 7 9 8 9 11 11 12 13 14 23 29 28 30 28 27 28 28 28 28 27 28 31 39 42 43 39 39 39 35 32 36 34 34 33 33 32 31 30 28 28
2 1 4 6 7 6 6 8 10 10 12 13 17 22 24 26 28 29 27 28 28 28 29 33 31 40 40 39 42 42 40 38 35 33 37 35 35 35 35 33 32 31 31
4 3 4 7 8 8 10 10 10 11 11 12 16 16 19 23 27 29 29 29 26 27 27 30 32 36 36 40 41 45 44 41 39 37 35 36 38 36 36 35 34 33 33
7 7 8 8 9 11 12 11 12 13 13 13 15 18 16 15 17 21 25 27 28 27 29 29 33 33 37 37 38 42 49 47 43 40 35 39 40 39 37 37 37 36 34
11 11 11 11 12 12 13 15 15 16 17 17 16 17 17 14 25 16 14 21 25 27 32 34 31 33 39 40 41 33 40 52 49 44 41 38 43 42 40 40 40 39 37
13 13 13 14 15 15 17 18 18 20 21 23 21 19 21 23 25 25 22 22 24 26 24 29 37 35 38 41 43 41 37 45 54 49 44 40 44 46 43 43 43 42 40
13 13 13 14 15 16 19 22 25 26 26 27 26 25 25 26 27 29 32 28 25 26 29 30 21 32 35 40 41 49 35 39 51 54 49 45 41 47 46 46 46 45 45
14 13 14 14 15 16 20 23 26 28 29 30 30 31 30 30 30 30 31 31 30 28 26 29 34 33 27 35 42 48 49 41 43 49 54 51 48 43 45 46 45 45 46
13 13 14 18 20 21 23 24 28 31 31 33 32 33 33 35 34 33 33 34 33 33 31 31 32 34 37 32 38 44 50 53 42 47 50 56 53 49 45 46 45 46 47
13 14 18 18 21 22 23 25 28 31 31 33 34 35 36 39 38 37 36 33 30 32 33 34 31 34 35 35 39 41 49 53 52 47 55 54 57 53 52 50 47 47 49
13 16 18 22 22 23 24 25 28 29 30 33 34 35 38 41 40 40 39 36 34 30 33 33 30 27 32 32 35 42 33 48 58 45 48 53 58 58 54 56 53 49 50
16 19 22 24 25 25 25 26 29 29 31 33 34 35 38 39 39 40 40 41 40 37 37 34 33 31 27 30 28 32 48 33 50 63 42 48 55 59 58 57 58 55 54
20 23 25 25 25 26 26 28 29 32 33 34 34 36 39 40 41 42 41 41 41 37 37 37 33 33 35 30 28 24 30 40 27 27 57 51 55 57 60 59 57 53 59
22 23 25 27 28 28 28 30 32 33 34 35 36 36 38 38 41 43 45 44 42 40 39 39 36 36 35 35 33 31 33 36 37 39 28 46 53 58 59 59 58 55 50
22 25 26 28 29 30 30 31 32 34 34 36 37 38 39 39 41 43 44 42 42 43 42 39 41 36 38 35 32 29 32 31 33 41 38 23 31 50 57 58 58 56 55
24 26 27 28 29 30 31 31 32 33 34 36 37 38 41 42 44 42 40 39 39 40 40 41 41 38 38 37 35 32 33 34 32 29 42 35 34 33 49 58 58 59 57
25 26 28 29 29 30 31 30 31 32 34 38 39 39 41 43 42 46 43 39 35 36 36 37 40 37 36 35 34 32 28 28 31 29 30 44 47 30 45 48 57 59 60
25 27 28 29 30 30 31 35 39 36 38 39 38 37 36 36 37 39 42 47 48 40 37 28 34 35 36 35 32 32 28 28 28 30 30 30 40 33 33 55 57 57 61
26 28 29 28 29 30 33 36 40 39 38 37 36 36 36 35 35 35 35 37 39 43 52 53 41 30 31 32 32 32 31 30 27 24 25 27 30 43 34 42 50 54 57
26 27 28 28 30 31 35 36 34 34 36 36 37 37 38 39 39 39 39 37 38 38 38 45 58 53 34 29 24 20 25 30 26 25 24 25 28 32 37 40 44 55 54
26 28 27 28 31 33 29 27 26 28 30 32 33 34 35 37 37 37 38 40 43 38 35 38 38 50 55 44 33 23 18 23 23 27 26 27 25 30 30 35 34 37 48
27 28 30 30 30 30 27 28 29 31 33 36 36 33 31 32 32 32 34 37 41 41 39 39 33 39 36 52 46 35 23 28 26 26 29 29 26 32 17 22 31 32 40

GFSMA_850_spd_006.txt.gz
Wind_Speed
4 4 5 6 6 8 9 11 12 11 10 12 12 20 33 31 32 23 25 29 31 28 32 31 29 31 31 31 30 28 27 28 30 30 29 29 30 27 25 24 24 23 22
5 7 5 7 9 9 10 13 14 14 14 15 17 17 20 21 23 28 28 26 28 31 32 32 31 29 32 32 33 31 29 29 29 32 30 30 31 29 29 26 25 25 24
7 6 7 5 10 9 9 11 14 17 19 20 20 22 22 23 22 25 26 26 28 33 30 31 32 37 33 34 35 36 34 33 30 33 32 31 31 31 31 30 28 26 26
7 6 5 7 7 4 9 11 10 12 15 16 19 24 29 27 27 26 27 29 28 30 29 27 31 36 40 41 39 37 38 36 35 32 33 33 32 31 32 32 30 29 27
7 5 7 9 7 6 9 12 11 12 14 15 17 20 24 28 28 30 29 29 30 31 29 30 29 31 37 38 38 39 36 38 36 34 32 34 34 33 33 33 32 32 30
9 7 5 10 10 6 9 14 15 13 12 14 19 24 23 22 23 26 29 30 32 32 32 31 32 33 30 36 41 41 44 37 41 37 34 32 35 35 35 35 34 34 32
12 9 5 7 5 6 9 12 13 15 16 14 19 23 23 20 16 16 21 23 27 29 30 31 30 30 33 31 35 38 43 44 41 41 40 36 33 36 37 37 35 35 33
17 12 9 9 8 11 12 11 13 16 17 17 20 23 25 29 17 11 14 13 15 21 26 29 29 29 29 33 34 41 42 45 46 44 42 39 35 35 38 38 37 36 34
20 17 15 14 13 12 11 13 16 19 20 19 20 22 27 22 29 31 31 25 21 20 19 23 25 29 31 33 36 39 39 42 46 48 47 46 37 36 37 39 37 38 38
19 16 16 16 15 14 14 15 15 17 21 26 24 23 26 29 30 34 27 29 30 29 27 27 27 25 30 36 34 33 38 38 39 43 47 50 45 39 38 40 38 40 39
19 15 15 17 22 19 19 22 23 26 27 26 26 26 27 29 30 32 36 30 26 23 25 23 25 29 31 29 33 34 33 43 40 36 44 50 54 44 39 39 42 43 42
20 17 17 20 21 21 23 22 25 25 28 32 35 36 33 31 31 31 35 35 33 31 30 29 32 32 35 32 39 29 31 36 43 43 43 46 53 52 44 41 43 45 44
21 22 19 20 24 25 25 27 28 30 31 34 36 37 37 37 35 35 37 41 40 39 38 36 35 37 38 39 38 38 35 38 40 46 37 38 51 55 52 45 46 48 48
21 22 21 21 22 27 29 28 30 30 30 31 32 32 33 33 32 33 34 35 38 41 38 35 30 28 28 31 36 35 38 38 37 42 48 44 41 54 56 52 49 50 51
10 11 15 18 29 27 27 28 31 31 30 31 32 34 36 35 34 34 37 38 39 41 41 31 33 31 29 25 26 32 33 33 40 40 45 48 41 46 55 56 54 51 50
20 16 20 25 26 28 30 30 31 32 32 33 34 34 34 34 34 35 36 37 35 38 42 38 37 34 33 31 28 28 31 32 36 42 38 47 53 47 52 58 59 57 54
19 21 25 27 28 29 31 31 32 33 34 35 35 36 37 37 39 40 39 39 39 38 39 45 37 36 29 29 35 31 32 34 35 33 38 44 36 47 48 59 66 62 59
20 23 24 26 29 31 32 32 34 34 35 36 37 37 38 38 39 38 38 40 39 39 37 45 40 35 36 35 36 40 34 34 37 39 42 40 51 39 40 43 59 64 62
23 23 25 29 32 33 33 33 34 35 37 37 38 38 39 39 40 41 41 40 39 38 37 37 45 41 39 34 31 33 40 36 39 41 38 37 43 41 39 53 46 57 65
21 26 30 32 33 33 32 32 33 35 36 35 35 36 37 37 37 38 41 42 40 36 33 32 34 40 37 37 35 37 38 43 44 45 42 39 39 38 40 35 44 44 54
28 29 32 31 31 31 32 31 31 35 37 41 43 44 47 49 50 50 48 52 47 42 40 34 37 34 32 34 36 37 36 37 42 44 43 40 39 36 45 42 48 28 45
27 30 29 31 31 31 30 32 35 38 41 43 46 47 47 45 42 40 40 43 49 51 47 41 40 37 35 24 29 33 34 36 41 42 39 38 38 35 35 41 37 40 34
27 29 31 29 30 31 31 33 36 41 44 44 42 41 42 41 39 38 38 37 38 38 42 44 50 48 40 36 23 22 29 35 32 35 34 36 29 31 31 33 39 38 41
29 31 29 29 32 35 38 40 32 26 30 32 34 34 35 35 34 37 39 41 41 42 40 40 41 44 50 51 46 25 21 22 29 28 35 32 27 28 31 32 33 37 32
28 27 27 32 36 37 36 27 26 29 33 35 36 36 36 36 35 32 36 41 42 41 39 42 40 39 36 34 40 49 40 26 19 25 32 27 24 24 24 26 27 26 31
27 29 36 29 35 35 28 27 29 33 38 37 40 36 37 36 36 37 33 35 38 39 39 39 38 44 39 37 37 38 49 39 33 24 24 24 23 21 14 16 20 25 23

GFSMA_850_spd_012.txt.gz
Wind_Speed
12 12 12 13 13 13 13 13 14 15 15 16 15 14 14 13 15 26 26 27 28 29 28 30 29 27 25 25 27 28 31 32 29 28 26 28 31 30 28 26 26 26 25
16 14 14 15 16 15 15 14 14 15 15 14 15 16 17 18 16 17 19 21 24 33 33 30 31 33 34 32 31 31 31 34 33 31 30 29 30 30 30 30 31 30 29
18 18 18 17 17 16 15 15 14 14 14 15 15 13 16 18 20 22 23 23 23 23 26 30 37 30 29 28 32 33 31 34 36 35 34 33 32 32 31 31 31 33 32
17 19 20 19 17 16 16 15 12 11 11 13 15 17 18 19 20 20 23 25 25 23 25 25 24 31 31 31 28 35 35 33 37 38 38 37 34 34 33 34 34 34 34
18 20 20 18 15 14 14 14 13 12 13 13 15 16 19 21 23 22 21 21 21 22 23 29 30 27 30 33 27 28 36 40 35 43 42 40 37 36 34 35 36 36 35
20 21 21 20 17 16 16 15 13 13 14 15 17 19 19 18 21 21 21 21 15 14 16 17 21 28 27 27 32 31 29 37 47 46 41 40 37 37 36 35 36 37 37
26 25 22 21 21 20 17 15 15 15 14 14 19 21 22 20 19 26 17 20 21 18 19 17 18 18 22 24 28 30 28 31 37 45 45 39 32 37 39 38 36 38 40
29 28 27 28 24 22 20 19 18 18 15 13 18 20 17 30 24 27 32 28 26 25 27 26 23 20 17 21 24 22 24 23 28 34 40 45 42 47 39 39 37 38 39
34 33 32 31 29 27 25 24 23 22 18 17 17 15 14 16 38 33 33 30 26 31 29 27 26 20 16 17 20 22 25 23 24 27 31 41 43 38 42 42 41 39 38
32 32 31 31 29 27 25 24 23 21 19 20 17 18 21 25 30 36 35 33 34 33 35 32 31 27 25 23 21 26 29 22 22 23 26 31 36 36 40 36 47 42 39
35 31 30 33 31 29 26 22 18 17 20 15 12 16 22 29 33 35 39 35 41 36 36 33 33 31 26 24 21 21 27 35 28 15 24 25 25 38 41 39 45 42 43
40 38 32 36 34 31 31 30 28 25 21 23 24 25 29 35 34 33 34 38 35 40 35 35 32 28 25 25 28 26 23 27 28 30 25 20 24 28 32 40 43 42 47
40 38 31 32 33 31 32 29 25 23 25 27 29 24 31 35 34 34 35 37 35 32 35 33 35 32 28 25 20 19 20 24 23 20 20 23 26 25 26 28 39 35 49
29 30 30 29 26 20 24 27 26 29 32 23 23 30 34 35 35 35 35 34 37 34 31 30 28 30 29 25 26 20 19 20 23 19 22 20 21 22 26 30 28 50 43
31 29 30 25 30 34 30 31 23 17 18 24 30 31 32 33 34 34 35 33 33 32 32 29 26 23 24 23 20 23 26 18 19 24 24 18 20 22 21 24 27 29 28
26 21 19 16 23 26 16 16 17 22 27 30 32 34 36 36 35 33 33 33 32 35 38 30 31 29 29 31 31 29 27 28 26 27 29 29 26 26 26 23 21 30 30
16 22 22 19 17 12 13 18 24 27 30 33 34 36 38 37 37 36 35 36 36 35 40 35 33 32 31 30 31 31 32 37 36 28 23 28 27 24 27 26 24 24 27
18 13 13 12 13 16 19 23 28 30 33 35 36 35 36 34 35 36 36 36 37 38 39 40 35 33 30 27 26 27 27 29 31 34 33 30 34 31 25 26 27 25 23
10 11 12 16 18 21 27 29 30 33 33 35 35 35 36 36 38 38 37 37 38 39 40 40 38 35 36 35 35 36 37 33 33 33 31 30 30 30 29 28 30 32 30
7 13 16 20 24 27 29 32 32 33 36 33 34 34 37 40 42 44 44 44 44 45 48 44 42 37 34 33 32 32 33 34 36 30 29 33 31 31 34 34 32 31 31
16 15 22 25 26 29 30 32 34 34 34 38 40 43 45 46 47 47 46 47 44 45 46 43 42 34 35 32 30 30 33 31 32 32 30 32 32 34 34 31 31 29 30
13 19 24 26 28 32 32 29 30 33 38 43 44 41 36 32 31 30 31 32 33 35 38 37 36 34 34 31 31 32 33 30 28 23 30 33 31 33 31 31 31 31 28
19 24 26 29 32 28 29 31 35 34 37 35 34 33 32 32 32 33 35 35 33 33 35 35 36 36 36 33 31 31 31 34 37 35 31 22 26 29 29 30 30 30 29
24 27 30 29 30 32 32 31 34 35 33 31 30 32 35 36 36 35 35 35 36 36 34 34 35 34 32 33 35 33 31 30 30 35 38 33 22 29 29 29 29 30 31
27 29 28 31 29 29 32 34 32 28 28 30 33 32 31 32 32 32 32 34 37 39 36 34 32 32 30 28 28 27 30 30 34 31 28 35 35 25 22 26 25 26 23
25 28 27 25 29 33 29 25 23 23 28 29 30 29 30 30 28 28 29 30 33 34 34 33 32 32 28 27 28 33 34 34 32 26 25 27 28 27 21 28 31 25 23

GFSMA_850_spd_015.txt.gz
Wind_Speed
15 15 16 15 14 15 15 15 15 16 17 17 17 16 16 17 17 18 20 24 23 24 26 25 25 26 27 25 22 24 24 27 32 33 31 28 26 29 30 29 28 27 26
18 19 19 18 17 17 17 17 16 16 16 16 16 15 14 15 16 16 16 17 22 25 27 27 30 31 32 31 32 30 28 29 32 34 34 32 30 29 32 32 30 29 29
20 20 20 21 21 20 19 18 17 16 16 14 13 13 13 14 15 17 18 20 21 22 23 25 25 27 31 34 30 31 33 34 34 36 36 37 35 32 32 35 35 33 32
18 20 21 22 22 22 21 20 18 16 15 14 14 15 15 16 16 16 17 20 21 21 22 24 26 26 26 27 34 33 32 32 38 35 39 41 41 39 36 35 35 35 34
21 21 21 21 22 22 22 21 19 19 17 16 16 16 16 16 17 18 14 14 18 18 18 19 22 25 27 28 28 32 34 34 31 39 42 45 46 44 41 38 36 36 36
26 24 22 22 22 23 24 23 21 21 20 18 19 19 19 20 21 18 18 13 12 17 18 19 19 18 21 23 26 30 31 39 36 33 39 44 46 47 43 39 37 37 38
26 27 27 27 26 26 25 25 23 24 23 21 20 22 22 22 21 20 22 23 22 20 19 21 23 22 19 19 19 22 27 31 34 37 38 33 35 40 47 40 40 38 37
28 29 32 32 33 32 31 30 30 28 27 23 21 20 16 20 25 25 27 29 30 27 25 27 25 24 21 18 18 18 21 24 35 38 36 29 29 23 39 40 40 42 39
35 34 35 36 38 38 37 35 33 31 29 27 26 19 9 10 21 29 30 35 34 33 35 32 30 28 26 24 21 20 19 24 28 39 33 33 23 22 26 41 49 46 43
39 40 40 39 41 41 40 36 32 32 32 30 27 22 17 14 9 18 29 34 36 37 35 35 33 28 26 25 23 22 21 24 28 33 25 27 32 21 31 32 37 51 44
41 42 41 41 42 41 36 34 35 34 33 29 23 18 18 17 19 21 28 38 41 38 36 35 33 32 28 25 24 29 29 27 28 27 36 29 17 24 13 32 29 41 40
34 34 36 40 42 41 36 35 32 28 25 25 22 24 22 17 20 25 30 35 36 40 38 36 33 30 32 29 25 21 21 26 27 26 28 37 31 18 19 18 23 32 40
36 38 34 39 40 38 39 37 30 25 21 24 24 22 24 27 20 26 30 35 35 37 40 39 35 32 24 27 29 25 25 21 20 20 18 25 28 26 20 17 16 22 24
32 30 23 28 31 30 25 20 20 22 28 25 29 21 20 22 25 25 26 29 36 32 32 32 29 29 24 21 25 22 21 22 18 14 10 14 17 18 22 26 23 27 23
25 23 23 25 22 17 18 20 25 21 19 15 17 21 23 25 27 27 28 30 29 33 34 31 30 30 31 28 27 31 29 26 19 18 16 16 15 16 16 20 25 24 28
21 23 24 21 21 21 26 21 16 11 16 20 22 26 28 30 31 32 32 31 32 35 39 32 32 32 32 29 27 26 29 28 29 27 26 20 16 16 20 20 18 18 18
18 14 16 22 22 8 9 11 14 17 21 24 27 30 33 32 33 33 32 31 31 33 39 38 32 33 36 36 35 35 32 31 31 30 32 29 23 19 17 18 19 19 18
16 21 19 11 8 10 14 17 20 25 26 28 31 31 33 34 35 34 33 34 34 35 37 41 36 33 33 32 32 30 31 31 30 29 28 30 32 30 25 24 23 22 22
9 11 10 11 12 14 19 22 25 28 30 31 32 33 34 32 34 34 33 35 36 38 39 41 40 35 35 38 40 39 38 39 38 36 35 33 31 30 29 28 25 25 26
9 8 15 15 18 22 23 26 30 31 34 34 33 33 34 36 39 41 43 45 46 46 45 42 42 35 33 32 33 38 41 39 40 37 35 33 33 29 28 22 26 25 25
16 15 18 20 23 26 29 30 32 30 30 33 36 39 41 41 40 37 35 36 34 36 36 33 32 31 30 29 30 32 37 38 38 35 34 32 31 31 33 30 27 28 28
11 15 19 23 27 29 30 28 29 32 35 37 37 38 39 35 33 32 31 31 31 32 34 34 34 34 31 30 30 30 32 33 36 32 32 32 28 32 31 32 28 28 29
16 19 22 26 30 29 30 30 30 31 35 36 36 35 33 32 33 35 35 34 34 35 35 35 37 36 37 34 31 30 30 30 33 29 26 29 27 27 30 30 27 29 30
20 24 27 28 29 30 29 31 33 33 33 33 30 29 30 31 30 30 30 34 34 34 34 36 36 35 34 31 31 29 29 32 32 31 29 34 35 39 25 24 26 27 28
24 25 27 28 28 30 31 30 28 28 29 29 27 26 28 29 27 27 28 30 32 34 33 33 35 33 29 27 26 27 28 32 33 33 26 29 30 32 37 25 23 26 26
25 26 26 27 29 30 25 25 24 26 28 27 27 27 28 28 29 26 28 31 35 34 33 30 29 28 27 28 26 29 32 35 31 28 28 28 25 23 24 40 33 20 23

GFSMA_850_spd_018.txt.gz
Wind_Speed
16 17 17 18 18 17 17 17 18 18 18 17 17 17 18 15 15 16 15 14 15 16 17 17 19 22 24 26 22 19 19 22 22 23 26 27 25 24 24 26 26 27 28
18 19 19 20 20 20 20 20 20 19 19 18 18 18 17 17 15 13 14 14 13 16 17 17 20 22 26 27 27 29 28 24 22 25 28 30 30 29 27 29 31 31 31
18 19 19 20 20 21 22 22 21 20 19 18 17 16 16 15 16 16 15 14 15 14 16 18 18 20 21 23 26 30 32 31 30 29 28 30 31 31 30 31 33 35 34
18 18 19 20 19 20 22 22 21 21 19 18 16 16 16 15 15 15 16 17 15 16 15 13 14 16 19 21 23 25 28 33 31 30 32 33 33 33 34 35 35 37 38
19 20 21 20 20 20 21 21 22 22 22 21 20 19 17 16 15 15 16 17 17 17 17 17 15 14 15 18 21 24 25 26 29 33 32 31 35 33 39 41 41 40 41
24 25 25 24 23 24 23 24 24 23 22 22 23 23 23 21 19 17 16 15 14 15 17 19 19 18 16 16 17 18 20 24 28 28 35 33 29 27 48 46 46 45 44
29 30 31 30 30 30 28 27 27 27 27 26 25 28 29 28 26 23 18 19 17 19 23 22 20 20 21 18 16 16 18 19 23 25 29 31 42 36 34 47 58 50 49
29 33 36 38 38 37 36 34 34 35 32 31 31 30 29 29 31 26 24 22 24 24 23 26 26 25 23 23 21 19 18 20 22 25 27 30 34 35 42 37 42 55 51
35 36 38 41 43 43 43 42 41 41 39 36 35 29 13 18 23 22 23 27 30 29 29 29 29 27 24 23 23 22 22 20 23 25 26 28 33 38 28 25 27 47 48
36 37 38 38 40 46 49 48 47 44 41 39 37 35 35 35 23 24 27 24 24 31 33 32 28 27 26 24 22 22 24 26 25 25 26 31 30 30 37 42 37 33 46
30 29 30 31 32 37 45 52 49 43 42 40 37 34 31 27 22 19 20 24 26 28 33 34 32 30 28 26 24 23 22 22 26 27 27 28 33 34 28 39 35 35 40
36 36 35 35 35 34 38 41 41 39 37 35 32 29 25 18 12 13 18 28 31 38 40 37 33 31 29 27 24 23 21 24 26 24 25 26 25 28 33 28 26 19 22
35 35 33 31 30 29 29 26 27 26 23 23 23 20 21 20 20 20 22 25 29 33 36 38 33 31 29 27 24 22 21 20 22 24 20 15 15 16 18 26 33 26 18
34 31 29 24 21 20 19 16 15 16 16 17 16 19 18 18 15 15 17 23 30 31 31 36 36 33 30 28 25 22 25 27 23 22 20 15 13 11 12 15 27 41 23
31 28 22 15 14 13 13 14 15 22 15 12 14 15 14 13 14 16 20 23 24 29 34 32 34 33 30 29 28 28 27 26 26 24 25 22 19 16 16 18 15 24 33
27 20 15 12 11 14 19 24 24 14 15 14 14 15 17 19 22 24 26 28 28 29 36 34 33 36 33 31 29 29 30 30 31 29 27 28 27 22 17 17 21 15 19
14 8 8 13 20 22 11 8 11 12 14 17 20 22 25 26 28 28 29 29 29 29 33 38 34 33 34 33 31 31 31 29 29 28 27 27 28 27 23 19 15 21 15
8 9 13 10 9 10 11 14 16 19 21 23 26 28 29 30 32 31 30 31 31 30 30 36 36 34 36 36 33 32 34 32 33 32 32 31 29 29 29 27 24 19 23
15 16 19 14 14 16 16 19 21 23 26 28 30 32 31 30 31 31 32 34 36 38 40 41 44 40 38 41 41 40 40 40 38 36 35 35 33 33 32 32 30 27 24
13 15 16 17 17 17 20 23 25 28 31 31 31 31 33 34 36 37 37 38 37 36 35 34 36 37 32 33 33 33 36 36 37 34 33 34 33 33 33 33 34 33 31
16 12 15 17 20 24 27 29 30 30 31 33 34 34 35 34 35 34 33 33 32 32 31 30 32 34 32 29 31 30 32 32 33 32 33 32 32 32 33 33 33 33 30
18 18 18 19 24 27 29 29 29 30 31 33 35 36 34 33 31 28 27 26 28 30 32 33 35 36 34 32 30 29 30 29 34 29 27 30 27 31 28 29 33 34 33
18 19 22 26 28 28 28 29 30 32 32 31 31 31 30 29 27 26 26 26 26 27 28 31 36 37 39 36 35 33 33 32 33 30 29 31 23 24 23 25 25 30 35
23 25 25 26 27 27 29 31 30 29 28 29 29 29 27 26 25 24 25 28 29 30 30 31 33 35 34 33 34 36 32 32 32 31 27 33 29 31 30 31 26 24 29
23 24 25 25 27 30 29 27 26 28 29 29 28 23 23 23 24 24 26 29 30 30 27 28 30 30 30 29 29 29 31 31 32 34 28 29 29 27 25 24 31 27 25
24 24 25 26 27 27 27 25 24 29 27 26 25 26 22 23 24 25 28 30 33 29 27 34 33 29 26 25 27 28 32 34 31 24 29 28 24 20 20 20 19 29 23

GFSMA_850_spd_021.txt.gz
Wind_Speed
14 14 16 17 18 19 19 18 18 18 18 18 17 15 14 12 11 11 11 11 10 10 10 12 13 15 18 19 19 19 17 16 19 20 22 25 25 24 22 21 20 22 24
15 16 17 17 18 19 19 19 20 20 20 19 18 16 15 13 11 10 10 11 11 11 10 10 11 14 18 20 21 22 23 24 23 20 21 22 24 27 25 22 23 25 27
16 17 18 18 18 19 19 20 21 21 20 19 19 18 16 15 15 14 11 11 13 13 12 12 12 13 14 17 19 20 20 23 25 26 25 24 25 27 28 27 27 27 30
16 18 19 19 19 21 22 21 22 21 20 20 20 19 18 17 17 16 16 15 12 12 14 14 13 14 15 15 17 19 19 19 20 24 27 26 27 28 28 29 30 30 31
18 21 22 23 23 23 23 23 23 23 22 22 22 22 22 22 21 20 19 19 17 14 12 12 14 15 16 17 17 17 18 18 20 23 21 25 30 28 29 30 30 33 33
20 22 25 26 27 28 28 28 28 26 25 25 25 26 26 26 25 26 25 23 20 16 15 14 14 16 17 18 18 19 19 16 15 21 24 26 27 29 28 30 34 37 36
25 25 28 30 33 35 35 34 34 33 32 30 30 29 31 30 29 28 27 27 25 21 18 17 16 16 19 19 20 20 21 22 25 22 22 23 26 28 30 24 30 35 35
30 30 32 33 34 37 39 41 41 41 39 37 36 26 21 23 26 28 28 29 27 25 23 23 23 21 19 20 21 20 21 23 24 25 24 25 25 23 28 29 32 38 37
33 35 37 38 38 40 42 42 42 45 47 44 42 34 18 23 20 22 24 27 29 25 24 24 24 22 21 20 19 21 22 23 25 26 27 26 27 28 23 27 32 27 29
34 32 31 32 33 34 36 36 39 42 44 45 38 46 44 39 25 25 23 24 27 27 26 24 23 24 25 24 21 20 21 22 24 27 27 30 30 28 29 25 27 35 34
36 36 35 33 33 33 35 37 38 39 39 41 40 36 37 39 35 28 30 21 23 27 28 26 26 28 27 25 25 22 21 21 23 26 26 28 31 32 32 31 29 27 37
39 35 34 34 34 32 31 30 32 33 32 28 29 29 29 27 24 15 16 21 19 19 22 27 27 25 25 25 23 23 22 22 23 24 25 27 26 29 32 31 32 31 30
35 33 31 29 27 25 23 20 18 16 14 17 22 23 24 20 18 16 16 16 13 16 15 16 19 20 18 16 20 22 23 22 23 23 24 24 25 23 25 26 29 31 30
32 30 27 26 22 18 14 12 11 11 13 13 13 11 12 11 11 13 14 14 15 17 20 21 16 18 20 21 17 25 24 25 26 26 26 25 25 22 24 25 22 24 27
28 25 21 15 11 10 11 14 16 18 21 15 12 13 13 14 14 15 17 19 16 22 27 24 25 19 20 20 21 21 21 25 27 27 28 27 28 28 26 24 24 23 24
18 11 7 7 8 11 13 15 11 10 12 12 12 11 12 14 16 17 18 16 17 22 30 26 25 24 23 24 25 25 23 26 28 29 29 30 30 30 32 28 26 27 26
5 6 12 12 14 10 6 8 8 10 12 14 15 16 18 20 21 19 19 20 22 22 27 30 26 24 25 25 24 25 25 26 26 29 28 29 31 31 31 32 28 27 27
9 10 14 16 15 14 13 14 15 15 16 18 21 23 25 24 23 21 20 21 21 22 25 29 29 27 27 26 26 27 27 27 27 26 31 31 33 33 33 33 33 30 28
16 17 17 18 17 15 16 16 18 21 23 25 26 26 26 25 24 20 22 24 24 25 26 29 32 29 28 27 29 28 28 29 30 32 35 34 35 36 36 36 35 36 34
15 17 14 15 17 17 20 23 26 28 29 29 29 30 29 27 25 24 23 23 23 24 24 26 28 28 26 25 26 27 28 25 26 25 28 30 32 34 36 37 38 38 39
17 19 20 19 20 21 24 28 30 30 29 29 29 29 29 29 29 28 25 24 24 25 24 24 25 27 26 23 25 23 26 24 25 24 24 25 25 26 28 34 38 39 39
20 19 17 20 23 26 26 26 26 27 29 29 27 26 26 27 25 25 24 23 23 25 25 26 27 30 28 27 26 27 28 26 27 20 21 22 19 23 24 25 29 35 37
21 21 23 24 25 26 25 26 28 27 26 25 26 25 24 22 22 20 21 22 23 25 27 28 31 31 30 28 27 27 28 30 29 23 23 25 22 24 20 22 25 29 32
22 23 24 24 24 25 26 26 26 25 23 23 25 22 21 20 20 20 20 22 23 24 25 28 31 31 30 27 27 27 28 29 30 28 25 30 22 24 21 22 29 28 28
24 24 23 24 26 25 24 25 23 21 22 24 20 19 20 21 19 19 19 24 27 28 28 30 29 30 29 27 27 28 30 26 28 26 25 27 23 24 22 24 24 26 30
23 23 24 23 23 24 24 22 21 20 20 20 20 19 21 18 18 19 22 28 29 26 24 24 26 27 28 28 27 29 32 30 27 21 22 22 19 16 14 13 14 17 23

GFSMA_850_spd_024.txt.gz
Wind_Speed
9 9 10 11 11 12 12 12 12 12 13 15 15 15 13 12 13 9 8 15 14 12 12 12 13 16 17 18 18 19 18 17 18 18 19 22 25 24 24 21 20 19 19
9 10 11 11 11 12 12 13 13 15 14 16 16 17 15 11 10 12 8 12 14 13 12 12 13 15 17 19 19 19 20 22 23 21 18 19 23 27 27 26 24 23 22
12 13 12 13 12 13 17 16 16 17 17 16 17 18 17 16 14 14 12 10 13 14 13 13 13 14 16 19 19 20 19 21 25 25 25 24 22 23 27 31 29 28 24
11 14 14 14 14 17 16 16 16 16 16 16 15 15 15 14 16 16 14 13 12 11 14 14 14 15 15 16 18 19 19 19 20 22 25 26 26 27 26 26 27 27 27
13 15 18 19 18 18 18 18 19 19 19 19 18 18 17 16 16 15 15 16 15 16 11 14 13 13 15 16 15 18 19 18 21 21 23 22 26 28 26 28 28 29 31
19 21 24 25 23 22 23 22 23 22 23 22 23 23 21 20 19 19 19 18 17 16 15 14 12 10 12 13 15 18 19 21 23 24 24 24 24 24 28 27 28 29 31
22 28 30 30 29 25 26 27 26 27 26 25 24 26 26 25 25 24 22 21 21 19 17 17 15 12 12 15 15 17 21 22 22 25 23 24 24 26 30 27 28 29 30
32 34 34 32 27 26 26 27 28 28 30 28 30 28 31 30 29 26 26 26 24 22 21 19 16 17 18 11 14 16 18 22 23 25 28 25 25 25 25 25 27 30 30
33 30 30 30 31 30 25 26 26 27 31 29 30 30 25 32 29 27 23 23 25 23 22 22 19 16 14 14 18 17 19 19 22 24 27 29 28 27 26 25 25 27 30
34 30 28 27 28 26 26 26 25 26 26 32 29 34 36 38 37 30 24 22 24 25 22 22 20 18 16 15 16 20 22 22 24 24 25 27 30 32 30 29 27 28 28
24 24 26 33 33 29 26 27 25 24 25 28 29 29 31 31 32 31 37 24 23 24 23 21 20 19 18 17 16 17 28 25 24 25 25 27 28 30 33 32 31 31 30
26 25 25 31 30 29 25 23 18 13 13 16 19 18 18 17 18 24 28 32 27 22 21 20 22 20 20 19 19 23 25 23 24 25 26 27 27 29 30 32 31 33 34
29 28 28 24 17 17 17 16 17 15 16 15 16 18 20 20 22 22 20 19 14 17 15 17 18 19 19 17 17 21 21 22 22 24 26 26 27 27 28 30 32 33 34
27 23 18 12 10 8 8 9 15 17 16 12 11 10 8 7 6 6 7 7 10 13 13 19 18 19 16 16 19 23 19 23 23 24 26 27 29 30 29 29 29 32 33
21 17 11 8 8 10 14 12 14 13 11 9 9 12 12 13 15 13 12 10 11 14 20 18 18 18 18 18 18 19 20 21 25 27 27 28 30 32 32 32 31 32 33
12 7 8 9 10 15 14 9 5 6 7 9 9 11 12 12 11 12 12 14 15 18 26 22 22 21 22 22 22 23 23 26 28 31 29 30 31 33 34 34 35 35 34
8 13 14 15 17 15 13 11 11 11 11 11 12 13 14 17 18 18 18 19 21 21 27 29 25 24 25 25 25 25 25 24 24 27 30 28 30 32 34 35 36 38 38
15 18 18 17 19 14 14 13 13 12 12 14 16 17 19 19 20 20 20 22 23 23 26 30 29 29 28 27 28 28 27 26 27 27 29 32 31 32 34 36 37 38 40
13 14 11 13 14 13 11 11 13 15 16 18 19 19 19 19 20 20 21 23 23 24 25 27 32 29 29 28 29 28 28 28 28 29 32 35 38 37 37 39 40 41 41
11 12 15 17 17 17 15 14 15 18 19 19 19 19 20 20 21 21 22 23 24 25 25 26 29 30 27 26 27 28 29 27 29 27 28 30 30 30 33 37 41 42 43
16 17 18 15 14 16 17 23 24 20 20 21 21 21 20 21 26 28 25 23 24 26 26 26 27 28 27 25 27 27 28 26 27 24 25 26 25 25 25 27 33 38 41
17 16 16 17 17 17 21 24 25 23 21 21 21 20 21 22 23 24 27 27 24 24 23 23 25 27 26 25 24 24 25 26 29 23 26 28 25 28 25 25 26 29 32
17 17 17 17 17 16 23 25 26 25 21 21 22 22 23 22 23 22 22 24 26 25 25 25 29 30 29 26 25 25 26 26 28 26 26 31 25 25 24 24 26 30 33
17 18 17 16 17 17 25 25 26 24 20 21 22 23 22 22 20 21 20 20 21 22 22 25 27 29 29 29 29 28 27 26 27 26 27 33 27 29 25 26 26 28 29
17 17 16 18 18 19 22 25 25 20 21 23 21 20 20 21 22 22 21 23 22 23 25 29 31 32 34 34 34 29 28 24 29 27 25 29 26 28 26 27 26 26 28
17 17 17 18 19 19 20 21 20 20 21 21 21 20 21 22 20 19 20 23 23 25 21 23 24 25 25 26 29 33 34 35 31 26 22 22 22 20 18 18 18 17 18

GFSMA_850_spd_027.txt.gz
Wind_Speed
6 7 9 9 10 11 12 13 13 14 15 15 15 14 14 14 14 13 13 20 18 16 14 13 14 14 15 16 17 17 18 18 19 20 20 21 22 23 23 23 22 20 18
6 7 9 10 10 12 13 14 15 15 16 16 17 17 16 15 14 15 13 17 17 16 15 14 14 14 15 15 17 17 19 21 22 21 20 21 22 23 25 25 25 24 21
6 8 9 11 11 13 15 16 17 17 18 17 18 18 18 17 15 17 16 14 18 16 17 17 15 15 16 16 17 17 18 20 23 25 25 24 23 22 24 27 28 28 25
10 12 11 13 14 15 16 17 19 20 21 21 21 20 19 20 18 18 18 16 17 15 17 19 19 17 17 17 17 18 18 19 21 22 22 25 28 28 26 24 27 32 31
11 13 14 16 17 17 19 20 22 23 24 25 24 24 23 23 22 21 21 21 22 20 18 20 19 19 19 18 17 17 18 17 20 20 22 24 24 28 29 28 29 27 29
11 12 14 16 18 20 23 25 27 28 29 30 31 30 30 28 27 26 25 24 23 23 23 22 25 24 22 21 19 18 18 19 19 20 20 20 22 24 24 26 26 31 30
12 16 16 18 22 23 24 26 28 29 31 30 33 33 35 33 34 33 30 28 27 26 26 23 23 16 19 21 21 21 21 22 21 22 22 22 22 23 25 25 21 26 31
27 27 22 22 21 22 24 24 25 29 31 30 32 33 36 35 34 38 38 34 34 31 29 27 25 24 21 18 19 21 21 20 22 22 25 25 23 23 24 25 26 28 27
23 21 21 22 22 22 23 25 25 27 30 32 30 32 30 34 31 32 33 37 31 33 34 31 31 27 27 22 23 23 25 23 22 21 21 25 27 26 25 24 25 26 25
19 20 21 20 22 22 24 24 23 26 26 31 30 31 34 37 38 37 39 29 35 33 29 34 30 29 26 22 22 21 22 22 22 20 20 24 26 28 28 27 27 27 28
18 20 20 22 24 24 23 22 23 23 22 25 27 27 31 34 26 24 25 30 31 28 27 30 32 28 24 23 20 20 26 29 26 27 25 25 29 28 30 30 29 29 29
21 22 23 23 23 21 20 19 19 17 21 19 16 18 22 23 24 21 19 24 26 26 30 32 26 25 23 22 20 24 25 27 28 26 27 27 28 29 30 31 31 29 29
25 26 24 22 19 18 19 18 16 14 20 24 23 23 22 23 24 22 21 22 21 24 12 26 23 22 23 24 22 24 24 31 32 29 27 27 27 29 30 31 32 31 29
25 22 20 18 16 16 14 13 16 23 25 24 21 17 14 14 12 11 9 8 9 10 13 18 23 19 18 19 19 23 23 23 26 26 25 26 26 28 29 30 32 33 32
23 18 21 17 16 19 21 24 20 16 13 12 13 12 13 13 13 12 11 11 10 9 14 14 14 13 16 16 16 20 19 19 22 23 25 25 26 29 31 32 33 34 35
19 20 20 21 22 25 24 22 18 16 16 14 14 12 14 14 14 14 14 13 12 14 19 17 19 18 18 19 19 21 20 23 26 29 31 33 33 33 32 34 34 35 36
17 14 17 20 23 18 14 13 13 14 14 16 15 16 16 18 20 20 19 20 20 20 24 25 23 23 24 24 24 26 24 26 27 28 29 29 29 27 30 34 35 36 37
15 15 16 14 11 14 14 16 17 16 17 18 20 21 22 22 21 20 21 21 22 23 25 29 26 27 27 27 27 27 27 26 29 27 27 27 28 29 32 31 33 35 37
14 15 13 14 16 19 20 19 19 20 20 22 23 23 23 22 22 21 21 23 23 23 25 28 29 27 28 27 28 28 28 29 29 28 30 33 35 36 39 37 37 38 39
16 17 19 19 20 20 20 20 18 18 21 22 23 23 23 23 23 23 23 23 23 24 25 27 30 30 28 26 26 27 28 27 28 25 26 26 28 29 30 31 35 37 41
17 19 21 21 20 20 22 21 25 26 23 24 24 24 23 23 26 29 26 24 22 23 25 28 30 28 26 24 26 26 28 26 28 25 25 25 25 24 24 25 24 25 31
20 21 21 20 20 20 23 26 30 31 26 24 24 24 24 25 25 24 25 27 27 25 25 26 28 29 27 25 25 27 27 26 27 24 27 30 29 30 28 27 28 21 28
21 21 21 20 20 20 24 27 32 33 25 23 23 24 24 24 25 23 22 26 27 26 26 27 28 29 28 27 27 27 28 28 29 27 25 29 28 31 28 24 28 32 33
20 20 20 20 20 20 25 31 34 30 22 23 23 23 24 25 25 25 23 23 22 22 23 25 27 28 28 28 28 28 29 31 33 30 26 31 31 31 30 32 30 31 32
20 20 19 19 20 21 24 29 31 22 22 24 22 22 22 23 24 24 26 26 24 24 22 25 26 30 33 34 36 39 40 37 29 28 26 29 30 31 30 31 32 32 32
20 19 20 23 21 22 22 27 26 23 25 23 23 22 22 23 24 23 24 23 26 26 20 23 25 26 26 26 25 27 31 35 35 37 33 26 25 23 24 24 23 22 20

GFSMA_850_spd_030.txt.gz
Wind_Speed
6 5 7 7 7 8 9 11 14 15 15 16 17 18 21 21 17 18 20 23 21 24 21 18 17 17 16 15 15 16 18 19 20 22 22 21 21 21 22 22 23 22 21
5 6 8 8 7 8 12 16 18 17 17 17 18 17 22 25 22 19 18 20 23 23 20 20 18 17 17 16 16 16 18 20 22 21 22 22 21 20 24 24 25 24 24
6 9 9 10 10 13 16 17 17 19 20 20 22 22 21 25 26 22 22 24 26 25 23 21 21 20 19 19 18 18 18 20 21 23 24 23 22 22 25 25 27 26 28
11 12 12 13 15 18 21 19 21 22 22 24 26 25 26 26 27 28 26 26 26 26 26 24 22 23 22 22 21 21 20 20 21 21 22 25 27 26 24 22 26 30 31
8 14 16 15 17 21 22 22 25 25 26 26 28 28 28 28 30 30 30 29 30 25 26 26 25 25 26 25 23 23 23 21 21 22 22 22 22 25 27 26 27 27 33
16 17 18 28 25 23 24 25 26 28 31 32 33 34 34 35 35 33 30 33 32 32 30 31 27 27 27 26 26 25 24 23 21 20 20 21 22 21 23 26 28 26 31
20 23 28 30 26 25 23 26 28 29 31 28 31 33 34 35 34 34 37 38 36 35 36 35 37 37 33 31 31 30 29 25 22 22 20 20 21 22 22 23 22 23 27
20 25 23 23 21 25 28 27 24 26 27 26 27 31 34 35 30 30 36 39 42 42 40 38 39 38 35 33 27 29 29 28 26 23 23 23 21 21 22 23 22 24 23
20 17 18 20 21 23 25 26 27 27 30 29 25 27 31 30 30 28 29 28 25 37 39 36 38 41 38 32 27 28 29 31 28 25 23 23 21 19 20 22 23 23 23
18 16 19 20 22 24 27 31 24 25 28 33 29 24 26 29 23 28 31 32 35 29 33 39 37 30 38 41 30 27 26 28 29 27 25 23 23 21 20 20 23 25 25
17 20 21 23 27 30 26 19 20 21 21 22 23 27 32 34 34 24 29 27 26 33 28 32 32 35 31 34 33 23 23 25 26 25 23 23 22 24 25 26 24 24 25
21 23 25 27 26 20 21 22 22 27 27 30 27 29 28 27 27 28 28 36 33 31 29 24 27 31 29 34 29 26 23 27 30 30 31 27 25 27 29 29 29 27 25
27 28 26 23 24 24 27 27 26 25 22 24 32 29 23 22 22 20 17 20 24 30 32 37 33 25 32 21 28 25 30 24 23 28 30 28 28 30 31 31 30 30 29
23 22 22 22 26 26 24 23 23 24 29 24 19 16 15 13 13 15 14 14 19 18 18 18 17 24 20 16 14 22 22 19 23 25 31 33 31 32 32 32 31 30 30
19 23 29 30 23 23 24 25 25 24 21 17 16 12 15 14 17 19 16 16 12 15 23 19 17 15 17 11 19 13 14 13 19 23 28 30 28 30 31 31 31 31 31
26 27 27 22 21 19 20 18 17 15 16 16 17 19 18 19 18 21 21 21 19 19 22 22 20 21 17 17 16 13 16 15 24 23 22 26 28 31 30 30 31 33 33
28 22 18 22 19 15 16 16 17 18 18 17 17 18 19 22 21 22 20 21 22 23 29 27 25 22 21 20 20 21 21 23 26 27 29 32 30 28 27 27 30 34 36
15 17 19 21 17 19 20 22 22 20 22 21 18 21 23 22 22 23 24 22 23 24 26 29 25 23 25 24 23 23 25 26 24 24 22 24 25 26 25 27 31 31 32
21 19 18 19 20 21 22 21 22 22 18 21 23 25 26 26 26 26 24 24 24 26 26 29 31 28 27 27 27 27 25 25 26 27 32 31 31 33 35 36 37 34 34
17 17 18 19 22 23 23 24 22 23 26 29 35 30 27 26 27 26 26 27 29 28 26 27 28 26 24 24 26 28 23 20 23 23 25 26 23 23 27 28 29 30 33
16 20 21 21 22 23 24 22 25 28 31 35 37 34 25 23 25 26 29 27 25 27 28 29 28 26 24 21 21 21 22 24 27 26 26 27 31 30 25 25 26 29 29
18 20 21 21 21 19 24 27 29 31 34 36 38 29 23 26 23 23 22 21 22 24 29 28 34 34 34 34 32 27 27 28 32 32 32 34 31 35 37 37 34 29 30
20 20 21 21 19 18 23 28 33 33 34 35 26 25 28 26 26 26 26 27 28 29 29 28 29 29 29 25 24 26 28 30 32 31 29 30 28 31 29 31 31 31 32
20 21 20 20 23 25 29 31 34 33 34 27 24 27 27 28 28 27 26 27 26 24 25 25 28 30 28 27 25 28 28 31 32 30 29 33 32 33 31 32 32 32 32
20 20 17 23 30 34 29 23 28 31 30 28 28 23 23 26 25 25 26 29 28 26 23 24 26 30 28 27 30 31 34 35 38 37 36 30 29 28 28 29 27 28 29
19 21 26 26 30 29 24 25 25 28 29 27 30 28 27 24 24 20 18 18 22 24 27 31 27 29 29 30 26 26 25 29 32 33 29 27 34 30 30 28 24 16 20

GFSMA_850_spd_033.txt.gz
Wind_Speed
5 4 4 5 5 4 7 10 14 17 17 16 17 20 22 23 23 21 20 20 22 24 26 25 23 22 22 21 18 18 19 20 21 21 22 22 22 22 22 23 24 27 24
5 5 6 7 7 7 11 15 19 19 20 21 21 20 21 22 24 24 23 22 25 24 25 24 23 22 22 22 21 20 20 20 21 21 22 23 22 21 22 24 27 27 26
8 11 8 8 8 11 16 19 22 22 21 23 24 24 24 25 27 30 28 27 24 26 28 29 25 22 23 24 23 22 21 22 22 22 23 22 22 23 24 26 27 27 29
13 12 12 14 16 19 23 25 25 25 25 25 27 27 27 27 29 31 33 33 30 29 27 26 27 26 24 25 26 25 24 23 23 24 24 25 26 25 25 26 28 30 31
16 18 19 17 19 22 21 22 23 23 26 27 30 32 34 34 32 31 31 30 33 34 31 29 28 28 28 27 28 28 26 26 24 24 24 25 26 26 28 27 25 27 32
15 19 20 21 24 27 25 26 27 26 28 31 33 34 32 31 32 32 32 33 35 37 38 36 32 31 32 33 29 28 29 28 27 25 24 23 23 24 26 28 30 29 28
15 19 22 22 23 23 24 25 27 29 28 26 30 32 31 30 31 31 28 30 31 35 39 43 41 38 36 35 35 32 31 31 29 27 25 23 22 21 22 23 25 27 30
13 15 16 16 18 20 22 24 27 29 32 27 26 30 28 33 30 26 24 24 27 24 28 36 44 45 42 39 39 35 36 35 33 30 27 24 22 21 21 21 21 21 23
15 17 18 19 19 22 24 26 29 32 31 28 25 22 19 21 29 31 32 31 30 30 28 29 29 35 41 45 41 39 37 35 34 33 28 26 22 21 20 21 21 20 21
23 22 19 20 23 26 30 30 26 22 24 25 23 21 23 27 19 28 25 28 31 31 28 24 23 27 27 37 43 42 38 38 36 34 32 30 25 21 20 19 18 19 21
21 23 26 32 31 29 25 22 21 22 24 28 29 30 32 32 31 30 35 32 39 37 35 34 26 22 26 28 31 30 30 36 36 33 32 31 28 25 21 20 19 19 20
25 28 32 30 26 24 25 25 28 25 26 23 25 24 28 27 23 16 22 31 34 35 31 27 28 28 28 23 17 35 37 28 30 30 30 29 30 25 24 23 22 23 22
30 33 34 31 28 28 28 22 22 25 23 25 26 28 21 17 14 14 14 19 24 32 28 19 15 17 16 17 28 25 28 21 23 25 26 30 30 28 27 26 25 26 27
32 32 26 27 29 23 20 21 22 21 24 22 21 15 16 14 16 16 16 18 23 23 23 23 16 20 20 18 18 20 22 30 33 25 18 23 26 29 27 27 28 29 28
22 25 29 30 27 22 17 15 14 15 15 16 15 13 14 14 16 19 18 18 18 24 28 27 25 20 19 17 18 13 10 10 21 22 26 16 22 25 27 29 29 29 29
27 29 26 21 22 22 19 17 16 17 19 18 18 17 17 18 18 20 21 22 24 24 28 26 27 25 19 16 17 21 18 14 9 11 9 10 19 22 22 21 25 27 27
25 22 21 21 23 21 19 18 18 19 19 19 18 15 19 17 19 20 20 20 21 21 27 29 25 22 22 19 17 15 18 22 15 12 12 17 22 24 24 25 24 24 26
21 20 21 17 17 17 18 18 17 19 19 20 19 21 21 25 31 29 25 25 26 26 26 28 26 23 24 24 22 19 16 13 19 21 18 18 18 20 20 22 23 24 25
18 16 16 16 18 21 22 22 22 23 23 21 23 26 31 32 32 29 28 28 29 28 29 30 32 30 27 24 29 29 28 28 25 22 20 23 28 31 29 28 29 29 29
19 18 20 20 20 22 22 22 21 21 25 27 30 31 32 32 28 24 25 26 27 29 32 34 33 32 34 32 28 25 24 18 16 18 20 20 24 24 23 27 30 28 27
15 18 20 21 23 23 22 22 26 30 32 34 35 34 33 27 20 19 23 23 23 24 25 26 29 30 30 29 29 28 27 26 27 24 26 24 24 23 22 20 23 25 27
18 16 18 20 23 24 26 28 31 35 36 36 35 34 31 28 23 22 23 23 21 22 23 24 26 27 30 28 25 24 26 28 33 36 34 35 32 36 36 34 32 32 32
16 14 19 21 22 24 26 31 35 32 28 28 29 27 27 24 23 24 26 27 26 24 24 25 23 24 25 23 24 23 20 21 24 23 26 31 29 31 29 28 27 27 26
15 18 17 20 21 25 29 32 27 26 29 28 28 26 27 26 23 24 25 25 25 25 24 23 24 26 24 23 24 22 24 25 28 30 29 38 32 32 27 28 28 27 28
15 15 16 21 26 28 31 26 26 27 27 29 27 26 31 26 23 21 24 22 20 21 20 21 23 23 25 27 23 23 23 29 30 31 25 28 29 33 32 29 22 22 24
14 15 19 22 26 30 24 23 26 28 30 26 28 34 28 24 20 21 21 24 29 29 26 25 26 27 27 24 23 25 26 26 26 26 19 20 20 22 26 32 28 24 18

GFSMA_850_spd_036.txt.gz
Wind_Speed
10 9 8 6 5 6 8 10 13 15 19 19 20 21 20 20 21 22 22 21 21 20 20 22 23 23 22 23 21 20 20 20 22 23 25 26 27 27 26 26 26 27 27
11 11 8 8 7 9 11 13 17 20 23 22 22 21 23 24 25 25 25 25 26 24 24 22 22 24 24 24 25 22 21 21 22 23 24 24 26 27 27 28 28 29 29
10 13 13 11 12 12 13 16 19 21 22 23 23 23 23 24 27 28 27 29 30 31 30 28 25 23 23 23 24 25 24 22 22 23 24 24 25 26 27 28 28 29 31
16 18 15 12 13 13 17 21 25 27 28 28 28 27 26 27 27 28 31 30 28 26 31 32 30 28 25 25 25 26 28 26 24 24 24 24 25 26 27 30 31 30 32
18 16 15 16 18 19 24 27 28 27 28 30 32 32 33 33 32 30 28 28 30 31 28 31 35 33 30 29 28 27 28 28 28 25 25 24 24 26 27 29 29 28 31
13 15 18 19 22 26 29 29 28 27 27 28 29 29 30 30 29 28 25 24 23 26 29 30 28 34 38 34 33 31 30 29 30 30 27 25 25 24 24 27 29 30 28
11 13 17 20 23 24 24 25 27 29 30 32 36 37 34 31 25 23 24 20 23 24 27 26 25 27 31 40 38 35 33 32 30 31 30 28 26 24 23 24 25 27 30
16 19 22 23 24 23 23 25 28 30 32 33 29 30 21 31 24 18 23 23 26 27 26 25 25 27 27 27 35 43 38 35 34 33 33 36 28 25 24 22 22 23 25
24 23 20 19 20 23 27 31 31 29 25 23 24 20 15 10 34 25 24 29 25 27 29 30 29 28 26 29 30 34 42 39 38 37 36 36 34 29 26 24 23 22 23
27 27 27 29 30 32 29 24 22 19 18 22 23 22 23 23 26 31 24 29 29 28 31 32 32 33 27 24 26 34 35 40 41 37 37 37 37 32 29 27 25 24 23
24 28 29 28 30 25 25 23 24 23 22 19 22 20 20 22 23 23 33 24 32 26 22 20 20 20 23 27 27 29 26 41 41 39 38 39 37 33 30 29 26 24 22
28 28 30 31 29 27 30 28 21 17 20 21 19 22 21 18 12 12 18 25 24 24 19 15 14 16 16 16 19 23 25 31 34 32 30 33 32 29 28 28 28 25 23
27 26 27 27 27 30 26 21 19 19 18 17 17 17 17 14 14 14 18 21 23 29 25 17 16 17 16 18 17 19 21 22 25 35 32 31 32 28 26 28 28 25 24
20 22 24 28 28 20 19 19 16 13 13 12 14 15 14 12 13 13 16 18 22 20 25 22 20 16 19 19 17 17 19 19 25 31 32 25 25 28 26 25 23 22 22
23 30 30 24 22 20 21 22 20 17 16 18 17 15 15 15 15 15 17 19 21 25 24 21 26 22 20 17 17 18 19 22 13 21 30 30 28 24 20 21 22 19 19
27 32 26 22 24 24 20 17 17 18 17 18 18 19 18 18 18 16 16 19 19 22 30 25 25 21 19 18 15 15 15 18 22 11 7 20 24 16 14 15 16 29 30
26 28 20 19 20 17 16 17 17 17 18 20 21 17 15 19 19 22 26 28 27 25 29 31 28 25 23 24 22 17 15 16 17 18 17 11 18 12 11 13 18 18 20
26 20 17 15 15 16 17 19 20 20 19 18 17 19 23 25 29 31 32 31 29 28 28 31 28 29 26 24 22 22 23 24 22 19 18 20 17 14 16 18 19 16 16
23 17 16 17 19 16 19 22 22 18 19 22 24 27 31 32 33 32 29 28 27 27 23 27 31 30 30 29 28 30 27 23 20 21 20 19 17 19 20 18 16 19 18
19 16 16 15 19 22 23 21 22 22 25 29 33 35 33 32 29 25 23 22 25 25 25 27 29 30 27 27 25 24 25 26 23 21 17 16 19 23 24 23 25 25 25
14 17 18 17 18 20 21 21 22 26 31 32 29 27 27 26 24 19 21 23 21 22 23 24 25 25 25 27 25 25 25 21 24 27 28 25 21 20 20 19 19 17 16
16 14 14 15 20 18 20 21 26 30 30 27 27 26 25 25 22 21 19 21 24 24 25 24 25 26 28 26 22 20 19 18 21 18 25 31 30 30 29 29 29 27 24
9 11 15 16 16 18 20 24 27 27 26 25 26 27 28 25 26 26 22 21 21 22 23 23 25 25 24 22 20 21 19 19 19 17 18 22 21 24 26 30 31 31 29
13 15 13 13 15 18 22 25 24 24 24 26 27 27 26 29 28 21 20 22 21 19 17 18 22 24 24 23 21 20 22 23 21 21 20 29 27 29 27 28 26 27 28
9 13 11 15 17 21 24 23 25 26 27 27 28 29 30 26 22 19 21 22 22 22 22 24 23 22 21 23 23 24 24 18 21 25 25 22 19 20 20 25 27 27 24
11 10 13 16 21 22 21 23 25 27 29 30 28 28 23 21 19 18 19 20 22 23 20 16 16 19 22 26 27 27 25 26 28 26 14 13 16 18 18 16 16 25 21

GFSMA_850_spd_039.txt.gz
Wind_Speed
11 13 12 11 11 11 11 12 13 14 16 19 19 19 19 19 18 18 19 19 19 19 21 20 20 20 21 22 23 21 19 19 22 23 25 25 26 27 26 26 25 26 27
13 16 14 12 13 14 15 16 17 19 21 23 25 25 25 25 24 21 21 22 22 22 23 24 25 24 23 22 23 24 20 20 20 22 24 26 26 28 28 28 28 27 27
15 14 13 14 14 15 18 19 20 22 24 27 29 29 28 27 27 26 24 24 24 25 24 23 25 27 25 24 23 24 25 23 21 22 23 24 26 27 27 28 29 30 29
15 14 15 15 17 20 21 22 25 28 30 32 33 31 31 30 29 29 29 28 29 26 26 27 25 24 27 27 26 25 26 27 23 23 24 24 24 26 27 28 29 28 30
16 16 18 21 20 21 22 25 29 31 33 34 33 31 29 28 27 25 25 24 24 26 26 24 26 28 28 30 30 29 29 28 28 25 24 25 25 25 26 28 29 29 31
16 17 17 17 22 25 26 27 29 31 32 32 33 34 33 31 28 24 19 19 21 23 24 24 24 25 25 30 32 34 33 33 31 28 28 26 26 25 26 26 28 30 31
13 16 19 21 24 26 27 29 32 33 34 37 40 38 36 30 20 21 25 23 21 21 21 21 21 22 23 22 26 34 37 36 30 30 30 30 27 25 26 26 27 28 29
21 23 25 26 25 25 27 30 32 33 33 31 30 32 19 32 17 10 23 24 24 26 30 30 29 28 28 27 25 25 31 39 36 31 33 32 32 29 27 27 27 27 27
25 25 25 24 26 30 31 30 28 27 28 28 25 21 16 11 31 22 28 20 24 28 28 27 28 30 31 33 31 27 27 29 38 41 35 34 33 35 29 27 27 27 26
21 22 25 27 27 28 27 25 27 27 25 24 22 20 19 22 23 22 20 29 26 23 20 17 17 16 17 19 26 29 28 26 31 35 40 38 33 35 35 31 30 29 29
23 24 23 25 26 26 26 28 26 19 16 16 18 19 19 19 19 18 22 15 24 22 12 13 14 14 12 15 16 19 23 28 31 27 34 40 38 33 33 36 32 30 29
25 25 25 24 26 28 28 22 19 18 17 17 16 16 17 14 13 11 18 27 25 26 25 15 11 14 13 16 16 16 18 20 25 27 29 29 39 40 33 36 31 28 27
22 22 23 25 30 28 23 21 18 16 14 13 12 14 14 13 14 15 17 21 23 26 25 26 14 15 14 16 16 15 16 18 21 25 27 21 33 38 33 28 25 21 24
21 23 25 27 26 22 16 17 17 15 14 13 14 15 17 16 17 18 17 19 24 21 23 24 23 15 17 18 17 17 16 18 19 22 18 23 28 30 23 14 22 23 23
27 25 24 25 21 17 18 16 16 17 17 17 18 18 19 20 18 16 18 13 16 21 26 28 28 24 22 22 23 21 19 16 19 21 19 16 21 31 36 28 26 22 20
28 28 26 26 21 18 16 15 16 17 18 16 17 20 22 22 19 18 22 22 19 26 31 30 33 30 26 24 23 24 21 17 16 20 21 14 15 28 28 29 26 23 21
30 28 28 24 19 16 16 19 19 18 20 20 21 20 17 18 21 25 29 30 30 30 32 36 35 33 27 24 22 23 22 21 23 20 18 23 20 14 23 21 22 18 15
26 23 22 20 19 18 20 17 19 23 21 19 18 21 24 29 32 33 33 32 31 30 29 33 31 27 22 23 25 24 24 24 22 21 21 20 22 22 10 16 16 19 14
21 27 28 20 17 21 18 20 22 21 22 22 25 28 31 31 30 29 27 27 26 25 24 26 29 25 24 22 26 24 23 24 21 22 18 17 16 17 15 15 15 16 16
30 34 19 15 21 16 18 21 21 22 23 27 30 28 27 27 27 26 25 23 24 23 22 23 25 24 23 22 24 24 24 23 24 22 24 21 17 15 16 13 17 19 18
30 31 22 19 13 15 18 20 21 22 27 28 26 25 25 25 24 23 22 24 24 26 29 28 27 26 24 21 21 22 23 26 27 23 22 25 25 21 19 17 14 12 15
30 28 18 10 16 15 16 18 22 27 26 25 26 25 26 26 24 23 25 27 25 24 25 26 28 28 27 23 20 21 21 21 22 16 14 14 24 30 27 24 22 21 20
23 12 15 14 13 15 18 21 25 25 24 24 26 27 27 26 26 28 26 21 19 20 23 24 27 27 28 26 22 21 20 19 20 18 17 21 17 20 22 26 28 29 29
14 11 10 11 13 16 20 25 24 23 24 25 26 27 27 26 23 20 20 22 23 22 20 20 21 22 22 20 21 21 20 20 20 19 19 23 20 21 19 22 25 28 29
10 11 8 10 16 20 23 22 22 24 26 27 25 24 21 20 18 16 18 22 21 20 19 21 23 24 25 24 21 15 18 18 21 21 19 19 23 18 13 14 16 23 29
11 9 11 14 18 20 19 19 21 25 27 26 24 19 16 16 15 17 17 22 23 20 20 18 19 19 17 19 23 27 27 28 27 28 21 15 12 9 11 13 6 10 20

GFSMA_850_spd_042.txt.gz
Wind_Speed
9 10 12 11 10 11 12 12 14 15 16 18 19 21 23 24 23 22 21 21 21 21 21 20 20 21 21 21 20 19 18 18 19 20 20 21 22 23 25 24 23 23 25
10 10 11 11 11 14 15 16 17 19 19 19 21 24 27 29 28 26 24 23 23 24 25 25 25 25 24 23 23 22 20 18 19 20 21 21 22 23 24 25 25 25 26
12 11 10 11 13 16 18 18 19 21 22 25 27 29 31 32 30 28 28 28 28 28 29 30 30 30 29 29 26 24 24 22 20 20 21 22 22 22 23 24 26 28 27
13 14 14 16 18 18 19 21 23 24 26 28 30 32 32 31 29 27 27 27 26 25 23 24 27 28 29 29 30 29 26 24 26 23 20 22 23 23 23 24 25 26 27
17 17 18 17 16 18 22 23 25 27 29 31 32 33 32 30 30 29 27 26 24 21 22 23 22 23 25 27 31 30 32 30 27 28 27 22 22 24 24 24 25 27 27
13 14 15 17 19 22 24 26 27 27 30 32 33 32 30 28 26 22 19 19 21 23 23 23 25 24 24 25 25 29 32 36 34 30 27 29 24 22 23 25 26 26 28
17 19 21 23 24 26 26 28 30 31 31 31 33 34 32 13 5 14 23 24 21 23 27 29 29 30 29 28 25 25 26 30 36 39 32 29 30 27 23 23 25 26 27
19 21 22 23 24 26 29 30 30 31 30 30 30 31 14 24 11 6 14 25 25 22 25 27 27 28 29 32 34 32 31 29 29 35 38 37 32 30 30 25 25 26 27
18 19 21 23 26 27 27 29 28 28 30 27 24 18 10 7 26 19 21 19 21 26 20 20 20 19 21 22 25 28 32 34 35 32 33 36 37 34 33 30 27 26 27
19 22 24 25 26 26 26 28 29 28 25 21 19 17 16 20 18 15 13 25 22 18 16 13 13 12 12 14 15 18 23 26 32 36 34 31 34 37 33 32 31 29 28
20 22 23 23 24 25 27 27 24 21 18 17 16 17 17 17 17 14 23 15 23 22 17 15 14 13 12 12 14 15 18 20 23 27 35 36 29 31 35 32 32 32 31
20 20 20 22 24 25 26 25 23 20 16 14 14 13 14 13 15 14 20 23 24 27 26 22 12 13 14 13 14 15 16 18 20 22 24 31 27 28 32 39 32 41 38
18 19 22 23 24 25 24 22 20 18 19 17 16 15 16 17 17 18 19 23 22 23 26 22 20 11 11 14 14 16 17 19 20 22 23 23 28 24 31 31 37 37 25
23 24 24 25 25 25 22 18 18 17 16 16 18 18 20 20 20 23 24 20 23 27 25 24 22 22 19 21 23 25 23 20 21 20 20 20 21 23 23 24 31 38 25
26 25 25 24 21 20 18 17 15 15 15 17 17 19 21 22 24 24 21 20 17 20 32 33 33 31 32 29 27 25 26 24 20 21 21 20 19 21 25 18 22 33 24
25 25 22 20 22 20 17 15 16 16 18 18 20 21 22 22 21 19 21 24 25 29 36 37 41 39 34 29 25 22 23 24 22 22 23 22 19 17 20 20 25 25 24
24 25 22 24 26 24 17 17 19 16 18 19 18 19 18 20 24 28 30 31 33 31 36 45 41 38 35 29 20 22 24 24 23 22 23 23 21 19 18 23 16 30 39
22 24 23 27 25 22 19 19 16 18 17 17 19 21 25 28 31 29 28 28 28 27 29 36 37 34 30 24 20 25 26 24 23 20 21 23 20 20 19 19 21 16 19
22 23 24 30 29 19 16 17 15 17 18 19 23 28 31 29 29 28 27 27 26 24 23 26 31 31 29 23 21 23 25 25 22 21 20 21 19 18 16 21 12 14 15
26 26 29 31 29 16 15 12 16 17 20 24 29 30 28 27 28 28 27 28 26 25 26 27 29 31 29 26 22 23 24 23 24 22 20 20 23 19 15 15 21 13 13
25 27 29 29 25 11 11 15 15 20 25 29 29 27 27 28 27 26 26 26 28 30 28 27 30 28 27 27 24 22 23 22 25 25 25 21 21 26 22 17 17 17 20
21 20 16 15 9 12 12 12 18 26 29 29 29 29 29 30 29 26 27 29 28 26 25 26 27 28 29 28 25 21 22 23 26 22 17 14 14 19 27 24 19 16 17
13 15 11 10 11 11 11 16 24 27 26 27 28 29 30 28 26 25 23 20 20 21 22 24 26 24 25 22 22 23 23 23 24 20 19 22 18 18 18 24 26 26 24
14 13 11 12 11 12 17 22 24 23 24 25 26 26 26 24 21 19 18 21 22 20 20 20 23 26 25 25 25 23 22 23 23 23 18 24 19 16 13 18 22 25 29
15 12 13 10 12 15 21 21 22 22 23 25 24 23 21 20 17 17 20 22 25 23 18 19 20 21 21 21 22 24 24 24 24 21 17 20 20 17 17 13 14 18 23
16 13 10 10 14 19 19 19 19 22 25 26 25 22 19 18 16 19 22 22 21 21 22 21 20 17 17 18 19 21 23 27 23 19 18 17 15 12 3 7 9 6 9

GFSMA_850_spd_045.txt.gz
Wind_Speed
7 5 5 7 8 8 10 12 14 14 15 16 17 18 20 23 25 26 27 27 27 26 25 25 24 25 25 25 25 23 19 15 14 16 16 17 18 18 20 22 23 23 23
13 9 8 9 10 11 14 15 17 16 17 19 20 22 24 27 29 30 30 29 27 25 26 28 28 28 28 28 29 29 28 24 19 16 16 16 17 18 19 21 24 25 25
14 12 11 12 13 14 15 16 16 17 19 21 22 26 28 29 31 32 32 30 27 26 25 25 27 29 31 32 33 31 31 30 28 23 19 16 16 18 19 20 23 25 26
15 12 12 13 14 15 16 17 20 22 23 25 27 29 30 32 32 32 31 29 27 26 25 24 25 26 27 28 30 31 32 31 32 30 26 23 19 17 18 20 22 24 26
11 10 11 12 14 16 18 20 22 25 27 30 32 32 32 30 29 29 28 25 23 22 22 24 24 24 26 27 28 27 30 34 33 32 30 27 26 22 19 19 21 23 26
13 15 17 18 19 20 21 22 25 27 28 29 29 28 26 25 23 20 20 20 22 23 25 27 28 29 28 28 29 29 30 30 35 34 35 33 30 27 25 21 20 22 23
14 16 17 19 21 23 25 26 27 27 26 28 27 19 22 10 8 11 18 22 21 21 26 30 30 30 31 30 30 32 32 33 32 31 34 36 36 35 30 27 24 21 23
18 17 18 19 22 23 24 25 25 26 26 26 23 16 10 12 11 10 13 22 24 24 24 28 26 25 24 25 28 27 29 33 35 34 32 32 33 36 36 33 29 26 23
16 16 19 20 22 23 23 24 25 26 24 23 20 12 9 8 15 11 12 21 20 23 24 20 18 17 17 19 21 23 25 26 27 30 34 35 34 31 36 37 34 31 29
16 18 19 19 19 21 23 24 24 23 21 16 15 12 14 14 10 15 14 19 21 19 21 20 17 17 15 16 17 19 21 23 23 23 25 30 35 34 31 35 37 35 33
17 17 16 18 19 20 20 21 21 21 19 16 12 13 14 11 11 11 19 18 19 19 17 21 21 19 18 18 17 18 18 20 21 20 21 22 26 31 33 30 34 37 34
14 15 17 18 18 20 21 21 20 18 17 15 14 12 12 13 15 16 20 23 22 22 18 17 17 18 19 19 17 17 17 19 21 22 22 22 21 23 27 28 29 36 34
17 19 20 19 20 20 20 20 20 19 18 16 15 15 16 18 20 21 23 22 23 24 20 21 18 18 15 19 21 22 24 24 24 23 24 24 24 22 23 26 26 29 37
19 21 21 22 21 20 21 22 22 20 16 16 15 17 18 19 21 25 25 23 24 28 28 22 19 22 17 19 25 29 27 29 27 27 25 25 25 25 24 22 22 27 29
21 21 22 23 22 21 23 24 23 18 17 17 17 19 20 23 24 23 21 16 18 26 34 27 28 26 25 24 25 27 26 28 28 27 26 26 26 24 22 21 17 18 24
23 23 23 23 23 22 22 23 22 17 18 16 18 20 20 21 20 21 22 24 21 26 39 31 31 29 28 27 25 25 25 27 28 28 26 26 26 25 23 19 20 24 9
22 22 22 24 24 24 23 24 19 16 14 16 18 19 19 21 25 27 28 24 22 22 31 33 29 27 27 27 25 23 21 22 22 25 24 24 25 25 22 22 18 23 25
24 24 23 23 25 24 22 25 15 11 13 16 18 20 23 27 28 24 21 21 20 21 25 30 29 27 25 23 24 23 21 22 23 23 23 23 23 24 22 20 20 17 23
26 24 23 24 24 24 24 26 11 10 13 16 20 24 29 28 23 21 21 22 22 23 24 25 30 26 26 23 22 20 21 22 23 24 24 23 22 23 21 20 19 15 18
25 24 22 22 23 23 26 9 8 15 15 19 24 28 29 25 23 23 23 23 23 23 23 26 28 28 24 22 21 21 21 20 21 20 20 22 22 22 24 20 18 14 14
25 25 22 19 17 12 8 10 14 13 18 24 28 28 27 27 29 28 23 22 22 24 25 25 26 25 22 20 20 19 20 19 20 20 21 20 19 19 22 24 20 16 14
23 16 16 14 9 9 10 10 12 17 24 27 27 27 28 29 25 25 25 22 20 20 21 22 24 24 24 23 20 19 19 18 20 15 17 16 12 13 13 15 21 19 17
19 18 14 11 12 11 9 13 18 22 23 23 25 27 27 23 22 18 18 16 18 20 21 23 25 24 24 23 21 20 18 18 19 17 17 19 15 16 15 15 23 25 21
20 20 14 11 11 10 13 17 22 21 21 23 24 24 23 20 18 17 17 21 19 21 20 20 21 24 25 24 21 22 22 22 20 19 18 20 14 15 12 15 18 23 28
21 17 14 11 10 12 16 21 21 20 21 23 23 21 21 18 18 16 20 22 20 19 17 20 22 21 21 22 22 22 22 18 18 18 15 16 13 13 13 14 18 20 22
16 11 11 11 10 15 18 19 19 20 22 23 20 20 20 18 18 19 20 20 20 19 21 20 18 17 17 14 13 17 19 20 18 15 12 13 11 10 6 6 9 12 14

GFSMA_850_spd_048.txt.gz
Wind_Speed
7 7 8 7 8 8 7 8 9 10 13 14 15 16 14 14 16 16 17 25 29 30 28 26 26 27 27 28 29 28 27 25 22 20 18 16 14 15 16 19 21 21 21
12 13 13 11 11 11 10 11 12 11 11 14 13 16 22 20 18 20 20 19 27 30 28 26 25 26 28 29 30 31 30 29 28 27 24 20 18 16 17 17 20 22 23
12 11 11 10 13 13 14 12 13 12 14 18 20 21 21 20 20 20 21 19 18 22 26 26 25 26 26 26 28 30 32 33 32 30 29 26 23 19 17 18 20 22 24
7 8 8 11 12 13 14 13 13 14 15 17 20 20 21 22 21 21 18 16 15 15 17 23 24 24 25 26 26 26 27 29 31 31 29 29 28 25 22 19 20 22 24
9 9 10 11 12 11 11 13 13 17 17 18 19 21 22 21 21 19 17 13 13 15 16 18 25 24 26 27 28 28 27 28 29 30 32 31 31 31 28 24 21 22 24
10 11 14 15 13 10 11 18 18 15 16 18 20 22 19 21 19 16 12 11 11 13 15 19 20 16 24 28 27 28 29 30 31 32 32 31 33 33 32 30 27 24 24
15 15 12 14 16 13 19 19 16 16 17 17 19 20 21 18 14 13 13 13 13 12 14 17 17 17 16 20 22 24 25 28 30 33 34 33 32 32 32 32 32 29 26
17 15 14 13 18 13 13 14 16 16 16 15 18 21 21 21 21 11 14 14 15 17 17 17 17 16 16 15 17 21 24 22 23 25 28 33 36 34 31 30 33 33 32
13 14 16 17 16 13 13 15 14 14 16 16 15 15 18 18 21 21 14 19 18 19 18 18 18 17 17 15 16 17 22 22 21 20 22 24 29 36 36 31 29 34 35
14 16 17 14 13 13 13 13 13 14 14 16 16 15 16 18 16 16 17 19 18 18 20 20 20 20 19 19 19 19 23 21 21 20 19 20 22 25 31 33 32 25 32
13 15 14 14 13 13 13 13 13 13 15 15 16 17 17 16 17 17 21 20 22 22 22 23 24 22 20 20 20 19 23 22 21 21 21 20 20 20 22 27 31 34 26
9 12 13 14 14 15 15 15 15 16 16 16 17 16 14 14 16 17 20 21 24 26 23 25 21 19 19 21 21 24 26 24 23 23 23 23 23 22 22 20 23 30 29
14 16 17 18 19 19 18 17 18 17 17 18 17 16 15 15 17 19 19 24 26 29 29 23 26 22 20 24 26 26 26 30 29 28 25 25 25 25 24 24 22 22 28
16 17 18 19 19 21 21 19 18 18 18 18 16 15 15 17 16 18 20 20 26 28 25 24 23 23 23 23 23 31 31 29 29 32 30 26 25 26 26 25 24 23 24
18 19 20 21 22 22 21 20 20 20 20 18 18 15 14 16 17 19 20 21 23 30 31 27 29 26 27 27 28 28 30 31 31 31 32 28 29 26 25 25 24 22 22
16 18 20 21 23 23 21 21 20 20 19 18 15 14 15 16 18 20 21 23 24 29 35 31 31 30 29 29 29 29 30 31 31 28 28 28 30 27 25 23 23 21 22
18 20 21 22 22 23 21 21 21 20 21 15 14 14 14 17 20 22 23 24 24 26 31 33 31 30 30 30 29 26 24 27 27 27 27 27 28 24 24 23 22 21 21
19 20 19 19 19 19 19 22 25 21 13 12 12 13 17 20 22 22 22 23 25 27 30 33 33 31 29 28 29 28 27 25 25 25 26 29 31 25 24 24 22 21 20
19 18 17 17 17 17 16 18 19 21 9 11 12 15 20 21 22 22 23 25 26 27 29 30 33 28 29 27 27 25 23 23 24 25 28 30 25 22 25 24 23 21 18
18 17 17 17 18 18 18 14 9 7 10 12 14 18 20 20 21 21 24 24 25 26 27 26 27 28 26 23 24 25 24 21 21 20 22 22 23 24 24 23 22 22 17
17 17 13 12 15 10 6 5 7 8 11 15 17 17 17 20 27 24 21 21 23 24 24 24 25 25 23 22 22 22 23 23 22 20 21 20 21 20 19 19 18 20 19
18 15 14 13 9 8 12 10 9 10 14 15 16 16 17 19 17 23 21 25 19 17 19 21 23 24 25 24 22 23 21 22 22 17 17 17 17 16 16 15 15 17 19
17 17 15 12 11 10 12 11 12 13 14 13 14 16 17 16 20 19 20 20 20 22 22 24 26 26 26 23 22 23 22 23 22 18 17 19 16 17 16 15 20 23 24
17 17 17 13 11 9 11 13 16 15 12 13 14 16 16 17 18 22 20 20 21 20 19 20 21 23 24 24 24 26 25 24 22 21 19 21 17 17 15 16 18 21 19
16 17 15 10 9 9 13 16 18 12 12 14 15 15 17 17 19 22 19 21 20 19 18 20 23 24 22 20 20 21 20 21 21 19 16 18 14 14 14 15 14 17 17
15 12 8 8 10 9 15 18 16 12 14 13 14 15 17 23 26 19 18 19 19 18 21 21 19 18 17 16 18 16 14 17 18 18 16 12 11 12 12 13 14 14 16

GFSMA_850_spd_051.txt.gz
Wind_Speed
8 6 6 6 10 6 6 8 9 10 12 12 13 14 14 15 16 17 17 24 27 30 32 30 27 26 25 27 28 28 27 25 23 22 22 22 20 18 17 17 18 19 19
10 9 11 6 4 4 6 8 12 13 13 14 15 16 18 18 19 20 20 20 29 28 29 29 24 23 24 25 26 27 28 28 27 25 24 23 22 21 20 19 19 20 21
10 5 3 6 9 12 12 12 12 14 14 16 18 20 21 21 21 22 22 22 20 25 24 24 26 24 23 24 25 25 26 25 24 26 24 23 24 24 21 21 20 21 22
3 4 6 8 10 12 13 10 11 14 17 18 21 20 21 22 23 22 21 20 17 15 19 22 22 24 24 24 25 26 26 26 25 22 23 24 22 22 25 23 22 22 23
6 8 7 8 9 8 9 10 11 14 16 18 19 20 21 22 21 21 20 19 16 15 13 16 22 21 19 25 26 26 26 26 27 26 26 20 24 25 26 27 25 25 24
6 5 6 6 7 7 9 11 13 14 15 17 20 21 21 20 23 20 16 14 13 13 14 15 17 15 19 22 26 28 25 25 27 28 30 29 26 26 27 27 28 26 26
3 5 5 7 10 9 11 12 13 15 16 18 21 23 22 25 22 19 18 17 16 17 18 19 19 17 18 18 16 20 28 28 24 23 25 28 30 22 25 28 26 29 28
14 8 16 10 11 12 12 12 14 16 17 17 21 22 26 25 18 10 12 17 19 20 19 19 19 18 18 17 17 24 22 25 25 21 21 22 24 26 30 32 29 25 30
18 20 15 12 11 11 12 14 14 15 18 18 17 20 25 23 25 24 24 19 19 19 21 20 19 19 20 19 18 17 22 24 29 24 20 22 22 20 20 24 29 23 22
8 9 10 10 10 12 14 15 15 17 17 21 21 20 20 23 25 27 20 21 23 22 20 22 21 21 19 18 19 22 27 24 21 25 24 22 23 23 21 21 22 21 23
11 10 9 11 13 15 16 18 19 18 19 21 21 20 20 20 20 22 25 22 21 21 23 25 26 23 24 26 24 20 21 26 30 29 28 24 23 25 25 22 22 21 20
10 11 13 14 17 18 18 19 24 21 21 21 21 21 20 18 18 16 18 22 23 24 25 26 28 29 25 23 22 26 29 27 30 29 32 28 24 23 26 27 25 23 21
13 13 14 16 18 19 21 22 24 23 21 21 19 19 16 16 15 15 17 20 23 26 27 26 25 24 24 23 21 23 23 28 32 34 29 26 28 26 24 27 29 27 24
13 15 17 18 20 21 22 22 26 22 19 20 21 19 16 16 14 14 16 20 26 28 28 27 26 25 26 26 25 27 25 24 27 32 34 35 32 32 28 26 28 29 29
14 16 17 18 19 20 21 22 24 24 22 20 18 17 16 12 12 15 17 19 23 28 31 31 31 28 28 28 28 30 30 32 34 36 38 35 31 30 30 30 28 28 29
13 15 17 18 20 20 21 22 23 22 20 19 17 17 12 14 14 16 19 21 24 28 33 32 33 31 31 31 31 30 32 33 33 32 32 32 31 29 28 27 27 26 27
14 16 18 18 18 19 20 20 22 20 20 21 21 15 12 13 15 18 20 24 26 27 31 33 34 33 32 32 32 30 30 30 32 31 31 31 29 29 28 29 30 27 25
15 17 18 18 19 19 19 19 19 18 18 16 13 11 11 13 17 20 22 23 26 27 31 34 34 33 33 32 31 31 30 28 29 29 30 31 25 26 29 32 34 29 25
16 17 17 19 20 19 18 20 18 14 13 9 10 11 14 17 20 21 22 23 25 27 30 32 35 30 31 29 29 27 27 27 25 26 27 27 31 28 26 27 25 27 25
17 17 18 18 23 17 14 13 10 8 9 10 10 13 16 19 19 18 21 22 21 23 25 28 30 29 26 25 25 26 25 23 24 21 23 24 25 25 26 25 21 21 24
17 19 19 18 15 18 10 8 9 10 9 12 14 16 16 18 25 25 22 21 20 21 23 23 24 23 23 23 24 26 27 26 27 23 25 25 24 24 22 22 19 19 17
18 19 19 20 18 14 18 17 16 10 11 14 15 15 16 17 16 21 20 22 27 24 21 23 23 26 26 27 26 27 27 26 28 23 22 23 20 19 18 20 18 13 14
19 20 21 20 21 17 22 16 14 13 12 13 14 15 16 15 18 18 19 23 23 23 24 24 27 25 26 24 24 26 26 28 28 28 24 27 22 22 20 18 18 17 19
19 20 20 18 21 18 17 16 14 15 11 12 13 14 15 15 17 25 27 22 21 21 20 21 23 24 25 27 27 26 26 29 30 26 21 27 25 24 21 20 20 22 23
18 20 17 16 14 15 16 17 15 14 11 13 12 13 14 16 18 24 27 21 21 20 18 20 22 26 25 23 20 20 24 25 24 22 21 22 23 22 18 19 18 17 17
17 16 17 11 10 12 16 18 17 14 14 13 11 12 16 21 25 27 24 19 19 18 21 22 19 19 19 19 18 17 21 22 18 21 15 15 16 14 17 18 18 17 18

GFSMA_850_spd_054.txt.gz
Wind_Speed
6 5 6 4 9 9 7 9 9 12 11 11 12 17 15 19 19 17 18 24 24 27 27 27 26 25 22 22 22 21 21 20 19 17 17 18 18 17 16 15 14 17 18
3 3 4 6 9 11 11 12 13 16 16 16 13 15 16 18 19 19 19 22 24 25 25 22 22 24 23 20 21 21 20 20 19 17 17 14 17 19 19 18 16 15 17
4 2 4 5 7 9 12 13 13 12 13 16 18 20 19 20 22 23 23 21 21 22 20 20 20 21 26 26 21 20 21 21 19 15 13 13 14 16 18 21 20 19 17
3 2 3 5 8 11 11 16 14 16 18 19 19 18 19 21 24 19 18 20 17 23 20 17 20 24 23 20 23 21 21 18 16 14 11 12 14 16 19 21 22 22 21
4 7 11 12 10 6 10 13 19 20 19 19 19 18 22 25 19 22 22 22 17 19 17 18 17 20 20 21 23 24 18 14 15 15 14 14 13 12 17 22 22 24 24
5 6 10 14 12 6 12 18 18 20 17 18 20 21 20 21 22 19 21 18 14 17 17 20 19 22 15 17 21 21 23 22 19 19 17 16 16 15 13 16 22 22 26
5 7 3 8 13 15 13 13 16 20 20 19 22 26 22 22 17 15 15 8 8 13 16 16 13 14 18 17 14 19 19 24 29 28 22 18 16 16 17 17 18 23 20
6 3 14 14 13 17 16 13 19 23 22 16 22 23 23 28 19 18 22 23 20 17 15 16 21 17 19 17 15 16 19 20 21 25 30 24 18 17 18 18 19 20 19
6 12 15 18 18 17 13 16 18 16 18 24 16 21 27 21 28 23 23 26 23 23 17 14 15 18 21 20 20 19 21 25 24 22 25 26 23 21 18 19 19 20 18
13 18 16 18 14 13 14 15 15 21 25 18 20 18 22 24 25 25 19 22 19 22 23 22 19 20 22 24 23 26 29 30 29 27 25 28 29 26 22 21 21 20 20
12 14 15 11 13 15 17 20 21 19 20 25 26 26 25 28 27 24 24 22 23 20 22 23 24 27 29 28 27 22 24 25 29 29 29 29 26 25 25 23 23 22 22
10 10 10 11 13 15 18 19 23 27 28 28 26 25 25 24 25 20 20 18 20 22 19 23 24 22 23 23 21 23 24 23 25 27 28 23 22 24 25 25 25 24 23
12 14 17 18 19 22 22 23 25 27 28 30 26 26 24 24 20 18 19 20 20 22 26 23 22 24 24 24 23 19 21 24 24 25 25 29 30 29 28 30 28 26 25
14 15 18 19 20 22 23 23 23 25 26 27 25 22 22 20 19 17 14 15 22 26 26 26 24 24 24 28 26 26 24 24 29 30 31 33 35 36 30 27 29 27 26
14 14 18 20 18 21 22 22 23 23 22 23 24 21 21 18 16 12 14 16 18 26 30 28 28 27 25 25 27 27 30 30 31 33 34 35 37 34 31 29 27 26 28
14 15 16 18 20 20 20 21 21 24 23 28 21 19 20 15 15 14 16 17 19 24 33 29 31 30 30 32 35 32 32 32 33 34 34 33 31 32 31 30 29 27 28
14 15 18 19 18 19 19 20 20 19 18 18 19 22 22 14 14 13 16 20 23 24 29 31 30 30 28 29 30 33 40 40 38 34 31 34 32 34 35 29 27 28 30
15 16 17 18 18 18 19 22 24 22 21 23 24 17 16 12 13 18 19 19 20 22 25 32 34 34 30 28 30 33 35 33 31 32 31 29 31 31 30 30 28 30 31
16 18 18 18 20 24 26 26 20 17 18 11 10 12 13 17 17 17 20 24 28 31 29 27 33 33 29 28 28 30 28 27 27 25 24 25 25 26 27 27 30 28 24
17 18 17 20 20 23 28 21 18 13 14 12 12 12 14 15 19 21 25 30 26 25 25 25 29 30 28 29 26 26 27 27 27 26 28 29 28 28 28 27 24 25 27
20 18 19 22 24 28 21 21 11 12 13 13 13 13 14 17 22 24 22 25 23 26 28 31 26 28 30 28 28 28 29 32 32 27 27 26 27 26 26 27 24 26 25
19 20 21 25 28 25 22 25 21 19 18 17 14 16 16 16 18 20 20 22 25 28 29 30 29 30 29 29 27 27 28 31 34 32 26 34 29 28 25 24 22 22 20
19 19 24 26 28 21 24 24 20 14 16 15 13 16 16 14 20 22 25 28 28 27 21 24 27 27 26 25 29 31 34 33 33 30 29 33 26 27 25 25 23 23 21
19 21 24 26 22 21 23 20 14 13 16 12 15 18 17 15 22 25 26 29 30 25 19 19 23 25 26 28 29 25 26 28 27 26 26 29 26 28 27 26 24 22 24
22 20 23 20 19 21 21 14 15 17 18 16 20 19 13 17 23 24 27 30 28 24 13 18 25 24 20 20 20 22 25 25 28 30 23 22 24 24 21 24 19 20 20
14 20 22 22 25 18 17 18 19 19 21 20 17 10 16 17 21 24 28 27 25 20 23 21 17 17 18 19 17 18 19 20 22 30 23 25 24 21 17 16 14 18 21

GFSMA_850_spd_057.txt.gz
Wind_Speed
6 6 8 6 7 8 9 8 10 11 12 13 13 15 11 10 10 12 16 19 21 23 25 26 19 15 17 19 19 17 15 14 13 10 10 11 12 13 15 15 14 14 15
2 4 5 6 5 6 7 9 11 13 14 14 14 14 15 18 19 18 19 23 23 21 22 20 16 18 20 21 22 19 16 14 12 9 10 8 10 11 14 17 17 17 17
1 2 3 3 3 6 8 10 11 11 13 16 17 15 11 14 18 20 19 12 18 23 21 21 21 21 22 24 22 21 18 15 12 8 10 9 9 11 14 16 17 19 19
3 4 2 1 4 8 10 14 15 17 16 16 16 13 14 17 19 16 19 17 17 23 20 19 23 24 25 24 21 16 16 12 12 12 12 13 13 11 11 15 20 20 20
3 1 3 7 8 8 11 14 17 18 19 19 20 20 21 20 18 18 17 15 12 12 13 17 19 18 15 15 11 15 19 11 11 13 15 17 15 15 15 15 19 22 25
1 5 6 9 10 10 12 17 19 22 22 21 23 21 23 20 11 10 11 12 10 8 4 7 11 13 13 17 15 13 11 7 15 18 13 13 15 17 15 16 17 19 22
3 0 4 9 13 16 17 18 18 21 25 28 27 32 29 15 24 7 14 15 18 18 13 15 12 13 13 8 5 7 8 10 10 15 17 24 16 17 14 16 17 18 21
5 7 7 12 17 17 17 19 21 23 25 24 25 28 21 33 10 21 21 25 24 25 26 22 18 16 15 15 17 19 21 21 20 21 23 24 26 19 15 15 17 19 20
9 12 17 20 18 20 19 21 21 22 22 23 27 21 19 12 32 26 31 25 25 26 24 22 19 15 17 20 20 20 23 24 22 19 20 17 20 21 18 18 18 20 21
14 16 19 20 21 19 19 18 17 20 24 25 22 21 26 28 29 26 19 27 27 25 24 23 20 20 20 22 21 19 22 18 16 20 21 20 19 18 19 20 20 21 22
9 12 16 14 11 12 14 15 17 18 22 25 26 27 27 29 28 30 30 23 26 21 21 22 23 24 24 20 17 18 18 19 22 24 23 18 18 19 19 20 20 21 23
10 10 9 9 10 14 17 21 24 25 26 28 30 29 27 24 27 24 29 30 26 25 21 19 20 22 21 20 19 18 18 23 23 21 21 19 17 19 21 22 24 26 26
15 17 18 19 21 24 27 26 25 24 24 24 26 27 25 27 24 25 23 25 23 22 22 21 23 21 20 18 21 20 17 17 18 20 21 22 24 23 25 27 29 29 29
19 19 22 23 25 25 26 24 24 26 26 23 23 24 25 26 21 23 19 20 19 23 28 27 26 24 20 21 23 25 29 30 30 27 23 24 26 28 28 28 29 29 29
19 19 21 22 23 22 23 22 22 23 23 23 23 24 20 19 17 17 16 14 14 20 28 29 31 24 22 26 27 26 30 34 36 37 37 36 36 30 28 27 28 28 28
18 20 20 21 21 21 19 19 20 20 20 21 22 23 20 20 16 17 18 19 14 18 28 26 24 23 24 25 24 26 28 32 35 38 42 38 30 28 30 33 35 31 29
19 19 21 22 22 20 20 20 22 24 26 25 23 22 22 18 16 17 17 16 17 19 23 31 32 34 36 35 30 27 31 35 36 36 30 28 28 27 28 29 29 28 29
17 19 21 22 23 20 21 24 26 30 27 26 20 19 13 14 13 14 16 17 20 24 28 35 39 38 36 32 28 29 33 33 28 26 24 23 23 21 23 23 24 25 26
21 23 23 24 16 21 24 26 28 27 24 12 11 12 13 13 16 18 19 22 26 29 32 30 31 32 34 28 27 25 24 25 23 24 24 25 27 27 29 29 26 25 23
21 22 23 19 21 24 27 29 29 22 20 15 13 13 13 14 15 18 23 26 27 28 28 29 34 36 32 27 25 26 29 26 28 27 27 26 25 25 26 26 27 26 25
20 21 19 20 23 27 28 30 24 23 18 16 16 14 13 17 20 23 24 24 27 26 29 32 35 34 31 28 28 27 24 27 32 33 34 31 28 29 28 25 23 22 22
19 20 22 25 26 29 29 29 22 26 26 24 16 17 17 19 22 22 23 24 24 28 30 31 28 28 28 25 20 30 34 36 39 32 25 26 23 26 24 22 22 23 22
19 19 18 22 26 28 30 25 23 24 22 13 13 15 18 20 22 22 24 26 27 26 27 24 22 23 27 27 29 30 31 27 28 28 26 30 25 24 23 21 21 22 21
23 24 26 25 27 30 26 27 23 19 15 12 16 19 21 22 24 23 25 25 26 27 24 17 17 23 28 27 20 22 25 27 27 24 22 27 27 25 25 20 19 19 18
24 23 20 21 25 28 29 29 20 17 16 18 20 21 21 22 21 22 23 26 27 24 21 17 17 15 15 14 16 19 21 23 26 27 25 22 27 30 24 23 14 15 13
25 23 23 23 27 31 33 20 18 18 20 20 23 21 18 17 19 21 23 25 26 21 19 16 15 17 12 14 15 16 18 21 24 28 24 26 28 25 24 24 15 20 24

GFSMA_850_spd_060.txt.gz
Wind_Speed
5 4 5 6 5 5 6 7 7 9 11 12 13 13 12 13 14 14 15 17 20 19 18 19 19 16 17 17 20 23 18 15 10 6 6 10 12 15 15 14 14 15 15
6 7 7 7 6 6 6 7 9 11 12 12 12 12 13 14 16 17 17 19 17 12 17 17 19 21 17 17 17 18 16 14 13 8 7 8 11 13 13 15 16 17 16
4 6 8 6 5 4 6 9 10 10 11 11 10 11 12 12 15 17 17 16 16 15 14 13 12 12 10 9 14 14 11 11 11 15 17 16 16 20 18 19 20 21 19
6 7 6 4 3 5 7 9 11 13 12 14 15 16 16 15 14 15 13 12 8 4 2 4 8 10 10 8 9 7 5 7 13 16 13 14 15 18 20 20 21 22 22
10 7 6 4 3 7 10 12 14 14 17 18 19 18 19 16 10 9 9 8 10 5 2 3 2 4 6 8 6 4 6 11 9 11 14 14 15 21 23 23 23 22 22
8 6 3 4 8 11 12 13 14 17 19 21 21 22 22 6 12 13 10 10 11 8 5 9 11 13 11 11 5 4 6 5 5 8 17 16 20 28 28 24 23 22 22
6 4 5 8 10 12 12 13 15 18 20 23 26 27 17 13 13 2 22 17 18 20 20 18 17 14 15 12 11 11 12 13 10 12 14 18 22 22 26 21 21 21 20
5 4 6 10 13 13 14 14 17 19 22 23 25 24 13 21 3 33 19 24 18 18 19 20 18 17 15 13 15 15 19 16 15 14 12 12 13 13 17 15 17 19 21
7 8 13 15 18 20 18 17 19 21 21 21 21 20 13 9 33 28 32 22 20 26 21 19 19 19 17 16 18 19 15 14 14 15 16 12 14 15 14 16 17 19 21
10 14 15 18 20 23 20 20 19 19 20 22 23 22 22 24 25 24 17 21 27 23 23 19 18 17 17 18 17 15 15 15 14 14 15 15 16 17 17 17 17 19 20
10 12 14 16 17 18 18 18 19 21 24 26 24 23 23 24 24 28 30 23 26 24 19 20 21 18 17 19 16 14 12 14 14 16 13 14 16 18 19 20 20 21 24
10 14 15 15 17 18 18 20 23 27 26 26 24 23 25 25 26 24 30 31 30 25 22 20 19 20 20 19 18 18 18 16 15 13 14 16 18 19 20 23 25 26 28
14 11 13 20 18 19 21 23 25 26 24 24 24 23 22 24 23 25 26 28 27 26 21 17 18 18 21 23 17 20 23 23 23 23 23 22 23 23 24 26 29 30 31
13 22 23 21 23 24 25 25 26 26 26 25 23 19 21 23 22 21 22 21 24 21 23 19 19 18 20 15 17 21 26 30 32 32 32 28 26 26 26 29 31 32 31
21 17 19 21 25 24 25 26 27 26 25 23 24 25 26 24 22 22 20 19 20 21 28 18 17 20 19 17 21 24 26 27 30 31 32 33 36 35 28 28 30 31 31
18 19 21 23 24 26 26 26 24 23 23 24 28 29 25 25 22 19 18 16 18 19 20 21 25 27 29 31 33 34 33 31 32 34 36 38 37 29 25 26 28 30 30
20 21 24 25 26 28 27 25 22 25 27 28 32 26 22 20 17 18 21 22 20 19 21 29 31 35 37 35 33 31 30 31 32 33 32 29 24 22 21 22 23 25 27
18 21 22 25 27 26 25 22 24 27 29 32 26 17 14 13 13 13 16 18 19 20 25 33 35 34 31 31 32 29 26 24 23 23 22 23 23 23 24 25 27 28 27
18 21 25 26 25 27 23 24 24 26 30 29 21 18 16 16 16 17 19 19 21 24 27 28 32 32 34 33 31 24 21 22 22 22 23 25 25 25 25 24 25 27 28
18 24 27 25 25 25 24 24 27 29 30 21 22 20 18 19 19 18 19 22 24 25 26 27 31 34 34 31 25 23 24 20 22 25 29 30 28 28 27 26 27 26 25
24 26 23 22 23 25 25 25 27 30 24 23 25 25 23 15 18 22 22 22 23 25 26 29 31 33 31 28 23 24 26 33 33 30 23 19 21 17 18 19 22 24 24
24 23 22 24 25 21 25 26 27 25 25 25 23 23 15 17 21 22 22 23 24 24 27 29 31 29 27 24 25 28 30 26 30 24 29 23 18 18 16 15 17 19 20
20 21 22 25 27 28 27 26 26 27 27 23 16 15 13 18 21 23 23 24 23 24 25 28 27 24 26 26 28 24 23 26 27 26 24 26 19 24 20 20 17 17 19
20 22 24 25 24 22 23 26 29 31 24 18 17 16 17 20 22 24 24 23 23 22 24 23 21 22 21 20 21 20 22 24 24 24 23 30 25 26 24 21 17 10 13
22 23 25 26 25 25 26 29 30 27 18 17 17 18 19 23 22 21 21 22 23 23 21 17 16 14 17 17 15 18 20 22 26 26 20 20 24 28 28 23 15 12 19
25 28 29 28 27 28 28 31 27 22 21 19 18 19 20 21 19 19 21 22 23 20 17 15 13 12 14 15 17 15 17 20 22 25 20 26 29 29 24 24 16 22 19

GFSMA_850_spd_063.txt.gz
Wind_Speed
4 3 5 6 6 6 5 4 4 6 8 9 9 11 13 15 17 18 19 19 19 17 13 10 13 13 13 13 15 16 17 12 11 12 14 15 13 15 18 19 18 17 17
5 5 6 7 6 6 5 5 5 6 7 9 12 13 13 14 16 18 19 18 16 13 11 6 5 7 8 11 13 10 13 14 17 18 18 16 16 18 18 20 22 22 21
7 8 8 7 6 5 3 4 5 7 10 11 11 11 12 14 15 16 17 16 11 8 4 5 4 5 6 5 7 7 7 11 16 19 14 14 16 15 15 16 19 20 21
7 8 8 7 5 2 4 7 10 11 11 12 12 12 12 14 12 12 13 11 7 3 5 4 2 3 5 6 9 6 5 13 9 8 12 13 11 12 17 20 20 22 23
10 10 9 7 3 4 8 10 11 12 12 12 13 14 15 8 6 11 9 8 7 4 4 7 6 6 8 9 5 4 7 5 6 8 13 12 13 13 18 21 24 23 23
12 10 7 3 4 9 11 12 12 13 13 15 16 19 14 2 18 5 8 16 11 14 14 14 15 15 14 12 11 12 13 14 15 10 11 14 13 20 22 20 19 20 20
12 8 4 5 9 11 12 13 13 13 15 18 21 23 14 6 16 7 30 15 21 15 14 18 17 16 15 16 14 12 12 13 15 16 15 13 14 15 15 15 16 18 19
9 5 6 10 11 12 14 15 14 15 17 20 20 20 10 17 5 14 15 21 14 12 21 18 18 18 17 16 15 15 15 16 17 17 17 16 15 14 14 15 15 17 18
6 8 9 10 11 12 13 17 18 18 18 20 19 17 9 7 22 14 22 13 19 23 23 20 19 17 17 17 18 18 19 17 16 17 17 17 16 17 17 17 18 19 19
10 11 11 8 10 13 16 19 19 18 19 21 22 20 17 18 19 17 16 23 22 22 21 23 19 18 18 17 17 18 17 17 18 17 15 17 19 19 19 20 19 19 21
14 10 9 8 10 13 19 19 17 19 23 24 23 21 21 20 21 22 26 21 28 26 25 19 19 20 18 17 18 16 17 17 15 15 15 18 18 21 21 22 22 22 20
16 15 11 11 16 27 20 18 21 23 25 25 23 22 22 22 22 21 26 28 30 30 21 19 17 19 17 17 18 20 16 15 17 16 17 18 20 22 23 23 24 26 28
20 13 9 19 24 17 18 21 24 24 25 24 23 21 19 18 20 23 24 26 25 24 21 17 13 19 22 22 23 23 21 23 24 26 28 28 23 23 24 27 29 30 31
16 16 17 21 11 16 20 21 23 24 23 21 20 19 20 22 23 22 22 23 25 18 22 20 13 19 19 19 22 22 25 27 29 32 32 33 33 32 28 27 29 31 33
14 18 13 11 15 18 20 24 24 24 20 19 20 23 28 29 23 21 23 24 21 23 25 17 13 12 20 21 24 28 32 33 34 36 36 38 36 33 30 31 30 31 31
14 10 11 15 18 20 24 26 26 22 20 22 25 28 32 27 20 20 19 19 21 23 19 20 22 21 26 30 31 30 29 30 30 31 33 35 37 37 32 27 26 27 27
10 13 15 17 20 23 25 25 25 22 22 24 26 31 30 19 15 15 16 19 20 20 22 24 25 29 31 29 29 29 29 29 29 27 26 26 25 25 25 25 24 25 25
11 14 16 19 21 22 24 25 23 22 23 24 28 30 22 19 17 17 18 19 20 20 20 26 31 31 29 28 30 29 27 24 22 23 22 22 25 26 26 28 29 30 30
13 14 18 21 24 24 23 23 23 22 22 26 29 24 22 22 21 20 20 22 21 20 22 28 30 29 30 30 31 28 24 22 20 20 21 24 26 27 28 29 30 29 29
12 18 20 23 22 23 22 22 22 22 24 28 26 23 23 25 26 24 19 20 22 23 24 26 27 30 30 30 28 26 26 25 28 25 22 18 16 18 21 22 24 27 29
19 23 23 22 22 22 22 21 22 25 26 27 24 25 26 24 26 22 20 21 22 23 24 25 27 29 30 29 25 25 28 28 24 22 18 17 20 15 13 13 16 17 22
20 19 22 22 22 23 23 24 25 25 25 25 28 27 25 19 17 17 19 21 23 22 23 25 26 28 28 25 25 25 24 25 28 23 26 26 22 18 17 17 16 18 19
19 19 20 21 23 24 23 21 20 23 26 28 30 24 19 17 16 17 21 23 23 22 23 25 27 26 25 23 22 25 24 22 25 27 24 31 25 22 18 20 19 17 19
19 20 21 23 26 26 25 24 23 26 29 30 25 20 19 17 18 20 23 24 22 21 22 24 25 22 21 19 21 21 23 26 29 28 22 29 21 23 22 21 20 16 16
20 21 23 26 27 28 27 26 25 28 30 26 20 21 19 21 19 20 21 20 21 21 22 22 19 18 17 17 16 21 23 25 29 29 22 18 25 29 27 19 16 12 13
21 23 25 26 28 28 26 26 27 30 28 25 21 23 23 22 21 19 20 20 22 20 20 17 16 15 15 16 16 19 20 23 25 28 14 24 26 24 27 22 26 18 16

GFSMA_850_spd_066.txt.gz
Wind_Speed
7 7 5 5 6 5 4 3 5 6 8 8 10 11 12 13 14 15 16 16 15 13 8 5 6 7 8 10 11 12 12 8 15 13 20 17 15 16 17 18 18 20 20
5 5 6 6 6 6 5 4 4 6 7 8 9 10 12 14 16 16 15 14 11 10 7 6 5 4 4 12 12 10 7 9 10 22 20 14 12 15 15 15 17 19 19
4 6 5 5 6 5 3 3 5 7 8 8 9 11 12 14 14 13 11 10 8 7 8 8 5 6 6 4 10 10 14 16 16 14 12 11 18 17 16 17 19 20 22
8 6 5 6 6 4 2 5 7 8 8 9 9 11 14 13 9 11 11 9 8 3 5 7 8 10 10 10 8 9 10 11 16 13 11 17 15 10 11 17 20 23 26
9 8 8 8 6 1 5 7 8 9 10 11 12 15 15 10 6 15 3 16 8 6 7 8 9 10 11 9 10 11 10 12 13 10 12 13 12 12 13 18 19 19 20
9 10 9 6 2 4 6 8 10 10 11 13 16 18 14 7 8 13 5 21 13 13 11 11 13 15 15 16 15 11 12 14 14 14 12 12 13 14 19 17 15 15 17
12 10 7 5 3 5 6 8 10 12 14 15 18 20 11 7 13 11 11 22 18 14 12 18 18 16 17 17 17 17 13 15 17 18 18 19 18 13 13 13 15 15 16
12 10 8 6 6 5 6 11 14 14 14 16 16 15 7 13 5 16 19 19 13 16 18 20 15 17 18 18 18 18 19 20 20 18 19 19 19 14 15 16 16 17 19
12 11 9 7 6 5 9 15 17 15 15 15 16 15 8 6 22 13 19 12 17 18 21 20 22 21 18 19 19 20 20 20 20 19 17 19 18 19 18 17 19 21 18
16 12 10 9 8 10 13 17 17 13 14 18 19 18 17 17 15 13 9 14 19 20 21 22 24 20 18 19 19 19 18 17 17 18 17 17 18 20 21 21 20 21 20
17 15 14 11 9 8 16 22 15 16 18 18 18 17 16 17 18 21 25 19 20 23 24 27 18 16 17 19 20 20 18 19 19 16 18 16 19 21 21 21 24 24 24
17 17 16 14 13 14 21 20 16 19 19 19 18 16 15 14 15 17 22 26 28 28 28 22 17 15 18 20 21 21 20 20 22 22 21 20 20 22 23 24 25 26 27
21 20 18 10 13 19 17 15 17 18 19 18 17 16 15 14 16 22 25 28 27 28 29 21 15 15 19 23 25 24 21 22 24 25 27 28 28 25 25 26 27 28 30
23 20 16 13 19 14 14 15 17 19 19 18 16 16 16 18 22 25 23 23 28 27 23 20 17 17 21 23 23 24 27 29 30 31 34 36 36 35 30 29 29 30 31
26 21 13 22 15 13 14 17 19 19 19 16 16 16 18 22 26 19 18 20 22 25 20 22 13 15 18 20 23 28 31 31 30 30 32 34 35 36 33 29 30 31 32
19 12 25 12 11 12 16 19 20 20 17 17 17 18 22 26 23 17 15 14 15 16 21 21 21 19 19 24 28 28 28 28 29 29 30 31 32 32 29 27 27 28 28
17 15 10 8 12 17 18 18 19 18 18 18 18 20 24 25 20 17 17 17 17 17 21 23 22 22 26 28 27 27 27 28 28 27 26 26 26 25 25 26 26 27 27
17 9 8 11 18 17 18 20 19 19 21 21 19 22 26 23 21 19 20 20 20 21 22 23 25 26 27 27 28 28 26 24 24 23 23 23 24 26 27 28 29 30 30
6 6 13 16 18 19 21 20 21 21 22 20 21 25 25 21 22 22 22 22 23 21 20 24 26 27 29 28 28 27 26 24 23 25 22 21 22 24 25 26 28 30 31
9 12 16 20 20 19 20 21 22 21 20 22 25 25 23 23 25 23 23 24 25 19 22 23 26 28 28 27 28 28 28 25 25 22 18 16 17 19 20 21 20 20 22
12 15 23 19 19 21 21 21 20 20 23 24 24 24 25 26 26 25 24 25 20 20 22 24 26 27 28 27 26 26 26 26 28 19 19 22 21 18 18 18 18 19 20
17 26 19 20 20 20 20 20 20 21 22 23 25 26 27 28 24 21 19 19 18 21 23 25 26 27 27 27 24 24 24 26 24 23 29 31 26 22 18 18 19 19 20
26 20 20 20 20 21 21 23 22 24 24 25 26 29 29 24 20 19 18 18 21 23 24 25 25 25 27 23 23 23 22 23 26 29 28 32 25 21 17 18 18 21 23
20 21 20 20 22 23 23 25 26 27 27 27 28 29 25 20 21 19 20 21 24 24 23 23 25 25 23 20 19 21 22 26 28 26 23 29 19 21 20 15 9 14 17
21 21 21 22 25 27 27 28 28 28 29 31 30 27 24 22 20 20 22 23 23 22 21 22 23 22 19 17 17 20 21 26 30 29 22 16 23 26 22 11 11 19 15
21 23 25 25 28 30 30 30 29 28 32 34 32 27 25 24 21 23 22 23 23 21 20 21 20 18 17 17 17 18 20 24 24 27 16 23 24 21 22 18 23 22 19

GFSMA_850_spd_069.txt.gz
Wind_Speed
11 12 11 9 9 6 4 3 3 5 6 8 10 11 12 13 14 15 14 14 12 10 6 7 9 10 13 12 12 11 11 7 11 12 18 13 11 13 15 14 14 14 15
12 10 9 8 7 6 5 4 3 5 7 8 9 10 12 14 15 15 13 12 10 7 7 7 7 6 8 13 13 14 14 12 14 16 11 8 10 16 15 14 15 16 16
10 7 7 7 8 6 4 2 3 5 7 8 10 11 12 13 12 9 12 10 8 7 6 8 8 9 9 4 10 11 12 16 14 13 12 10 13 16 12 11 16 17 18
7 7 7 8 7 6 3 1 4 6 8 9 9 10 11 10 8 12 9 6 9 7 6 8 9 11 12 13 11 9 11 15 13 14 15 11 17 15 13 12 15 18 18
8 8 9 8 7 4 1 2 4 7 8 8 9 11 11 8 7 11 5 6 12 10 9 11 11 12 14 16 13 11 13 15 18 17 16 17 16 11 14 17 18 16 14
10 10 10 9 8 5 2 2 5 8 8 9 11 13 11 7 8 10 8 11 17 13 8 10 13 15 16 17 17 17 13 16 16 18 19 19 17 16 17 18 25 17 14
10 12 11 11 9 5 4 3 7 10 11 12 13 13 11 9 10 8 15 12 16 13 15 15 17 15 15 17 19 19 20 20 17 18 17 19 20 19 17 13 11 15 16
11 13 13 13 11 8 6 4 8 9 11 12 12 13 6 9 6 12 17 12 16 15 18 19 19 18 19 19 19 19 20 21 23 23 22 21 19 18 23 23 19 18 16
15 16 16 15 12 8 6 5 10 14 14 13 13 9 6 6 14 8 16 15 12 15 18 20 22 24 24 20 20 20 21 21 21 20 19 19 19 20 20 22 22 20 21
19 19 18 15 11 9 6 10 14 15 15 12 15 14 13 14 10 12 9 11 18 19 17 18 22 24 20 19 20 21 21 21 20 19 19 18 19 19 21 21 23 27 21
22 21 19 17 11 9 9 13 16 14 14 15 15 15 14 15 15 15 19 15 15 16 17 17 21 23 21 21 20 22 22 22 21 20 19 18 17 19 22 24 25 26 24
23 23 21 18 15 11 10 13 14 13 15 16 16 15 14 10 10 11 16 19 20 18 16 16 17 18 19 21 20 23 23 21 22 22 23 23 24 21 23 24 26 27 28
24 25 23 20 17 12 14 20 13 16 18 16 15 14 12 11 12 14 17 21 19 17 16 17 15 20 22 22 23 23 26 26 26 27 29 30 31 32 28 28 28 28 29
25 26 24 22 11 26 17 12 15 17 17 15 15 13 13 13 16 19 18 17 19 19 17 16 17 19 16 19 25 28 28 31 33 35 36 35 34 35 35 34 30 30 30
26 25 22 14 20 16 10 12 16 16 15 16 15 15 15 15 19 21 19 16 15 21 21 14 13 13 14 17 21 25 30 32 31 30 30 31 32 33 33 32 30 29 30
24 19 11 14 15 8 9 15 16 16 17 16 16 16 17 18 21 21 18 16 15 17 23 17 16 15 15 18 22 27 30 30 29 28 29 29 30 31 31 32 28 27 27
20 10 20 23 7 10 15 18 17 18 18 17 17 18 19 20 23 22 19 17 16 18 20 21 19 17 21 22 22 27 28 28 28 27 27 27 26 26 27 26 26 27 28
19 15 17 10 11 15 18 19 19 19 20 20 20 21 21 22 25 22 20 18 19 19 21 23 21 17 21 21 26 28 27 26 26 26 27 26 25 26 28 29 29 29 29
13 12 10 8 12 19 20 20 20 21 22 22 22 22 24 26 26 21 20 20 21 22 25 26 21 18 21 24 22 22 24 24 24 24 24 24 24 23 23 23 23 25 25
8 7 8 11 19 22 21 19 21 21 21 22 22 25 26 26 26 23 21 22 24 25 23 24 19 20 19 18 21 21 19 18 19 22 20 20 20 22 24 24 24 24 21
5 9 10 21 19 18 19 19 20 21 22 23 24 26 27 27 27 27 27 22 20 21 19 18 20 20 20 19 19 18 20 19 20 18 15 16 20 21 20 20 21 21 21
4 13 22 19 20 20 20 20 21 23 24 25 27 27 27 28 28 29 30 26 22 20 20 21 21 22 22 20 18 18 18 17 19 13 19 23 20 21 19 16 17 18 21
23 16 16 19 20 20 20 21 22 25 28 29 29 29 29 30 29 29 23 22 23 22 23 24 25 23 22 20 18 17 16 17 19 20 23 25 20 20 16 17 15 15 15
14 16 19 20 20 21 22 23 25 27 29 30 30 30 32 33 31 26 24 24 24 24 24 24 26 22 20 23 20 16 16 18 19 19 17 23 16 19 19 15 8 6 13
16 18 19 20 23 25 24 25 27 30 32 33 32 32 32 34 33 26 24 26 25 24 23 23 24 24 24 22 19 15 16 17 21 20 18 14 17 22 21 16 9 11 14
17 19 21 23 25 28 28 28 29 34 36 35 35 33 30 29 29 26 26 27 29 26 22 23 22 23 21 19 17 17 16 17 18 19 9 14 18 17 15 11 11 19 18

GFSMA_850_spd_072.txt.gz
Wind_Speed
17 17 16 14 12 10 8 5 3 1 3 5 8 9 11 11 10 7 6 9 9 5 3 6 10 12 14 14 12 11 9 13 9 17 13 14 11 12 15 13 13 13 13
16 14 13 12 11 9 8 4 2 1 4 6 9 9 8 9 9 7 5 9 8 5 4 6 7 7 9 14 14 14 14 15 17 13 10 14 12 13 19 16 14 14 15
14 13 11 10 11 9 6 3 1 3 4 6 7 9 8 9 8 7 6 4 7 8 6 7 9 11 10 6 11 10 13 15 17 15 16 16 13 17 15 14 14 16 17
12 12 12 11 10 8 6 3 0 3 5 4 5 6 9 8 7 7 5 2 4 5 10 9 10 12 14 16 13 12 12 14 15 20 20 15 12 13 15 14 17 16 19
11 11 11 11 11 9 7 4 1 2 3 2 4 8 10 4 5 4 2 4 7 8 6 11 11 13 16 18 20 19 14 14 17 16 19 20 17 17 17 17 15 18 25
13 13 12 13 12 10 8 5 1 2 3 5 6 7 7 6 6 5 5 7 7 8 5 7 10 11 19 17 19 20 19 15 15 17 15 17 20 20 20 20 17 20 21
16 15 15 15 14 11 9 5 3 4 3 9 6 9 11 8 8 7 9 9 9 10 8 9 10 11 11 17 18 19 21 20 17 19 23 21 20 19 18 20 20 26 22
18 16 17 17 16 13 10 7 4 3 4 7 5 9 8 9 7 10 12 12 12 10 11 12 13 12 14 15 16 22 21 22 24 24 23 24 25 22 19 20 22 23 19
18 20 20 19 18 13 10 9 6 4 5 6 6 5 7 9 15 8 10 10 12 12 13 14 15 15 16 16 16 15 21 21 22 23 22 19 20 19 19 21 23 26 25
22 22 22 21 18 14 12 12 8 5 7 7 8 8 8 11 10 12 11 14 14 15 15 16 17 17 17 16 15 19 22 24 22 22 22 22 20 19 19 21 23 23 25
22 23 23 21 18 15 16 14 8 9 8 8 9 9 11 11 12 14 18 14 16 17 17 18 17 18 17 16 13 16 23 20 22 24 24 24 24 21 20 23 25 26 25
25 25 24 23 22 20 18 10 15 20 15 10 9 10 10 12 13 14 17 18 20 20 19 17 17 17 18 16 16 20 26 25 25 25 26 26 27 29 27 26 27 28 28
26 27 27 27 24 22 10 13 21 12 13 10 10 9 10 11 11 13 15 19 21 20 19 19 18 18 17 17 16 21 22 26 30 29 30 32 33 33 34 33 30 31 31
22 23 27 25 25 17 14 17 13 12 11 13 11 10 10 11 12 13 15 19 22 21 19 20 19 16 18 17 17 23 22 24 33 33 35 35 33 32 32 33 33 32 28
19 27 26 28 22 14 19 14 11 11 13 12 12 11 12 13 14 14 16 17 19 24 24 20 20 17 18 17 18 20 21 23 34 33 31 30 30 30 30 31 31 31 28
26 24 24 19 14 14 17 11 12 12 13 13 12 13 14 15 15 16 18 18 19 22 28 22 22 20 20 21 21 23 23 28 27 29 29 27 27 27 27 29 30 28 25
24 20 16 11 21 16 12 13 13 14 14 15 15 16 17 17 18 19 19 20 21 21 27 28 23 23 21 21 21 22 24 24 23 25 30 28 26 27 28 29 31 32 31
16 14 15 15 12 10 12 13 16 16 16 17 18 19 20 19 21 21 21 22 23 24 27 30 28 25 23 20 21 22 24 22 22 22 29 26 26 29 28 27 28 28 27
17 16 10 12 10 11 12 15 16 17 18 19 20 21 22 22 23 23 24 24 25 26 27 27 29 25 24 20 21 21 22 23 21 22 25 25 27 28 26 26 27 28 28
20 11 9 11 13 13 15 16 15 16 18 19 20 21 22 23 25 25 25 25 26 28 28 28 27 26 22 21 21 23 23 20 21 20 21 23 23 23 25 26 28 25 25
10 14 8 13 15 18 15 13 14 16 17 19 20 22 23 25 28 30 29 27 27 28 28 25 26 22 23 22 22 22 23 23 21 19 18 16 18 21 21 22 23 22 20
11 9 13 14 15 12 17 19 20 21 19 21 23 24 25 27 29 30 30 32 32 29 30 28 24 24 24 24 22 21 22 22 22 16 16 21 20 21 20 19 20 24 20
10 14 13 12 12 13 19 19 21 23 23 23 25 26 27 27 28 28 27 30 31 28 28 28 27 25 24 22 21 22 21 21 22 20 21 23 19 21 18 19 21 23 16
12 9 9 10 12 14 19 20 22 25 25 25 25 27 28 29 28 30 30 29 27 25 25 24 24 24 23 20 19 20 20 21 21 19 17 24 20 20 19 21 21 17 14
7 9 10 11 13 15 20 23 24 27 27 29 29 30 31 32 31 32 33 30 28 26 24 28 28 28 29 29 28 22 20 18 20 19 17 21 16 20 20 20 12 13 19
8 8 10 12 18 23 23 27 29 31 36 35 34 34 34 37 35 33 33 31 32 27 22 23 20 21 22 22 22 22 18 19 19 20 14 16 18 20 21 15 10 17 15

GFSMA_850_spd_075.txt.gz
Wind_Speed
16 15 15 13 13 13 10 8 5 4 2 1 3 4 5 7 6 4 11 10 8 3 4 7 10 11 13 14 12 11 11 12 11 15 15 13 17 15 16 19 17 15 15
17 16 19 15 12 10 9 8 6 4 4 1 4 5 5 3 5 2 1 12 9 5 4 6 8 8 11 14 15 13 13 15 17 14 13 19 18 13 16 18 19 16 16
17 15 15 13 12 14 14 10 8 4 3 2 2 4 4 5 3 3 1 1 10 11 11 8 11 12 13 12 11 9 10 13 16 18 17 20 17 16 16 18 15 17 18
14 15 13 14 15 11 10 9 7 6 4 2 1 2 3 3 2 2 1 2 1 3 12 13 12 11 14 16 17 15 11 11 11 18 21 17 19 18 18 17 18 18 15
16 14 14 15 13 12 11 9 8 6 3 1 2 3 5 4 4 4 4 3 5 5 4 11 13 13 13 16 17 19 19 17 14 13 16 16 18 18 18 17 18 17 17
16 15 14 14 13 12 11 10 8 5 4 4 4 7 7 5 6 5 6 7 8 9 8 8 9 11 16 20 20 18 17 17 15 15 17 18 16 16 17 16 21 20 17
18 16 13 14 14 12 12 11 9 6 3 4 4 6 9 13 7 7 8 9 9 10 11 10 11 9 10 16 19 20 19 18 19 18 17 20 22 20 21 21 20 23 19
19 16 15 14 15 13 14 12 9 7 5 5 2 7 8 7 9 9 9 9 11 11 11 12 12 13 13 13 14 20 24 23 19 20 20 22 24 24 20 20 20 22 24
20 19 17 16 16 14 13 13 10 7 5 5 5 3 6 6 13 12 7 10 10 12 12 13 14 14 15 15 15 16 21 21 22 22 23 23 22 22 20 20 20 21 22
22 19 18 17 18 14 13 12 9 7 6 3 7 8 9 10 8 10 10 13 14 13 13 15 15 16 16 15 16 18 24 26 25 23 24 25 26 24 21 21 21 22 24
23 20 19 19 17 15 15 13 15 9 6 13 11 9 11 12 13 16 19 16 15 15 15 16 18 18 17 17 16 21 24 25 26 30 27 26 27 28 28 26 25 26 27
26 25 21 20 18 16 19 20 14 13 16 14 9 10 11 12 14 16 19 18 18 18 17 17 18 18 16 16 18 23 29 30 28 26 27 28 30 30 30 30 28 28 28
26 24 23 22 21 23 20 15 12 12 14 11 10 11 12 13 14 15 15 18 20 19 19 19 19 21 20 19 19 23 28 32 30 30 31 31 33 34 34 32 31 29 27
25 22 25 23 21 21 21 11 11 13 13 13 12 13 13 13 14 14 15 17 22 22 20 20 18 19 19 18 22 25 28 30 27 30 35 37 36 33 31 29 29 28 26
24 21 22 23 22 28 22 11 11 12 11 12 12 13 14 13 14 15 16 16 18 24 25 21 22 20 22 23 22 22 22 20 28 35 38 35 30 28 27 28 28 29 27
21 23 24 25 32 21 17 15 18 10 12 14 13 14 15 15 16 16 17 18 19 23 29 25 25 24 24 24 24 24 23 28 32 29 33 35 33 28 27 28 28 29 29
26 27 27 24 16 11 17 17 11 12 14 17 16 16 17 17 18 19 20 21 22 24 29 31 29 28 28 28 29 27 26 25 27 29 29 32 36 32 30 28 27 27 28
26 21 14 15 15 17 11 12 13 13 16 18 17 18 18 19 21 22 23 24 26 26 29 33 34 32 31 29 31 25 22 24 28 27 28 33 34 29 29 25 24 25 27
14 6 15 15 9 12 7 12 14 15 17 18 18 19 20 21 23 25 26 27 29 30 30 32 35 33 32 30 30 27 24 25 24 27 26 26 26 29 31 24 24 26 24
15 7 16 12 11 10 13 14 15 15 16 17 18 19 21 22 24 26 27 30 31 31 31 32 34 32 30 33 29 30 26 24 24 21 24 25 27 25 24 25 26 26 27
10 13 16 7 5 10 13 15 12 13 16 17 19 20 22 24 28 31 33 36 33 33 32 32 34 30 32 30 27 24 23 22 23 21 23 23 22 20 22 22 22 23 18
12 9 8 10 10 13 16 19 19 20 19 19 21 22 24 26 28 31 33 33 33 35 37 35 36 35 34 30 24 20 20 21 25 22 22 24 20 23 22 20 21 26 29
9 6 8 10 11 11 16 19 19 20 21 20 22 24 26 26 29 30 32 35 36 36 35 34 32 31 32 27 23 23 22 23 24 22 21 25 24 24 22 21 21 26 30
7 9 8 8 8 9 17 21 21 22 23 22 23 25 28 31 32 32 34 35 36 37 32 30 30 27 26 25 21 19 18 19 23 23 21 27 23 23 22 20 22 24 24
7 6 6 7 8 9 16 22 26 26 25 26 25 26 28 33 35 36 39 39 39 41 35 32 35 35 34 29 29 31 30 25 28 25 20 22 21 20 20 23 18 20 17
7 7 7 7 11 14 15 23 27 29 29 28 27 24 27 29 32 34 36 38 43 37 35 31 26 30 30 33 30 30 31 27 24 25 19 19 16 17 23 21 10 18 22

GFSMA_850_spd_078.txt.gz
Wind_Speed
17 18 15 17 13 11 14 12 8 8 5 3 1 1 4 5 4 5 9 8 8 3 4 6 8 10 12 12 11 10 10 12 12 14 14 15 18 16 14 17 19 16 15
15 16 14 17 19 16 11 9 9 5 3 2 0 2 2 3 4 6 7 9 8 4 4 6 9 9 10 11 13 12 10 11 16 16 18 19 16 16 18 16 16 16 18
20 20 20 17 14 12 13 14 12 11 8 6 4 6 6 6 7 2 3 6 8 6 7 9 6 10 12 13 13 12 10 9 10 14 17 17 16 17 18 17 18 17 18
20 16 18 15 15 19 20 15 12 8 6 5 4 3 4 6 8 6 3 6 3 3 5 9 12 10 10 12 13 16 16 15 13 9 14 14 16 15 16 16 17 19 19
16 15 14 17 21 19 16 12 12 7 8 7 4 8 9 5 10 4 11 9 8 9 7 7 10 12 10 13 14 14 13 14 13 12 11 12 16 15 14 15 15 17 17
16 17 16 21 18 15 16 13 13 14 7 10 7 6 12 12 8 12 11 9 6 12 13 8 14 11 10 13 14 17 13 12 12 13 12 14 17 18 19 18 18 17 22
19 19 19 19 18 15 16 18 16 14 12 9 6 3 9 16 17 12 10 10 10 12 10 15 16 8 12 13 12 13 21 22 18 17 16 16 17 17 17 18 22 20 20
20 22 20 19 20 20 20 18 16 10 8 11 6 6 4 7 14 11 10 9 12 14 15 12 13 15 18 15 17 18 21 21 21 18 18 19 19 20 20 18 18 20 21
23 22 21 20 20 21 22 19 17 14 7 9 12 5 3 5 10 5 5 10 13 17 17 16 16 18 15 18 21 21 20 21 22 24 22 22 22 20 19 20 21 22 22
22 23 20 23 22 23 22 19 17 15 18 9 7 9 9 13 9 8 12 13 13 16 15 15 16 18 18 18 22 22 26 26 26 24 25 26 25 23 21 21 23 24 25
25 27 27 26 26 23 19 19 19 21 18 14 12 13 10 12 12 15 20 17 15 15 15 13 17 18 21 25 23 25 25 25 29 30 30 31 27 26 26 25 25 25 26
26 25 28 25 26 24 23 24 25 23 17 15 15 11 14 13 11 16 19 20 18 18 21 20 20 20 21 23 22 26 27 30 32 32 33 34 32 28 29 30 28 26 27
26 28 28 29 28 25 28 29 26 19 14 14 14 13 12 13 14 18 20 21 21 20 21 22 23 20 21 25 28 29 31 32 33 34 37 37 30 35 38 36 29 26 25
28 27 28 32 28 28 31 29 21 14 13 12 13 15 16 16 15 16 19 19 23 23 21 21 19 18 18 17 21 26 30 32 34 36 34 31 33 37 35 32 28 27 26
23 24 28 31 29 31 30 25 17 9 12 17 15 16 17 15 15 18 20 20 21 26 27 23 23 22 24 25 26 26 29 32 34 35 30 31 34 35 36 34 32 29 28
19 25 29 31 32 30 30 28 12 9 16 10 14 15 15 17 18 20 21 22 22 25 31 28 28 26 25 27 26 31 31 31 30 30 32 27 30 34 35 37 36 30 29
23 26 29 31 30 29 24 25 19 21 8 15 17 18 20 21 23 24 24 25 26 26 31 35 32 31 32 31 33 33 30 31 33 32 28 28 31 34 35 31 29 29 26
27 33 31 29 28 20 15 18 20 18 14 12 18 19 20 20 22 23 25 27 28 29 31 37 36 32 30 27 29 28 31 30 33 30 27 30 31 32 26 28 32 25 22
28 29 25 23 21 18 14 17 17 12 12 15 18 20 21 23 24 25 26 28 29 30 31 34 39 37 33 29 30 32 33 33 32 28 27 25 22 24 28 28 26 23 25
25 23 11 13 18 21 13 15 10 13 18 19 17 19 22 25 27 27 28 29 29 30 31 32 34 33 31 32 32 33 38 34 33 26 25 25 24 26 26 24 22 24 27
21 16 9 15 18 16 11 10 16 20 20 19 21 23 23 21 24 27 30 34 35 37 38 40 41 42 37 35 35 35 31 34 24 19 21 21 26 23 21 21 22 24 25
20 11 12 15 13 8 11 18 21 22 22 23 23 22 23 24 27 27 29 32 33 33 37 40 40 38 37 37 34 33 30 21 20 17 20 22 21 24 25 27 24 23 26
16 14 13 12 12 15 17 20 20 20 21 21 22 23 24 25 25 29 31 32 33 33 33 35 38 39 38 36 32 28 26 21 21 22 21 27 28 31 32 24 22 24 25
16 13 10 14 17 14 13 17 20 20 22 23 23 23 26 29 30 30 35 39 42 43 39 32 34 36 37 33 26 25 26 24 23 26 27 33 34 29 22 21 22 24 25
11 14 14 11 10 13 15 17 20 23 25 27 29 30 29 29 30 31 35 38 40 41 40 42 40 38 37 38 32 32 31 27 34 38 33 28 25 23 23 22 21 21 23
12 11 12 15 15 17 19 21 24 26 28 29 27 27 26 27 28 26 27 31 37 38 37 34 34 35 30 29 27 30 30 32 34 33 26 22 22 21 24 22 17 13 21

GFSMA_850_spd_081.txt.gz
Wind_Speed
22 20 19 18 18 18 18 14 9 8 10 9 4 3 4 2 3 3 5 6 6 3 3 5 9 10 12 10 9 8 9 12 12 12 14 14 13 14 17 15 15 15 17
19 18 17 18 18 17 14 10 10 9 7 5 2 1 2 1 2 4 5 5 5 3 2 4 7 8 10 12 13 11 9 8 11 14 14 14 13 15 16 15 16 16 17
16 20 19 20 16 15 13 12 10 8 6 4 2 1 1 3 2 6 7 6 6 6 5 6 4 7 10 12 13 14 14 11 7 8 11 13 11 11 14 14 15 17 19
19 16 15 19 20 19 15 12 10 10 8 5 3 1 3 7 7 6 6 7 10 10 11 10 10 9 10 8 8 11 12 12 11 10 7 8 14 15 11 14 13 13 15
18 19 21 20 22 19 17 14 14 13 10 8 7 5 7 9 7 7 7 9 11 12 10 10 11 11 15 10 10 13 13 10 9 9 8 9 11 11 12 13 14 14 15
19 21 20 23 21 19 20 20 17 14 11 13 11 9 9 8 10 10 10 11 9 11 11 14 13 13 15 11 13 18 14 13 14 12 13 13 14 16 17 17 16 16 17
20 22 22 21 20 20 21 18 18 18 18 16 14 11 8 10 15 14 13 10 10 13 15 15 16 18 16 14 19 18 19 19 12 15 17 15 16 17 16 15 16 17 18
24 25 23 21 20 21 19 20 21 21 20 17 12 9 4 6 11 16 11 12 10 15 16 17 18 17 17 20 23 19 23 24 23 22 23 23 21 20 17 16 17 17 18
25 25 26 24 23 24 23 21 21 21 20 16 14 11 5 5 9 10 11 11 12 15 17 17 17 16 17 19 20 23 25 27 29 27 24 23 25 27 25 18 19 20 21
24 25 27 27 25 26 26 25 21 22 21 20 18 13 10 11 9 7 10 7 9 14 14 14 15 15 16 19 23 25 27 31 31 31 28 29 28 30 31 27 21 22 23
32 29 29 29 26 28 28 26 23 26 26 22 19 14 14 15 13 12 16 16 11 11 12 10 13 11 13 16 22 27 30 32 32 33 32 32 31 30 32 26 27 25 26
26 28 32 33 29 28 29 28 26 27 27 24 20 17 17 16 16 16 17 20 22 23 23 23 22 21 21 23 26 27 30 33 32 32 33 33 33 31 32 32 34 29 27
28 27 32 35 33 32 31 29 30 29 26 25 22 18 16 16 16 17 20 22 25 22 22 22 24 27 26 20 23 21 26 30 32 32 32 33 34 34 33 33 34 32 30
25 25 28 33 33 33 33 34 33 32 28 26 21 19 14 13 17 21 23 21 22 25 25 26 27 24 21 25 27 28 26 27 29 31 32 33 33 31 31 31 32 33 32
28 26 27 31 33 35 35 37 32 27 24 20 15 15 17 17 15 18 20 21 23 26 30 31 30 25 26 27 26 26 31 33 34 33 34 35 33 33 31 30 29 31 34
28 24 26 30 34 35 35 29 21 25 17 13 16 21 16 16 15 16 16 20 22 25 32 31 32 32 30 29 27 31 31 34 36 35 29 28 35 33 28 28 29 30 28
25 24 27 29 32 39 29 31 30 29 21 26 25 19 17 17 19 19 20 22 24 26 33 37 36 34 34 33 30 29 31 32 30 26 31 29 31 33 25 26 27 27 27
24 22 21 26 32 34 30 32 29 21 26 21 21 16 19 20 20 20 20 22 24 25 30 37 36 34 32 31 29 29 27 22 29 32 33 33 32 27 25 25 25 25 22
25 25 22 29 29 34 31 26 21 19 18 18 15 16 18 20 21 23 25 26 27 28 30 34 37 36 37 32 31 32 36 38 40 40 39 32 28 25 22 23 26 24 20
27 22 23 30 31 28 23 22 17 17 15 11 14 18 21 23 24 25 26 25 26 29 31 35 39 42 42 41 40 39 41 38 35 34 31 27 27 27 25 25 23 21 21
28 28 25 26 23 23 23 17 16 15 15 19 23 24 24 25 26 26 25 27 28 30 31 34 36 37 40 40 40 41 38 35 35 33 30 23 17 17 22 24 23 23 25
27 28 24 19 21 20 16 15 16 16 21 24 24 24 25 25 25 25 25 26 28 31 33 33 35 34 38 37 37 38 36 32 31 32 27 17 21 24 23 25 29 27 27
27 26 18 18 19 17 14 14 16 20 22 24 24 23 24 25 26 27 29 31 33 34 35 38 42 42 40 38 37 33 34 33 29 28 24 26 25 27 28 31 31 19 18
26 18 16 15 13 12 15 20 23 22 22 22 22 24 24 26 28 31 34 35 35 36 36 35 34 36 36 38 42 39 36 33 28 27 25 26 29 32 28 24 18 15 18
19 17 14 15 18 21 21 21 21 22 22 22 24 26 27 27 25 27 31 33 34 34 30 29 31 32 31 30 28 28 29 34 32 29 27 30 30 27 23 22 20 20 21
17 17 19 21 20 20 20 21 22 22 23 25 26 24 23 23 25 25 26 29 33 34 32 32 32 30 29 30 31 29 30 34 26 30 26 23 21 17 21 23 17 15 17

GFSMA_850_spd_084.txt.gz
Wind_Speed
27 29 26 24 22 20 18 15 12 10 7 4 3 4 3 2 1 3 3 4 4 2 2 6 9 10 10 9 8 8 9 10 11 13 13 14 14 16 17 16 16 16 17
29 26 25 23 21 19 17 14 11 9 8 6 7 5 3 1 1 3 4 3 3 3 3 5 6 7 10 13 13 12 10 8 7 6 9 12 12 12 15 15 17 17 17
26 23 22 20 20 19 17 15 13 12 9 9 6 4 2 1 4 4 4 5 5 5 5 8 6 6 8 9 12 11 10 10 7 5 6 10 10 12 12 11 12 11 12
23 22 22 20 20 20 16 14 15 12 11 9 7 3 1 3 4 4 4 6 7 8 8 8 8 8 9 13 9 9 10 9 7 5 4 4 6 9 10 9 11 13 13
22 22 20 21 21 19 16 17 14 11 10 11 7 5 3 3 5 5 5 7 9 9 10 8 11 10 12 13 10 11 13 10 8 9 9 10 12 13 17 16 13 13 14
21 23 20 17 18 20 20 19 15 13 13 12 11 9 9 7 7 8 9 9 10 12 11 10 12 12 15 14 11 15 17 14 13 13 13 15 16 17 18 18 17 14 15
23 20 19 21 24 24 23 22 20 19 18 17 15 13 13 12 12 13 14 12 13 13 12 13 14 13 15 15 15 15 18 18 17 19 21 20 17 18 20 20 21 18 17
21 20 24 23 27 27 26 26 25 25 23 22 22 18 12 15 15 17 17 15 14 15 15 15 16 16 15 14 17 18 17 20 22 24 25 23 20 22 22 24 26 24 18
27 24 25 26 27 29 29 28 27 27 25 26 25 19 10 10 12 14 18 18 16 15 15 15 18 19 18 16 18 20 19 20 22 26 28 27 26 26 27 28 30 29 28
28 26 28 30 29 31 29 28 28 27 27 29 28 26 23 16 11 10 15 15 17 18 19 18 18 18 19 19 20 21 21 22 24 27 28 30 31 30 30 29 31 32 30
29 27 30 31 34 32 30 29 30 29 29 31 31 28 25 21 17 17 13 17 18 17 19 19 18 19 19 18 18 17 20 24 25 27 29 30 30 32 32 31 33 32 30
32 33 33 35 34 34 33 30 31 31 31 32 31 29 26 22 20 19 18 20 19 19 20 20 21 20 19 21 22 22 21 22 24 27 29 29 30 31 31 32 33 32 30
38 36 34 36 38 37 34 32 32 34 33 33 28 26 25 24 24 21 20 21 23 22 23 23 21 21 21 23 22 22 23 25 25 24 26 30 30 29 31 32 31 31 29
36 37 36 36 39 38 35 33 36 36 33 32 29 25 26 23 20 16 21 24 23 24 23 24 23 23 22 21 20 20 24 25 24 26 28 29 30 31 29 30 31 29 29
33 32 33 31 33 38 38 37 37 37 36 37 28 27 29 22 21 23 20 20 22 23 25 25 25 22 22 23 24 26 28 28 29 29 31 35 36 32 30 30 32 31 28
36 33 32 30 31 38 39 37 38 39 35 29 27 30 26 23 23 22 20 18 20 22 28 26 27 27 25 26 26 28 30 30 31 30 32 31 30 28 28 32 31 28 26
38 33 34 34 35 36 35 36 41 34 34 33 31 28 25 26 21 16 16 20 22 23 28 30 30 29 30 29 29 28 28 31 32 32 32 30 32 37 39 34 34 26 26
36 35 35 29 29 33 37 35 39 37 35 33 28 26 22 19 17 17 21 22 23 23 28 33 34 33 34 34 35 34 33 33 31 31 34 34 33 34 34 34 30 26 26
36 36 29 21 25 26 33 32 35 36 34 28 25 20 19 17 19 22 22 23 24 27 29 33 35 34 34 33 34 36 37 36 37 36 35 36 34 33 28 31 32 27 24
34 32 27 25 26 28 34 33 39 29 24 21 18 16 18 20 21 23 25 26 28 30 30 32 35 36 35 35 35 37 38 34 34 35 39 34 32 29 27 28 27 25 26
35 29 32 32 26 29 35 37 29 24 21 19 19 20 19 21 24 25 26 28 29 31 33 36 37 38 40 39 37 36 37 38 38 38 38 30 33 27 25 25 20 25 27
33 30 33 28 28 31 30 22 22 20 20 19 20 19 23 25 26 28 30 29 29 31 33 36 38 39 41 41 42 38 34 34 38 33 28 29 25 21 20 22 26 25 27
30 30 29 27 28 27 25 23 20 19 18 19 21 24 25 28 29 29 28 28 30 32 34 38 40 39 39 35 33 33 33 33 35 40 32 32 27 24 23 23 24 28 29
33 32 30 26 22 23 23 20 19 19 20 21 23 24 25 25 26 28 32 33 33 32 31 31 33 33 32 31 30 31 31 33 34 32 28 33 30 26 21 24 24 22 19
29 28 21 22 24 21 19 17 19 20 22 22 22 23 23 26 29 29 30 30 30 30 28 28 28 29 30 29 27 28 31 29 32 36 30 30 29 24 25 23 21 18 18
26 24 22 20 18 18 18 21 20 21 21 21 22 23 25 26 25 23 25 27 29 28 28 28 29 28 26 26 24 25 25 27 27 27 28 30 24 24 23 21 15 12 11

GFSMA_850_spd_087.txt.gz
Wind_Speed
37 34 28 29 25 22 20 18 15 14 12 8 5 4 3 2 1 2 3 4 3 4 4 5 9 10 9 9 9 8 7 9 10 6 10 12 13 14 15 16 16 16 16
35 33 30 28 23 22 19 16 15 12 10 6 6 6 4 2 1 1 1 3 2 3 2 5 7 8 11 11 12 9 7 6 4 4 7 9 7 8 8 7 9 9 10
33 30 30 28 23 23 20 17 14 12 11 10 9 6 4 4 1 1 1 2 2 1 2 5 5 6 6 9 11 8 8 8 6 4 1 2 4 7 7 6 7 11 12
29 28 27 24 23 23 20 17 13 12 12 11 8 7 6 2 1 1 0 0 1 2 4 5 3 5 5 9 8 6 10 10 7 6 6 6 9 10 11 12 15 15 13
25 24 24 24 23 22 20 17 15 14 15 12 10 8 6 3 2 2 3 3 3 4 5 5 5 5 7 7 7 6 10 9 9 8 9 10 13 14 14 15 17 17 17
23 23 23 23 21 21 21 19 16 16 13 11 12 10 9 8 8 6 7 8 8 8 8 7 7 8 9 8 9 10 11 10 11 11 13 14 14 15 14 15 16 17 18
26 21 22 22 22 23 24 19 19 18 17 17 15 15 14 14 13 13 13 13 13 12 12 11 10 10 11 9 10 10 12 13 14 15 18 17 17 16 16 18 20 21 22
29 22 21 23 25 25 22 23 23 23 20 20 21 17 12 18 19 19 19 19 16 16 16 14 12 12 13 13 12 12 12 13 13 18 19 19 21 21 22 22 23 24 26
32 28 24 27 28 25 27 26 27 26 25 25 24 19 10 12 13 21 22 22 21 20 20 18 16 16 16 15 14 15 16 17 16 19 18 20 22 23 24 25 27 28 29
35 30 26 27 27 28 27 27 28 29 29 29 28 30 27 17 11 9 16 19 22 26 24 21 20 20 20 20 19 19 20 19 18 20 20 20 23 24 26 27 28 30 32
34 30 29 28 27 27 28 30 31 32 31 32 32 32 33 32 28 23 17 18 19 20 19 20 21 21 23 23 21 22 21 19 18 20 20 21 23 25 27 28 28 30 32
35 35 34 33 32 32 33 32 35 34 32 34 33 33 34 32 30 27 23 22 20 21 20 18 19 21 23 23 23 23 22 20 18 17 18 20 22 24 27 28 29 31 33
40 41 39 39 37 35 34 34 36 34 34 36 35 35 36 33 32 21 23 23 22 21 20 20 20 20 21 20 21 21 20 20 20 22 20 20 22 23 26 29 32 29 25
42 41 40 39 38 37 37 36 36 36 35 38 40 38 38 37 31 30 30 24 22 23 26 25 23 22 21 20 20 19 20 20 21 22 21 23 23 25 27 31 32 29 27
40 37 35 39 40 39 39 38 40 39 39 39 41 33 38 33 27 31 32 27 26 23 25 26 23 22 20 20 21 21 22 23 24 25 23 25 25 28 30 32 31 35 33
38 38 38 38 42 42 41 40 42 38 42 41 41 34 35 32 27 29 29 30 26 24 25 24 23 22 22 23 24 25 26 27 27 28 28 28 29 33 34 35 35 36 36
43 42 44 45 41 41 40 38 40 40 41 39 44 34 32 33 29 28 27 25 22 20 26 26 26 25 26 28 28 28 30 31 30 28 30 31 31 32 32 34 37 37 36
48 46 43 47 39 39 38 40 41 40 38 38 40 37 34 33 29 26 23 23 22 22 27 30 27 28 29 29 31 32 33 33 33 32 33 33 31 33 33 36 35 36 35
46 46 28 39 40 38 38 38 36 37 36 36 37 36 34 28 27 24 23 23 23 25 27 31 32 33 33 33 34 35 35 35 35 34 33 32 32 34 36 37 35 32 30
40 26 34 36 37 37 32 34 36 39 42 39 38 33 28 26 23 21 23 24 25 27 30 32 33 34 34 35 36 37 38 38 39 35 35 33 36 36 39 34 33 31 32
40 39 34 34 32 39 34 33 33 37 43 40 34 29 23 22 22 24 25 25 27 28 30 33 34 35 36 36 36 37 40 42 42 37 36 34 33 33 30 31 30 29 28
38 39 33 31 34 40 38 34 34 38 35 22 23 22 21 20 22 24 25 26 29 30 31 32 34 35 37 37 38 36 36 36 39 35 33 33 24 29 26 29 24 22 22
30 29 28 31 36 39 39 32 33 30 28 26 22 20 19 22 23 25 26 27 28 28 31 33 35 35 36 34 34 34 31 32 35 33 29 36 31 29 25 26 22 25 23
21 24 29 34 35 30 30 27 24 19 18 18 16 19 21 23 25 25 26 26 28 29 29 29 30 32 32 30 28 28 30 32 33 32 26 32 31 31 27 26 22 27 26
20 24 28 31 24 23 20 21 21 21 18 18 18 21 25 23 23 25 26 27 27 26 26 27 28 29 29 26 26 27 28 29 34 35 28 27 30 28 29 27 22 24 24
20 19 18 18 19 19 18 18 17 14 18 18 19 18 18 20 22 23 23 24 25 26 26 27 27 28 28 27 24 21 25 26 27 31 26 19 24 24 26 24 23 20 20

GFSMA_850_spd_090.txt.gz
Wind_Speed
43 40 35 31 27 24 21 19 15 14 13 8 7 7 7 5 5 5 4 5 6 5 5 7 8 7 7 6 7 6 8 8 6 7 9 9 8 8 9 9 9 9 12
42 38 35 31 27 24 21 18 15 14 11 8 8 8 6 5 4 4 3 4 5 4 3 5 6 6 6 6 8 7 6 5 3 5 5 4 4 6 4 5 9 10 11
41 39 33 29 19 24 22 18 16 13 12 10 9 8 6 6 5 4 4 4 3 3 2 4 3 3 5 8 7 5 6 7 5 3 1 1 4 8 10 10 12 13 13
38 36 35 31 31 27 24 19 18 13 12 10 10 9 9 6 4 5 6 4 2 2 1 1 1 1 3 6 6 5 7 8 5 5 5 6 7 9 10 10 10 11 12
35 34 33 29 27 27 24 21 17 13 13 12 11 11 10 7 6 5 5 4 4 4 3 2 3 2 3 5 5 4 7 6 6 5 7 9 10 10 9 10 10 12 13
37 33 30 28 27 26 24 21 16 14 14 12 13 13 12 10 10 8 7 8 7 7 7 6 6 6 5 5 6 5 6 6 6 6 8 11 12 13 12 12 12 14 15
30 29 28 27 25 27 25 21 17 18 19 18 15 16 15 15 14 14 13 12 13 12 11 11 10 10 9 7 7 6 7 8 9 8 11 15 13 14 14 15 16 17 19
30 29 27 26 27 26 25 23 21 23 21 20 20 18 14 20 20 20 19 19 17 17 16 15 14 13 12 11 10 9 8 9 10 10 12 17 18 17 16 18 20 22 23
32 33 32 27 27 25 25 25 26 25 25 24 23 20 11 15 16 24 25 25 23 21 20 19 19 18 17 16 16 15 13 13 14 14 15 15 16 18 19 19 21 22 22
35 35 30 26 26 26 26 29 30 28 27 28 26 28 30 20 14 10 20 24 24 24 23 23 22 22 22 21 20 19 19 19 20 20 18 17 17 19 20 19 18 19 22
34 34 32 30 27 26 28 31 32 33 33 32 31 31 32 34 31 24 14 16 20 21 24 25 25 24 23 22 22 21 21 20 20 20 21 21 20 20 22 22 21 20 20
40 35 33 34 31 31 29 29 30 32 34 35 34 35 36 37 34 32 28 28 23 18 18 21 22 21 18 19 20 20 21 23 23 22 22 21 21 21 21 23 24 23 23
41 40 39 39 37 33 31 31 33 35 37 38 37 36 37 38 36 34 35 34 30 26 26 23 23 22 20 21 21 21 22 22 20 19 20 20 20 20 20 21 24 25 26
45 42 40 40 39 37 36 37 37 38 38 39 39 37 38 38 40 36 35 33 29 29 26 27 24 23 19 18 21 21 19 19 19 20 20 22 21 22 23 22 24 26 28
43 43 42 43 41 42 42 41 42 41 39 40 38 37 39 40 40 36 36 31 28 27 27 28 27 25 20 19 18 19 20 20 20 20 22 23 23 24 27 27 28 31 32
42 42 43 43 44 45 43 42 43 41 40 39 40 42 43 44 40 33 34 31 28 28 28 28 25 22 20 20 19 21 23 23 23 23 24 25 24 27 27 30 30 31 32
40 43 44 44 45 45 43 42 40 41 39 40 44 45 44 39 37 35 36 33 28 29 32 29 24 21 22 23 24 25 26 27 28 27 27 27 29 29 30 32 30 31 32
42 44 44 45 48 44 46 40 39 30 34 43 44 44 44 41 38 37 38 33 29 29 27 25 24 24 26 25 26 29 29 28 29 29 30 31 32 32 31 32 33 33 32
44 44 45 45 45 43 48 44 35 44 50 50 45 45 41 39 38 42 36 30 29 27 25 27 28 26 26 27 29 30 30 31 31 31 33 35 34 34 34 35 34 36 35
46 46 44 31 41 40 38 40 39 44 47 49 43 41 42 42 38 37 32 30 27 25 25 27 26 27 28 28 30 32 33 34 35 34 34 33 32 31 31 34 37 38 37
43 42 42 43 42 38 33 32 36 39 38 38 39 41 42 36 33 31 28 25 23 22 24 26 28 29 30 29 29 32 36 36 36 33 32 30 29 28 28 28 32 33 30
41 39 37 36 40 39 36 36 33 36 38 38 38 38 36 33 24 20 21 23 23 22 25 27 28 29 29 29 31 31 31 31 35 34 31 35 31 31 28 26 27 29 26
30 28 26 32 32 34 35 33 35 39 41 36 31 30 30 28 26 23 24 20 22 24 26 27 28 27 29 28 28 28 27 28 31 33 32 38 34 34 27 25 22 22 25
20 25 25 26 30 32 32 30 27 25 23 22 21 20 20 19 19 19 21 25 22 23 25 25 26 25 25 23 23 24 25 29 32 33 28 34 33 34 29 25 22 24 26
19 21 24 21 21 20 21 19 18 20 20 19 18 23 21 20 20 21 20 19 20 21 21 22 22 23 20 21 21 24 25 24 32 33 29 30 33 27 26 26 22 21 23
15 14 13 14 14 15 15 16 17 18 21 20 18 17 16 17 17 15 15 17 18 20 19 19 19 20 21 21 21 21 22 22 26 31 19 17 27 27 27 29 21 13 19

GFSMA_850_spd_093.txt.gz
Wind_Speed
44 42 39 34 30 26 24 23 20 20 15 14 11 10 8 7 8 9 10 7 8 8 8 8 7 7 6 7 7 7 7 6 6 6 7 6 7 8 8 9 9 9 9
44 42 38 34 30 27 24 20 18 17 14 12 12 11 8 7 7 8 9 9 6 5 5 5 5 5 4 5 5 5 5 3 2 4 4 4 6 7 7 7 8 8 8
45 43 38 35 32 27 23 20 19 18 15 13 12 11 9 7 8 6 8 9 8 7 5 3 2 1 2 4 3 3 3 3 1 1 0 3 4 6 8 8 9 8 9
46 42 39 36 33 28 25 21 20 19 15 12 12 11 10 10 8 9 10 9 8 8 6 3 3 2 1 2 1 1 1 2 2 1 1 3 4 5 6 6 6 7 9
44 41 40 38 34 33 28 22 22 18 16 15 14 13 13 11 9 10 10 9 9 8 7 5 5 4 3 2 1 1 1 0 0 1 1 2 4 5 5 6 8 9 10
42 42 40 37 35 31 28 23 22 19 17 15 15 16 15 14 12 12 11 12 11 9 9 9 8 7 6 5 4 3 4 3 4 4 5 5 7 7 8 8 9 10 12
37 38 34 31 30 30 26 24 23 20 20 19 18 18 18 18 17 17 16 15 15 14 12 12 11 11 10 9 9 8 7 7 7 8 9 10 10 10 10 10 12 13 14
34 31 29 30 29 28 24 24 25 24 23 21 21 20 16 21 24 23 22 21 19 18 18 17 17 15 15 14 14 12 11 10 11 11 11 15 17 17 15 13 13 13 14
39 34 33 28 26 26 26 28 27 25 25 24 26 18 11 12 16 26 29 26 24 24 23 22 21 20 20 19 18 18 16 14 14 15 14 17 19 19 17 20 18 15 14
40 37 27 26 30 27 31 29 29 29 28 28 29 30 29 19 11 8 17 24 29 30 27 26 26 25 23 23 22 21 21 20 20 19 20 19 18 17 18 21 20 20 18
37 34 37 34 30 32 33 33 32 31 31 33 33 35 34 34 32 26 19 18 19 21 22 27 29 27 26 26 26 24 23 23 24 24 24 25 25 22 21 21 24 23 22
42 38 37 36 36 34 31 31 30 30 33 36 37 38 39 37 36 33 28 32 27 29 32 28 27 26 26 26 26 23 23 24 25 25 26 28 29 29 28 25 23 25 25
40 38 38 37 38 36 35 32 30 31 32 33 37 40 40 43 42 38 31 33 33 33 30 29 28 27 27 26 25 26 27 24 26 26 27 26 26 26 27 27 26 25 26
42 46 40 37 37 37 36 36 35 35 36 37 39 40 41 44 44 42 39 38 31 31 34 34 31 30 30 25 27 27 25 24 25 24 24 24 24 24 25 25 26 26 26
43 50 46 44 40 38 39 39 40 41 42 43 45 43 43 46 44 45 42 40 34 26 34 33 30 29 25 26 25 24 21 24 23 22 23 23 24 25 26 26 28 30 31
43 45 46 45 45 44 43 43 44 44 46 46 46 45 43 44 44 45 44 41 29 34 33 31 27 27 25 25 23 23 24 24 24 23 25 25 27 27 29 29 31 31 31
38 39 40 41 42 43 43 43 44 46 47 47 47 46 41 37 42 44 48 39 38 37 39 37 30 27 27 24 22 24 25 26 26 26 27 28 28 29 30 32 33 33 33
36 35 35 36 38 40 42 43 45 51 55 54 52 39 32 43 46 47 49 39 40 40 41 41 34 31 27 22 24 27 27 28 29 29 28 29 30 31 33 34 34 35 35
34 34 36 38 40 43 44 41 44 38 44 47 43 35 45 44 52 51 48 44 43 46 45 39 35 29 26 26 25 27 28 30 31 31 31 32 33 33 34 35 35 36 36
37 38 39 39 40 42 39 41 41 42 40 40 41 44 42 49 55 59 44 45 46 44 40 35 30 28 25 25 25 26 29 30 32 32 32 33 32 31 30 30 32 33 34
35 35 36 39 37 36 36 40 45 50 39 38 40 42 42 41 43 44 43 46 42 36 32 31 28 27 25 24 27 24 29 29 31 32 29 27 25 26 27 29 29 30 31
34 34 32 30 31 31 31 28 34 37 36 39 37 40 42 40 37 36 34 32 30 26 26 29 30 27 24 24 23 26 28 27 19 21 24 25 27 29 28 25 25 27 29
21 22 22 25 25 28 32 33 30 32 34 33 36 37 34 32 26 23 23 25 26 28 30 28 24 22 22 21 22 24 23 24 22 19 22 28 25 28 26 24 24 26 28
17 19 24 28 27 27 27 26 26 24 24 25 25 23 23 24 23 24 22 20 19 18 17 18 18 18 18 20 22 22 22 24 25 24 21 27 22 23 24 25 23 22 24
18 20 19 15 18 20 19 22 20 17 19 20 17 17 16 17 17 19 18 14 14 14 12 10 14 19 21 18 17 20 22 20 22 20 17 22 23 22 20 23 23 21 21
8 8 10 11 10 12 13 13 10 12 14 15 15 13 9 8 8 9 11 9 9 10 12 14 17 19 20 20 20 19 23 26 21 23 12 15 18 17 24 19 17 14 19

GFSMA_850_spd_099.txt.gz
Wind_Speed
42 34 37 35 29 27 31 25 20 17 14 13 12 13 11 11 11 9 11 11 11 10 10 9 8 7 6 6 5 5 6 5 5 5 5 5 5 5 5 3 4 4 4
39 37 34 32 27 27 26 23 20 18 16 14 14 12 11 10 11 10 11 13 12 11 9 8 7 6 4 4 4 4 3 3 2 3 4 3 2 2 1 1 2 3 4
41 41 35 33 28 27 26 24 20 17 17 14 12 12 11 11 11 11 10 11 13 12 10 10 10 5 3 3 3 4 2 2 3 4 4 3 2 1 3 4 4 4 4
40 43 36 33 29 28 26 23 22 20 17 15 14 12 11 11 12 12 11 11 11 11 12 11 10 8 8 6 6 5 6 6 7 6 5 5 4 5 5 5 5 6 6
40 41 34 34 33 25 26 24 22 21 18 16 14 12 11 11 12 11 13 14 14 13 13 14 12 12 12 10 9 9 9 9 10 9 8 8 8 8 7 7 7 8 8
43 43 34 30 27 25 25 24 23 19 17 16 13 12 11 12 10 13 14 15 15 17 17 19 19 18 16 15 14 13 12 12 12 12 12 12 12 10 9 9 10 11 11
49 39 34 31 30 26 29 25 23 21 16 15 14 12 10 11 14 14 15 16 19 19 19 22 22 18 19 20 18 17 16 16 15 16 17 16 15 15 13 12 13 14 14
48 43 37 37 34 26 23 23 22 19 16 17 15 12 9 11 16 21 19 22 22 22 22 23 22 22 21 23 23 23 22 20 21 20 21 20 19 19 19 16 15 16 17
51 46 39 37 34 25 27 28 25 20 16 17 17 9 8 9 11 18 21 26 23 24 23 25 26 26 25 26 26 24 25 25 25 24 24 24 23 23 22 21 21 21 20
44 45 34 36 34 29 26 26 23 22 17 12 17 21 17 11 5 5 14 17 24 27 28 27 26 30 30 31 30 32 31 29 30 29 28 29 28 26 27 26 25 23 22
44 43 38 37 33 31 23 24 24 24 21 18 17 16 22 26 27 19 15 14 19 23 27 28 31 30 34 37 39 37 37 39 36 33 32 33 32 31 31 32 29 28 27
43 43 41 41 37 32 28 25 22 22 23 24 24 19 18 16 21 23 25 29 28 27 29 29 32 36 39 45 45 42 42 43 42 39 37 37 36 36 37 34 32 31 31
37 41 39 37 33 31 27 26 23 27 30 29 29 30 29 30 31 29 30 31 35 35 41 44 46 49 49 50 50 49 47 44 44 43 41 41 41 41 41 41 40 37 35
38 39 36 36 40 36 32 27 35 38 33 31 31 31 31 28 31 32 32 34 37 38 40 49 51 52 48 47 52 53 49 45 46 47 45 44 44 44 42 43 42 40 40
33 38 40 42 42 43 39 44 37 39 42 41 37 32 33 34 32 31 32 39 40 36 43 41 44 50 49 47 48 47 51 44 47 48 47 46 44 45 44 44 43 41 40
29 30 37 39 39 37 36 37 42 39 38 37 35 36 33 32 35 36 38 41 44 47 53 47 52 47 48 45 45 48 47 48 51 50 50 48 46 45 44 42 40 40 39
28 27 28 33 32 32 31 31 34 37 34 33 33 35 38 38 39 39 43 46 51 52 53 56 52 48 52 54 54 46 49 53 57 55 53 48 48 44 43 41 39 39 39
29 28 31 28 29 31 31 34 36 37 35 38 41 40 40 39 44 47 51 50 46 47 55 59 57 50 51 55 53 47 45 47 54 52 51 49 44 43 41 39 39 39 39
28 28 28 30 31 32 34 34 36 38 40 38 39 39 44 46 49 48 46 43 42 46 48 54 54 49 48 48 47 48 48 49 40 38 36 34 35 38 41 40 40 40 40
27 28 29 28 29 27 27 28 29 32 34 35 40 38 39 41 41 39 39 39 38 40 43 44 48 47 45 45 45 50 46 43 44 41 32 35 36 38 40 41 37 38 40
25 23 23 23 23 24 25 28 29 32 35 37 31 35 39 38 35 34 33 34 34 35 38 41 44 45 44 45 43 43 40 41 41 41 41 37 39 40 40 36 34 34 38
21 20 20 20 20 26 31 31 31 34 37 37 32 32 32 31 33 33 32 32 31 31 33 32 35 37 35 35 32 32 35 33 28 26 26 31 28 30 32 33 34 33 38
17 23 26 26 25 27 29 32 33 31 29 28 28 27 25 23 23 23 24 25 24 25 26 25 24 23 22 21 18 17 17 19 21 22 22 29 31 35 35 31 29 35 38
25 25 26 27 29 28 27 27 25 23 19 16 13 11 12 13 15 16 15 15 14 13 12 12 13 13 14 16 17 19 21 24 28 30 28 32 32 33 31 33 34 38 39
22 22 20 18 16 15 14 12 9 6 6 6 4 6 8 10 9 11 12 14 15 17 17 17 17 18 19 21 23 22 21 18 21 23 19 23 29 32 32 34 36 35 34
17 14 12 9 8 6 3 2 3 4 4 5 6 7 8 9 11 13 15 17 18 19 20 21 21 22 22 22 22 22 21 23 23 24 16 20 22 19 21 19 20 26 28

GFSMA_850_spd_102.txt.gz
Wind_Speed
41 37 36 38 37 36 34 31 26 21 17 17 13 16 15 13 12 9 13 12 11 11 11 11 10 8 6 6 7 6 6 5 6 6 6 7 6 5 5 4 3 2 1
40 37 39 38 39 36 34 31 25 24 19 16 17 19 16 12 10 8 12 13 12 11 11 11 8 6 5 4 4 5 5 5 5 6 6 5 5 4 4 4 3 2 2
40 38 41 37 37 35 33 30 24 23 21 18 17 17 17 15 12 10 6 7 13 12 11 10 7 7 6 5 5 5 5 6 5 6 6 5 6 6 6 5 4 4 5
42 39 40 37 34 29 29 27 25 24 21 18 18 19 17 18 14 12 10 6 7 13 14 11 7 8 9 8 8 7 8 7 6 7 8 8 8 8 7 6 7 7 8
39 39 39 35 35 32 30 28 28 24 23 20 18 16 16 15 16 17 10 10 11 12 12 12 12 13 12 12 12 11 10 10 11 11 10 11 11 10 10 10 10 10 10
42 44 39 34 35 36 32 29 27 24 22 21 15 17 16 14 15 15 17 14 14 17 16 14 13 16 16 16 16 15 14 15 15 15 15 15 14 14 14 13 13 13 14
45 44 43 37 32 33 33 25 27 26 21 20 18 17 15 14 15 17 18 21 21 20 19 20 21 20 20 22 21 19 19 19 19 19 20 19 18 18 18 17 17 15 17
47 50 47 40 37 28 26 29 28 27 21 21 18 20 13 15 23 22 20 21 23 23 25 24 26 26 25 23 21 21 24 24 24 23 23 24 22 22 23 22 21 20 19
51 52 49 41 39 37 31 33 31 30 25 24 22 15 11 10 10 13 17 22 24 26 26 26 26 30 29 27 27 26 27 28 30 29 29 29 28 27 27 26 25 25 23
52 51 47 39 43 37 34 33 32 27 26 27 28 26 14 9 8 5 12 14 17 24 27 28 29 29 30 31 32 33 33 34 35 34 35 36 35 32 31 30 30 30 28
53 51 47 42 42 33 34 34 27 33 25 23 23 22 23 21 19 16 8 14 16 18 22 25 27 30 33 34 34 36 37 39 42 41 39 40 41 39 37 34 33 32 31
47 50 45 44 36 34 33 31 30 28 31 27 22 19 21 20 21 21 26 30 28 30 30 28 30 30 31 36 38 42 41 45 44 46 47 46 44 44 42 40 37 36 37
42 46 44 42 39 40 29 33 32 28 29 26 22 23 24 27 25 24 23 29 29 30 31 33 36 38 41 42 47 50 51 51 52 49 50 51 50 50 48 46 45 44 42
39 45 48 47 40 32 33 37 31 29 26 27 26 32 37 31 29 31 32 33 35 36 38 40 39 40 43 48 50 50 48 50 50 52 51 55 55 55 55 53 52 51 49
40 41 44 44 36 36 37 33 28 26 26 29 33 34 34 36 34 33 34 34 35 31 33 36 35 41 44 48 51 50 51 47 44 47 53 53 54 55 57 58 55 55 53
37 33 40 40 39 39 35 40 36 36 36 38 39 39 42 42 42 38 38 39 39 43 42 45 52 51 47 48 53 53 52 46 45 45 50 55 51 53 56 59 59 57 55
29 34 38 40 41 40 41 43 44 41 39 39 41 41 38 38 37 38 40 41 43 47 51 51 51 47 46 47 47 49 48 50 49 52 56 52 53 55 55 58 58 55 50
29 30 30 34 39 38 42 42 39 38 35 34 36 35 37 36 36 38 40 45 48 48 50 53 49 47 46 42 44 46 48 46 49 46 52 55 56 51 50 54 53 47 50
26 27 27 25 25 29 33 35 36 37 36 35 35 34 35 36 37 38 41 44 51 50 47 46 41 42 42 40 41 43 44 46 47 48 50 51 50 44 46 50 51 50 51
28 30 30 29 31 30 30 32 33 33 32 32 32 34 35 37 41 42 43 37 24 28 32 35 36 38 39 40 40 42 43 43 44 42 43 41 40 41 43 47 52 50 46
29 29 29 27 26 26 29 31 28 26 28 28 29 31 33 35 42 31 30 29 28 28 29 28 29 30 32 32 32 32 33 34 35 37 40 41 45 46 47 43 43 45 47
25 23 23 26 28 29 31 28 27 28 31 33 35 31 28 28 23 30 28 26 22 23 21 20 21 22 24 24 25 26 26 26 27 31 33 37 39 42 40 39 40 39 38
27 28 28 27 27 28 30 30 29 32 36 31 24 19 15 15 13 11 14 17 18 17 17 15 16 16 16 17 17 18 18 19 20 22 25 30 28 32 34 37 38 39 38
28 28 27 27 28 28 28 27 25 23 23 14 7 2 2 6 8 10 12 13 12 13 13 13 13 14 15 16 18 19 21 22 24 24 25 31 30 34 35 35 35 33 30
28 25 22 20 16 13 12 14 9 5 4 4 4 5 6 8 9 10 11 13 15 15 15 16 17 17 18 19 21 22 22 23 25 24 22 28 27 30 28 28 28 27 29
25 21 19 14 12 11 10 10 8 6 5 6 6 6 8 9 10 12 13 14 14 14 15 15 16 16 17 17 16 16 15 16 18 19 8 20 26 28 27 26 22 19 19

GFSMA_850_spd_105.txt.gz
Wind_Speed
44 43 41 42 40 37 36 34 34 35 33 28 24 25 14 13 11 7 12 13 12 13 13 13 11 9 8 8 8 8 8 6 6 6 7 7 6 6 5 4 3 3 3
51 45 43 43 41 38 36 35 34 35 28 24 25 21 15 14 11 8 10 13 12 13 13 12 10 8 7 7 6 7 7 6 6 5 5 6 6 5 5 5 5 5 4
47 45 46 46 42 39 36 33 31 28 26 19 20 21 12 13 12 8 6 13 13 12 11 9 8 7 6 6 5 6 5 5 4 5 7 8 7 7 7 7 7 7 7
44 44 47 46 42 40 37 32 28 24 22 21 23 25 14 14 12 10 8 6 10 12 10 9 9 8 8 7 7 7 5 5 7 9 9 10 9 9 10 10 10 10 10
42 41 43 44 43 41 38 33 28 28 26 22 23 23 21 17 12 11 10 8 6 6 8 10 10 10 10 10 10 8 8 9 10 12 13 12 13 12 13 13 13 12 12
42 41 40 40 42 41 38 35 29 31 26 23 21 22 20 20 15 15 14 11 11 9 8 10 11 11 12 11 12 13 12 13 14 15 16 16 16 16 17 16 16 15 15
47 43 40 39 42 40 38 39 33 31 26 25 21 20 18 18 19 19 17 15 14 15 15 14 12 13 14 14 15 17 18 18 18 19 20 20 21 21 21 20 20 20 19
47 46 44 43 41 41 40 39 38 32 28 26 25 24 20 18 19 20 23 22 19 19 20 19 18 18 18 20 21 20 21 22 22 24 24 25 26 27 25 25 24 24 24
47 51 47 45 43 43 42 39 37 34 31 29 24 21 13 11 22 24 25 25 25 26 25 25 23 24 24 25 24 24 25 26 26 27 29 31 31 32 30 29 30 30 29
52 52 45 43 42 44 41 37 31 30 30 32 25 25 18 10 11 10 19 22 25 26 26 26 26 27 26 25 25 27 28 29 29 31 34 36 37 37 37 35 35 35 34
53 58 50 46 43 40 40 34 33 30 30 30 29 29 26 17 14 10 8 13 17 19 20 21 24 28 28 28 28 30 32 34 34 36 38 39 41 43 43 41 40 39 39
54 56 55 50 48 40 37 34 33 34 34 24 25 25 31 28 24 21 20 19 21 23 24 27 27 26 27 28 30 34 35 40 42 44 45 46 46 48 47 48 46 44 43
55 60 58 53 47 39 39 36 33 33 26 25 30 27 29 26 22 19 21 25 27 26 28 29 30 30 31 32 35 35 39 42 49 50 50 52 53 54 53 52 52 50 49
52 52 56 54 45 40 41 38 34 31 29 29 30 33 29 26 28 34 34 30 31 33 35 37 35 36 34 36 38 37 40 42 44 49 54 49 54 59 61 55 56 56 54
38 49 52 44 44 45 42 34 33 33 37 29 30 31 31 30 29 30 33 33 32 34 35 43 40 39 34 34 41 42 40 42 42 41 42 40 43 53 59 59 58 62 58
33 36 40 43 42 42 39 36 35 32 32 39 31 29 30 34 36 36 35 40 41 43 43 42 45 43 43 45 44 44 40 40 40 38 38 37 39 43 48 53 56 62 61
33 38 42 42 43 40 38 33 31 32 37 33 32 31 36 35 37 41 40 36 39 40 45 45 45 47 47 46 44 38 36 39 36 38 38 37 39 40 43 51 57 61 63
25 27 32 34 36 35 36 34 35 38 38 38 41 40 38 37 38 35 34 37 39 40 43 48 48 48 41 33 36 35 35 33 35 34 38 38 39 41 44 48 51 52 51
26 27 29 31 32 35 37 38 38 37 37 38 38 36 37 37 37 36 36 38 39 39 35 30 33 30 29 35 35 34 34 34 34 36 38 41 44 46 47 49 50 50 48
25 24 24 25 25 27 32 35 36 35 33 32 34 37 38 38 39 40 41 42 39 32 27 30 31 31 29 31 30 30 31 31 33 33 35 36 36 35 37 39 43 45 44
25 24 23 22 22 24 26 25 26 27 30 33 36 37 37 37 39 37 39 33 21 21 18 16 18 19 19 22 23 23 25 26 25 26 27 26 28 29 29 31 33 35 38
24 27 29 31 30 31 33 32 31 32 34 34 33 28 24 27 28 17 9 7 12 7 10 10 11 15 16 16 17 19 22 24 24 23 26 28 25 28 27 27 26 27 29
32 31 31 32 33 33 34 32 31 29 26 25 25 23 18 12 3 3 4 10 10 10 10 9 11 12 13 17 20 21 21 22 23 26 27 30 27 27 26 27 27 28 30
33 32 31 31 31 30 27 25 25 26 29 25 17 10 5 4 3 4 7 7 7 8 9 10 11 12 13 16 17 18 19 20 20 20 26 29 26 28 29 28 27 25 24
31 28 25 23 20 20 20 23 22 20 16 13 10 7 4 3 2 5 6 8 8 9 10 11 12 11 12 10 13 16 20 24 28 26 22 21 29 41 41 39 34 30 28
29 26 25 21 18 17 16 16 14 14 13 11 8 5 4 4 3 4 6 8 8 10 11 12 12 11 9 8 11 16 21 25 26 27 19 30 31 32 31 22 30 37 32

GFSMA_850_spd_108.txt.gz
Wind_Speed
45 45 46 39 38 39 40 43 40 38 35 24 19 18 17 13 7 5 11 12 11 12 12 13 12 10 9 9 9 8 7 6 6 5 6 5 5 4 4 4 3 4 4
44 44 46 41 43 42 41 40 39 40 38 26 22 18 15 13 9 5 6 10 11 11 12 12 11 10 9 8 8 7 6 6 5 5 6 6 6 5 5 6 6 7 8
47 53 46 42 42 41 40 40 39 39 35 28 24 19 15 13 10 6 4 12 11 10 10 11 11 9 9 7 6 6 5 4 5 7 8 7 7 7 8 8 9 10 11
45 48 47 44 43 41 41 40 41 39 33 31 24 20 15 14 11 7 5 9 10 10 10 11 12 10 9 7 6 6 6 6 7 7 8 8 9 10 10 11 12 13 13
52 52 46 46 46 43 41 41 43 40 31 27 24 22 17 14 11 10 7 8 7 9 11 11 11 10 9 8 9 8 7 8 8 10 10 10 12 13 14 15 14 15 16
50 49 47 48 47 45 43 41 40 37 33 28 25 20 15 13 12 12 10 9 9 7 7 8 11 11 11 11 12 10 11 11 12 12 13 14 15 17 17 17 18 18 20
47 45 47 49 49 46 45 43 39 34 30 26 26 23 17 15 15 14 13 12 12 12 11 9 9 9 11 12 14 14 14 15 16 17 18 18 18 21 21 21 22 23 24
47 45 45 48 50 48 46 44 41 38 34 30 30 27 22 17 18 17 17 17 17 16 16 14 13 14 14 15 17 17 18 18 19 23 24 23 23 25 26 27 28 28 28
48 48 44 48 50 50 51 47 43 40 40 33 29 24 15 11 22 21 23 22 21 21 20 19 19 19 18 19 20 20 21 22 23 25 27 29 29 29 30 32 34 34 34
51 50 49 47 51 52 50 49 46 43 42 37 34 28 21 12 12 12 25 26 24 25 25 24 23 21 22 24 23 24 23 23 25 27 30 33 35 37 36 37 38 40 39
54 54 53 52 51 49 49 49 49 45 40 40 37 37 25 17 15 12 10 16 20 23 24 24 24 24 25 25 25 24 23 24 26 29 33 36 38 40 42 43 45 46 46
59 57 56 52 50 50 48 46 44 45 43 36 37 35 27 21 21 17 17 13 16 17 19 22 26 27 28 28 27 27 28 29 30 33 36 38 41 46 47 46 47 51 53
55 58 52 51 50 48 46 48 47 41 30 33 36 32 22 27 26 26 24 23 22 28 31 31 27 27 29 31 31 31 32 32 33 36 36 38 40 44 49 53 53 51 55
53 54 53 49 50 47 45 44 43 38 37 35 34 27 23 25 30 29 29 27 31 33 36 36 34 32 33 32 33 31 31 30 32 34 37 39 37 38 41 45 50 50 54
38 46 55 47 47 44 43 43 41 36 33 31 32 29 27 29 28 29 27 29 31 30 34 38 39 38 35 35 35 33 33 31 36 35 36 35 37 38 38 38 39 43 45
39 48 53 54 46 44 44 40 35 33 32 34 32 31 31 30 32 31 29 33 35 37 41 45 43 40 38 40 39 38 37 34 38 36 38 39 38 38 38 38 39 40 42
34 39 43 49 54 48 33 41 43 40 35 34 34 34 35 33 30 30 33 35 36 38 41 43 41 38 40 42 37 39 36 31 33 36 40 37 36 37 37 39 40 41 43
22 26 36 32 34 39 38 38 36 35 33 33 33 32 32 33 33 37 37 36 38 39 40 41 36 36 33 26 22 25 29 31 34 36 38 38 39 41 42 43 44 44 43
22 23 25 29 30 34 34 35 33 33 31 29 29 31 35 36 39 39 37 38 39 40 38 36 36 31 26 28 29 31 32 33 31 35 35 37 39 40 40 39 38 38 39
22 21 22 24 28 31 32 34 32 33 31 31 35 36 38 41 39 38 39 41 38 35 34 27 24 22 20 24 26 28 28 28 29 29 28 29 33 34 34 33 32 33 34
21 18 19 20 23 27 30 32 32 34 36 36 39 36 35 37 38 40 40 34 26 23 17 14 15 16 19 20 22 24 25 26 23 26 27 26 28 28 28 28 28 29 30
23 21 23 25 27 29 27 27 27 30 31 31 31 32 33 34 30 20 12 10 8 6 8 9 12 15 16 17 18 21 25 27 25 25 29 30 29 31 30 28 28 28 25
31 29 29 30 29 29 27 25 24 26 28 30 29 30 24 16 9 4 3 3 5 9 11 11 9 11 14 17 20 21 20 20 21 25 29 31 29 30 29 28 24 23 20
29 30 31 30 30 29 28 27 27 27 27 26 20 16 12 9 6 3 2 6 7 6 6 7 9 10 13 17 18 18 19 22 22 23 32 32 31 33 38 35 30 31 32
32 32 31 31 29 28 27 27 27 28 24 19 14 12 10 8 7 2 5 6 4 5 6 9 10 12 12 13 16 19 24 27 30 29 25 25 34 42 42 29 26 22 30
33 32 30 26 27 26 22 22 25 24 23 20 17 13 8 5 6 6 3 3 4 6 7 8 8 9 11 15 18 21 23 25 27 27 19 34 35 36 30 26 25 38 33

GFSMA_850_spd_111.txt.gz
Wind_Speed
48 47 43 47 37 37 43 44 38 33 29 27 23 17 14 12 7 6 10 9 9 9 10 11 10 9 9 7 7 5 5 5 5 5 4 4 4 3 2 2 2 2 2
48 45 45 47 39 39 45 45 40 33 29 26 22 18 16 12 7 5 9 10 9 9 10 11 10 8 6 5 5 4 4 4 4 5 5 4 4 4 3 5 5 5 6
57 46 47 46 41 39 44 45 40 34 31 26 20 20 17 11 9 5 4 11 9 9 9 10 9 8 5 4 4 4 3 4 4 4 4 6 7 5 7 6 7 8 9
56 52 55 50 42 42 44 46 43 38 33 27 23 21 17 13 11 8 7 11 9 8 9 10 9 7 6 4 4 4 5 6 5 6 6 9 8 9 8 9 11 12 12
58 58 53 47 42 43 45 46 46 42 37 30 24 21 18 14 13 10 7 8 6 8 8 9 9 9 7 6 6 6 6 7 6 7 8 9 9 10 11 12 14 15 15
48 44 41 41 39 42 45 48 45 43 39 33 27 21 18 15 13 10 8 8 5 4 6 9 10 10 9 10 9 8 7 8 9 10 11 12 13 13 15 16 17 18 19
39 40 38 39 41 46 47 46 45 46 38 32 28 20 17 17 15 13 11 8 6 6 7 8 8 9 10 10 11 11 11 11 14 15 15 15 16 18 20 19 21 23 24
42 45 42 43 44 46 46 48 48 48 39 35 31 28 22 19 21 18 15 12 10 10 11 12 12 11 11 13 13 14 14 15 18 18 19 20 21 22 23 24 25 27 29
37 41 43 44 45 48 49 49 50 51 46 37 33 23 14 10 21 20 20 17 14 14 15 16 16 16 16 17 18 18 18 18 19 20 21 23 25 27 30 31 32 32 33
42 42 42 44 47 50 51 51 49 49 46 42 37 33 24 15 12 11 19 19 17 15 18 19 19 19 19 20 20 21 20 21 22 22 23 24 28 30 31 35 36 38 39
44 45 45 46 48 52 53 52 52 49 44 42 40 38 27 15 16 13 10 16 16 11 12 19 19 21 23 24 24 23 22 22 24 26 26 26 27 31 34 37 39 40 42
47 48 49 50 46 50 54 53 53 48 43 42 40 36 35 27 17 12 9 9 12 11 13 15 20 23 25 25 26 26 25 26 28 29 29 30 32 33 35 38 39 41 45
44 54 55 52 50 49 52 52 51 48 43 42 41 38 33 29 19 14 13 17 16 20 21 24 29 30 29 27 29 29 29 31 31 31 30 31 32 35 36 37 38 40 39
39 54 58 55 53 52 51 49 47 49 47 44 43 40 34 32 26 19 23 22 30 32 28 32 30 32 29 28 30 30 31 31 31 31 31 33 33 34 35 35 35 38 37
38 38 56 53 54 52 49 47 46 46 46 45 41 37 36 32 23 21 24 28 24 26 33 33 37 35 35 34 31 31 30 32 32 32 35 36 35 38 40 41 41 42 42
28 37 49 53 54 50 49 45 45 40 40 40 31 26 27 34 34 30 28 29 28 29 35 35 38 38 36 33 31 30 31 34 38 33 38 37 35 37 40 42 42 41 42
27 38 45 43 51 45 45 43 39 41 39 31 25 24 28 31 31 30 30 29 28 31 36 40 38 36 35 35 34 32 34 31 31 31 34 36 37 41 44 43 43 42 44
18 23 34 39 41 46 41 42 40 40 25 25 30 27 27 28 30 31 32 36 34 37 37 37 38 37 40 36 32 28 26 24 27 30 36 37 39 38 40 40 40 42 43
14 21 30 35 38 41 44 38 32 32 33 28 26 26 30 30 31 34 35 34 38 38 37 36 33 29 25 26 25 25 28 27 28 31 30 30 32 34 36 38 38 40 42
15 17 18 24 28 36 28 32 29 25 24 23 25 27 28 29 33 34 36 38 38 37 35 29 25 22 19 18 21 23 24 23 24 28 27 27 28 29 30 30 32 34 35
15 15 16 18 22 24 26 25 23 23 24 26 28 29 30 33 33 35 35 34 30 23 21 15 11 11 13 16 20 22 24 25 25 29 29 27 33 33 34 33 34 34 36
17 17 19 20 21 23 23 24 23 26 28 28 30 32 34 35 34 32 29 20 14 11 9 5 7 9 13 16 17 21 24 27 28 29 34 33 34 36 36 35 35 35 35
22 21 19 19 20 19 20 21 22 24 28 30 32 32 28 22 21 17 9 7 6 3 4 6 10 11 13 15 19 21 23 24 26 31 36 38 35 35 35 35 34 32 33
24 23 22 21 21 20 19 19 21 24 26 29 27 26 24 20 13 11 8 4 1 2 6 7 7 9 12 15 19 22 25 27 26 28 35 36 36 40 43 38 31 28 30
24 25 24 23 22 23 23 22 23 26 28 28 24 21 19 16 14 8 4 1 2 4 5 7 8 11 13 17 20 22 24 28 31 29 28 32 39 45 45 35 30 24 37
25 25 26 26 26 25 25 27 27 28 29 27 23 21 17 14 11 3 3 3 2 4 4 7 8 10 13 16 18 20 23 25 28 30 26 35 36 37 32 27 31 44 43

GFSMA_850_spd_114.txt.gz
Wind_Speed
42 40 34 36 37 32 34 40 39 34 28 25 24 18 14 12 10 11 12 11 12 10 11 11 10 9 8 7 7 7 7 7 7 6 6 6 5 4 3 2 2 2 4
48 46 38 41 40 36 36 42 40 35 29 26 25 20 17 12 8 9 12 11 9 9 9 10 10 8 7 6 5 5 5 5 5 4 3 3 2 1 1 1 2 4 6
52 50 43 46 44 39 38 44 39 33 28 27 24 22 16 13 9 8 10 9 8 9 10 11 9 6 6 5 4 3 3 3 2 2 1 1 1 2 3 4 4 6 8
49 54 47 50 47 42 39 44 41 34 30 29 25 23 19 14 12 9 7 9 8 8 8 9 9 6 4 3 3 2 3 2 1 1 1 3 4 6 6 6 7 9 10
46 45 53 53 45 42 41 46 43 37 33 29 24 23 20 14 13 9 6 8 8 7 8 8 8 6 5 4 3 2 3 2 3 3 4 5 6 7 7 9 10 12 13
43 57 49 55 50 44 41 46 46 39 33 29 25 25 20 15 14 9 7 9 8 8 8 8 7 6 6 5 5 4 4 4 5 6 6 7 9 10 10 11 14 15 17
46 51 53 48 53 45 42 46 47 42 36 31 29 26 20 18 16 12 11 9 8 6 6 6 4 6 7 8 8 6 7 8 8 10 11 12 12 13 14 16 18 20 21
34 53 51 50 52 45 42 46 50 46 39 33 32 28 22 19 19 17 16 13 10 9 8 7 5 5 6 8 9 9 10 11 12 14 15 16 16 17 18 19 22 25 26
31 37 42 43 47 45 42 45 49 49 45 37 35 23 15 10 22 21 21 18 15 13 11 8 8 9 9 11 12 13 13 14 15 16 18 19 21 22 23 25 26 27 28
35 30 34 34 39 39 41 45 49 49 48 43 36 30 21 14 16 13 23 20 17 16 15 12 9 9 11 13 15 17 17 18 19 20 22 22 24 25 27 27 29 32 33
32 34 33 35 34 38 39 44 49 51 49 47 44 37 23 17 16 14 13 19 19 15 13 8 6 9 11 14 18 21 20 21 21 22 24 26 28 29 30 32 33 35 35
33 33 37 36 37 36 40 44 48 50 49 49 44 38 34 28 21 19 14 12 12 10 8 8 10 14 16 19 24 23 22 23 24 25 27 29 31 32 33 35 35 36 37
36 36 41 41 44 41 41 44 49 50 49 50 45 40 35 32 23 17 14 13 13 10 13 11 13 24 23 25 25 23 22 24 25 27 27 28 30 31 34 34 34 33 31
39 40 44 42 43 43 41 45 47 48 47 46 41 42 39 33 27 26 26 16 12 17 24 28 23 25 26 26 25 23 24 23 24 25 28 32 33 34 36 37 38 37 40
36 44 44 44 47 46 45 43 46 49 46 45 42 41 42 39 32 31 22 20 17 20 23 24 25 27 25 27 25 24 25 27 27 28 31 33 36 36 37 39 39 40 40
33 39 43 44 54 52 52 50 47 49 48 49 46 46 43 41 43 39 29 25 22 22 25 26 26 26 29 30 30 29 28 29 29 32 37 36 32 33 35 35 35 39 43
22 23 33 46 52 59 54 51 45 45 51 50 48 48 41 43 36 27 28 32 31 26 27 27 27 30 33 33 31 31 29 27 29 31 32 32 35 34 33 37 40 41 43
14 13 23 29 41 49 53 52 46 47 41 38 41 35 37 28 25 29 29 27 28 28 30 34 31 31 31 30 28 22 19 18 23 24 28 30 34 37 36 37 36 38 39
15 14 14 30 35 30 39 43 46 34 38 37 36 34 28 22 21 25 25 26 29 31 32 27 27 31 29 27 18 18 19 22 24 24 26 26 26 29 29 29 31 33 34
11 12 18 20 28 34 37 37 30 32 39 37 26 23 26 22 23 24 25 27 27 30 31 30 27 25 24 22 23 23 19 19 21 23 23 25 27 28 29 30 31 34 35
9 9 13 21 24 30 35 37 28 27 27 25 24 21 22 22 22 24 24 26 29 27 26 22 18 17 14 13 14 17 20 20 24 25 24 25 30 32 31 30 32 33 35
12 11 14 14 18 23 21 20 19 22 23 21 20 22 23 23 24 26 27 28 27 21 17 15 13 10 8 11 13 17 19 22 23 25 30 27 29 30 30 30 31 30 30
16 15 14 14 16 15 18 19 17 17 19 19 19 21 22 22 23 21 17 15 12 11 12 9 6 5 8 11 12 15 19 21 24 28 32 32 29 34 35 35 33 32 32
18 16 15 14 14 15 15 16 16 18 19 22 23 23 21 18 13 12 11 11 10 8 5 1 2 3 7 11 15 17 20 20 20 27 32 31 38 40 40 36 31 30 35
18 18 17 16 15 15 15 16 18 21 22 22 21 19 18 16 15 13 11 9 7 5 4 3 6 9 10 12 15 17 19 24 25 26 26 33 38 44 42 37 27 40 37
18 17 17 18 18 16 17 17 20 23 25 25 24 21 19 17 18 12 7 7 6 6 5 6 8 9 11 14 16 19 21 24 27 24 25 33 34 38 32 24 38 45 44

GFSMA_850_spd_117.txt.gz
Wind_Speed
40 43 35 33 33 33 33 32 35 34 30 24 22 19 13 12 16 18 16 16 14 12 13 13 13 12 12 10 10 9 9 9 9 10 9 8 7 7 5 5 5 4 5
41 44 39 35 34 33 35 35 36 35 30 24 23 19 15 14 15 16 15 14 11 11 14 14 13 12 10 9 9 8 7 7 6 6 6 5 4 4 3 2 2 3 4
43 47 43 42 40 37 36 38 38 35 31 24 25 21 17 14 14 15 15 14 13 13 15 14 13 10 9 8 7 6 5 5 4 4 4 3 3 2 1 0 2 3 4
37 41 47 47 43 41 37 40 37 37 32 28 27 23 18 16 15 13 14 14 13 13 13 13 11 9 8 7 5 4 4 4 3 3 3 2 2 1 1 3 5 5 7
36 39 46 54 46 46 41 42 43 40 35 31 30 26 21 18 15 13 12 13 13 13 13 12 10 8 7 5 4 3 3 4 4 3 3 2 2 2 4 6 8 9 10
34 37 42 56 48 48 46 46 45 42 36 33 31 26 24 19 17 14 12 13 13 12 12 11 9 8 6 6 5 4 4 4 4 5 4 4 4 4 6 8 9 11 13
33 42 47 45 49 51 48 46 47 44 38 34 30 26 24 20 19 17 13 13 13 12 11 10 10 8 7 8 6 5 5 6 7 9 9 8 7 7 9 11 13 15 18
31 35 47 56 51 53 50 47 49 47 40 38 31 24 15 18 22 20 18 16 14 13 12 10 8 7 5 5 5 6 7 8 9 9 12 13 13 14 15 16 17 19 21
22 28 42 53 48 49 52 46 52 52 47 40 37 20 14 11 21 24 22 20 19 17 15 12 10 8 7 6 7 8 9 10 12 13 14 16 16 17 19 21 23 22 23
19 23 38 51 42 49 50 47 50 53 49 45 38 28 24 19 17 13 25 22 19 17 15 11 11 11 7 6 7 9 11 14 15 17 18 18 19 21 22 24 26 27 29
21 19 32 37 44 47 50 46 49 52 50 47 45 39 25 20 21 16 15 27 24 21 18 16 12 10 6 2 8 13 14 16 17 19 21 22 23 24 26 27 28 29 30
26 27 27 34 42 47 48 44 46 50 51 47 44 42 38 30 25 21 17 21 23 21 19 17 13 11 8 5 11 14 16 17 16 19 21 23 25 26 27 30 32 33 33
26 32 28 28 25 37 44 42 43 47 50 49 47 45 40 32 25 22 18 20 22 14 13 13 12 10 11 17 21 22 23 21 22 25 25 27 29 30 30 31 33 33 35
31 25 31 33 34 31 31 34 40 44 46 48 46 45 41 37 30 25 23 25 13 20 21 23 18 16 16 21 28 26 26 26 27 26 26 28 30 32 33 33 34 35 34
26 28 31 34 41 44 42 40 38 42 45 47 46 44 41 38 34 28 28 24 22 22 21 20 23 25 21 22 20 23 25 28 28 27 28 30 31 32 34 35 33 36 36
27 30 32 33 40 44 49 52 45 42 44 46 46 44 42 39 35 33 34 27 24 22 20 25 23 22 24 24 23 26 28 30 30 31 31 31 30 34 35 34 34 38 35
28 33 32 34 39 44 46 48 45 44 47 47 45 43 39 35 36 36 36 29 34 35 30 29 23 23 23 24 24 28 28 27 26 29 30 30 30 33 31 32 32 33 37
22 23 27 32 39 40 51 47 44 47 45 49 49 47 50 47 44 43 48 43 40 32 30 29 27 26 28 30 24 21 20 20 21 22 23 24 23 24 26 27 30 31 32
15 17 12 14 22 29 40 48 47 54 50 51 49 51 47 45 48 48 40 30 32 32 30 29 27 28 26 20 19 18 16 18 17 21 20 21 23 24 26 28 30 31 32
9 10 10 12 19 26 42 45 47 51 44 41 43 42 44 44 47 35 30 29 30 26 26 27 27 26 22 21 18 15 14 15 15 16 18 20 22 24 24 26 27 30 32
6 6 6 6 10 17 26 27 34 40 34 35 33 35 38 35 31 28 29 29 25 24 24 25 24 21 18 15 12 11 11 14 17 16 17 22 23 24 25 28 30 31 31
8 8 7 6 6 11 22 28 33 33 26 36 40 34 27 29 25 25 23 21 20 20 21 19 16 14 9 4 5 9 12 13 14 17 21 24 25 26 27 28 29 29 29
12 11 10 9 8 13 14 19 28 29 27 27 27 26 24 24 22 21 21 21 21 20 16 12 10 6 1 3 8 12 14 16 17 21 24 23 26 28 30 31 29 26 30
16 14 14 12 11 11 11 15 17 16 20 20 22 21 19 17 16 16 15 16 14 14 12 9 6 4 6 7 8 11 14 16 18 20 24 24 27 29 33 30 23 29 29
19 18 17 15 15 15 15 13 16 18 22 24 22 19 16 16 15 13 13 13 16 15 12 9 6 5 7 9 13 13 15 17 18 17 20 29 27 30 29 23 31 35 34
21 21 20 18 15 15 16 17 18 19 22 23 23 21 18 17 21 19 14 13 12 13 12 11 9 9 7 8 10 13 16 19 20 14 21 28 27 28 17 13 31 37 34

GFSMA_850_spd_120.txt.gz
Wind_Speed
30 30 36 38 33 27 26 27 21 22 23 24 20 17 15 13 14 13 13 16 14 13 15 16 14 13 12 12 11 11 11 11 11 11 11 10 9 8 7 6 5 4 4
35 37 39 37 37 29 27 27 24 24 24 22 20 17 15 14 15 14 13 15 15 13 16 16 14 14 12 12 11 11 10 11 11 10 9 8 7 7 6 5 3 2 1
38 41 42 42 38 36 30 28 27 25 25 23 20 19 15 15 15 15 14 14 14 15 15 13 13 12 12 11 10 9 9 9 8 7 7 7 6 5 4 4 3 1 2
38 37 42 40 43 40 36 33 28 27 26 24 21 19 16 16 15 16 14 14 14 13 16 15 13 12 11 9 8 8 8 8 7 7 7 6 5 5 5 4 3 3 4
37 34 41 37 47 43 39 38 34 30 30 24 22 21 18 16 15 15 16 15 15 14 12 15 14 12 10 8 7 6 7 7 7 7 7 6 5 4 4 4 4 5 6
33 35 36 40 45 42 45 42 37 31 29 28 24 21 18 16 15 15 15 16 15 15 14 13 13 11 10 9 7 6 7 6 7 7 6 5 6 4 4 5 6 8 9
29 31 36 37 43 47 49 47 43 36 31 31 29 23 18 17 16 14 14 15 15 15 15 14 13 12 11 10 9 7 6 7 7 7 7 7 8 8 8 9 11 12 14
28 30 37 37 47 51 55 51 49 39 34 34 33 27 19 15 15 16 15 16 17 15 16 16 15 14 12 10 8 7 6 6 6 8 9 10 11 12 13 14 15 17 18
28 33 36 40 45 55 56 55 53 45 37 36 33 32 24 16 23 19 18 17 18 16 15 16 16 16 14 11 10 7 6 6 8 11 12 13 15 17 18 20 21 22 23
28 31 35 37 47 59 55 58 54 48 41 40 32 29 24 20 28 18 19 20 19 19 18 17 18 17 14 13 11 8 5 7 11 14 16 18 19 21 22 23 25 25 26
24 24 29 30 39 53 51 52 56 47 45 42 39 32 25 21 24 18 23 24 20 20 19 20 21 16 14 14 11 7 5 8 12 15 18 20 22 23 25 27 27 29 31
17 18 14 26 36 52 49 53 54 50 42 40 37 36 30 26 25 20 16 23 24 21 19 22 20 16 13 13 11 10 12 16 17 17 20 21 23 25 27 28 30 31 32
17 20 19 21 38 44 48 49 54 50 47 41 44 38 29 26 21 22 17 19 21 15 18 20 15 14 16 15 17 16 17 22 24 23 24 27 27 27 28 30 31 31 32
20 20 22 23 35 41 39 49 50 46 48 46 42 37 34 27 23 22 19 20 17 13 16 16 16 16 16 21 20 20 25 27 30 28 27 27 28 28 30 31 31 33 34
20 22 25 28 23 29 32 43 45 46 46 46 44 43 36 28 26 25 26 22 25 19 14 16 20 22 22 19 20 24 24 25 25 27 28 28 29 30 32 33 32 33 35
20 22 29 28 30 28 30 41 42 42 43 44 44 41 38 36 38 36 31 26 30 28 21 24 23 23 20 22 23 25 26 27 28 29 28 29 29 31 31 32 32 32 31
20 21 27 26 34 34 37 43 44 39 42 44 45 43 41 46 41 39 33 30 30 28 25 24 25 24 21 22 26 24 27 28 29 31 28 27 27 26 26 26 27 28 30
20 23 27 27 29 31 35 44 45 45 45 41 44 46 46 45 40 40 36 33 34 31 32 28 31 30 28 31 24 24 24 25 23 22 22 21 20 21 22 24 27 29 29
19 21 24 25 27 28 33 41 46 49 54 53 44 46 49 47 42 40 40 40 38 40 42 37 28 26 24 23 22 22 20 19 17 18 19 18 18 19 21 26 27 26 27
12 14 17 17 17 18 20 35 52 56 53 53 57 47 49 45 35 48 45 44 43 43 35 31 32 33 26 23 21 19 18 16 15 14 16 17 18 19 19 21 24 27 28
10 12 12 12 11 10 11 24 46 47 43 47 48 43 44 48 35 44 45 46 38 38 32 33 27 24 23 20 18 15 12 10 9 10 13 16 17 17 19 21 24 25 25
11 11 9 8 9 5 8 18 33 41 40 41 45 43 40 39 41 36 37 38 38 32 31 25 25 24 19 13 10 7 5 6 8 7 14 13 16 16 18 20 21 21 24
14 13 12 8 7 6 3 17 20 27 35 33 34 36 34 34 35 37 35 30 26 26 24 20 19 15 12 8 4 0 3 6 8 11 13 13 16 17 20 18 16 22 23
17 15 14 12 10 9 6 8 17 24 30 30 33 34 31 29 26 28 27 27 22 19 16 15 14 13 9 6 4 3 6 7 8 11 13 14 17 20 19 13 20 21 22
20 18 17 15 13 14 11 11 24 28 26 29 29 25 24 21 21 20 20 19 19 19 19 15 13 12 7 4 5 5 4 5 6 7 13 18 15 19 16 19 20 22 23
22 20 20 18 17 17 18 20 21 27 29 28 25 24 21 21 21 18 14 17 20 21 19 17 12 9 8 5 3 4 7 8 9 5 13 17 15 17 11 21 21 21 22

GFSMA_850_spd_123.txt.gz
Wind_Speed
31 25 25 25 24 28 29 25 19 22 23 20 17 21 16 13 15 12 12 16 13 12 13 13 12 12 13 12 12 11 11 11 11 11 11 11 11 9 8 6 6 5 4
28 27 29 33 28 31 29 25 25 28 22 24 25 23 17 14 15 12 13 17 14 13 14 14 12 12 12 13 11 11 11 11 11 11 10 9 9 8 7 6 4 3 1
30 28 30 30 34 33 31 29 32 27 28 22 27 23 19 16 16 16 13 14 17 14 14 13 13 14 12 12 11 11 12 11 11 10 9 8 7 7 7 6 3 2 1
31 30 32 31 34 32 33 32 27 28 28 24 26 24 19 18 18 17 15 15 14 14 17 15 14 14 13 12 11 10 10 9 9 9 8 8 7 7 6 5 3 2 3
33 31 30 31 34 37 28 29 31 30 27 24 26 26 21 19 18 17 16 14 12 13 14 18 17 15 13 11 10 9 9 9 9 9 8 8 8 7 6 5 4 4 4
35 34 34 34 34 43 37 37 33 29 27 28 25 27 22 23 19 19 18 16 15 15 14 15 17 15 13 12 10 8 9 10 10 10 9 8 8 7 5 4 5 6 7
30 32 32 34 35 39 39 39 43 36 32 31 29 28 24 23 22 20 20 18 17 17 15 14 16 13 13 12 10 10 9 11 10 9 7 7 6 7 7 8 9 10 11
31 27 33 36 35 33 37 39 39 43 37 35 38 35 23 21 22 22 22 21 19 18 18 16 15 14 12 13 13 10 9 8 7 8 8 9 9 10 11 13 14 15 16
29 26 28 33 40 37 46 40 42 50 42 40 39 40 25 19 27 24 22 22 22 20 18 18 18 16 16 12 11 11 9 8 7 7 9 11 13 14 16 18 19 20 22
25 27 27 31 37 40 40 42 45 50 44 41 39 38 27 27 31 22 22 25 20 21 21 19 19 17 16 16 13 11 10 8 8 10 12 14 17 19 21 22 24 25 25
25 25 28 32 35 43 36 54 48 54 50 44 46 38 34 23 32 24 27 26 25 21 20 19 18 18 20 13 12 14 16 13 9 9 12 15 18 20 22 24 26 28 29
27 29 29 31 32 37 37 55 47 59 59 45 44 40 37 27 34 25 26 27 28 24 21 20 20 16 12 11 19 19 18 14 13 12 13 16 19 22 24 26 28 29 31
28 29 28 26 24 26 37 47 49 63 58 47 44 40 32 32 28 25 25 28 28 25 24 22 20 17 11 19 18 21 18 16 16 17 19 21 23 23 27 29 29 29 30
22 21 21 22 15 16 26 45 52 57 62 50 47 40 32 33 27 27 22 28 26 22 23 19 21 21 22 23 21 20 21 22 21 25 27 28 30 28 29 29 29 29 32
19 20 19 19 17 14 24 43 50 58 54 57 49 39 36 31 31 24 25 21 30 22 20 20 26 26 24 21 22 24 23 24 25 26 27 27 27 29 28 29 30 31 32
18 17 19 18 18 17 21 38 45 45 56 50 44 42 37 33 33 26 27 23 26 25 20 24 25 26 22 21 23 25 27 27 28 29 31 31 29 29 30 29 29 27 24
19 19 18 16 18 21 23 32 42 43 47 47 41 40 41 35 32 33 34 33 30 24 24 20 20 19 22 26 28 30 30 25 26 29 30 32 31 29 27 25 23 24 25
19 20 17 17 23 20 28 29 33 46 53 44 44 41 42 39 36 41 39 33 30 24 28 21 19 21 26 27 28 29 25 24 23 28 27 26 25 22 22 23 24 25 25
19 16 19 22 22 25 27 34 33 43 49 51 45 42 42 40 41 41 37 36 28 31 33 28 27 32 33 30 32 26 24 22 23 22 20 18 18 17 19 20 20 21 24
22 20 21 20 20 19 22 28 34 40 46 50 44 43 42 44 47 46 39 36 32 28 35 35 38 35 35 33 29 25 22 20 19 17 16 14 13 14 15 18 21 24 26
20 19 20 19 20 22 23 23 24 35 48 51 46 43 42 42 43 42 34 40 33 40 37 32 33 34 34 30 28 24 19 15 11 11 12 10 9 11 16 18 22 20 21
19 16 17 19 19 19 21 23 16 33 46 49 52 49 48 43 42 39 39 39 36 36 35 33 37 37 33 27 23 18 13 10 6 5 8 8 14 14 13 16 13 15 18
19 17 17 15 15 14 13 15 13 15 39 45 49 49 48 50 50 49 48 41 38 32 34 37 37 30 26 20 15 11 7 4 2 5 10 8 11 10 11 9 11 15 16
21 19 17 13 12 12 9 10 13 16 24 32 32 37 43 41 36 37 44 39 31 27 24 24 21 21 16 14 10 8 4 2 4 5 6 6 9 9 7 7 12 13 13
23 21 19 16 13 12 9 8 16 19 21 26 26 31 33 34 31 29 29 30 28 25 23 20 19 18 16 12 8 4 2 1 2 4 5 8 8 11 5 7 11 11 12
25 22 20 18 16 15 13 10 13 21 27 27 26 26 28 28 26 23 22 26 26 24 21 20 19 16 11 8 7 4 2 3 3 2 6 7 7 11 6 8 12 13 13